[[{"header":{"parameterUnit":"m.s-1","parameterCategory":1,"la1":30.6,"la2":29.2853,"lo1":-89.7004,"lo2":-87.6739,"dy":0.0162,"dx":0.0183,"nx":112,"ny":82,"refTime":"2026-04-11T12:00:00:Z","depth":0,"parameterNumber":2,"parameterNumberName":"U-component_of_WINDS"},"data":[0.0,0.0,0.0,0.0,0.0,0.0,0.0,0.0,0.0,0.0,0.0,0.0,0.0,0.0,0.0,0.0,0.0,0.0,0.0,0.0,0.0,0.0,0.0,0.0,0.0,0.0,0.0,0.0,0.0,0.0,0.0,0.0,0.0,0.0,0.0,0.0,0.0,0.0,0.0,0.0,0.0,0.0,0.0,0.0,0.0,0.0,0.0,0.0,0.0,0.0,0.0,0.0,0.0,0.0,0.0,0.0,0.0,0.0,0.0,0.0,0.0,0.0,0.0,0.0,0.0,0.0,0.0,0.0,0.0,0.0,0.0,0.0,0.0,0.0,0.0,0.0,0.0,0.0,0.0,0.0,0.0,0.0,0.0,0.0,0.0,0.0,0.0,0.0,0.0,0.0,0.0,1.1695,1.449,1.7917,2.1886,2.0797,1.9071,1.7148,0.0,0.0,0.0,0.0,0.0,0.0,0.0,0.0,0.0,0.0,0.0,0.0,0.0,0.0,0.0,0.0,0.0,0.0,0.0,0.0,0.0,0.0,0.0,0.0,0.0,0.0,0.0,0.0,0.0,0.0,0.0,0.0,0.0,0.0,0.0,0.0,0.0,0.0,0.0,0.0,0.0,0.0,0.0,0.0,0.0,0.0,0.0,0.0,0.0,0.0,0.0,0.0,0.0,0.0,0.0,0.0,0.0,0.0,0.0,0.0,0.0,0.0,0.0,0.0,0.0,0.0,0.0,0.0,0.0,0.0,0.0,0.0,0.0,0.0,0.0,0.0,0.0,0.0,0.0,0.0,0.0,0.0,0.0,0.0,0.0,0.0,0.0,0.0,0.0,0.0,0.0,0.0,0.0,0.0,0.0,0.0,0.0,0.0,0.0,0.0,0.0,0.0,0.0,0.0,1.2683,1.5393,1.9096,2.2257,2.4391,2.3325,2.0347,1.5276,0.0,0.0,0.0,0.0,0.0,0.0,0.0,0.0,0.0,0.0,0.0,0.0,0.0,0.0,0.0,0.0,0.0,0.0,0.0,0.0,0.0,0.0,0.0,0.0,0.0,0.0,0.0,0.0,0.0,0.0,0.0,0.0,0.0,0.0,0.0,0.0,0.0,0.0,0.0,0.0,0.0,0.0,0.0,0.0,0.0,0.0,0.0,0.0,0.0,0.0,0.0,0.0,0.0,0.0,0.0,0.0,0.0,0.0,0.0,0.0,0.0,0.0,0.0,0.0,0.0,0.0,0.0,0.0,0.0,0.0,0.0,0.0,0.0,0.0,0.0,0.0,0.0,0.0,0.0,0.0,0.0,0.0,0.0,0.0,0.0,0.0,0.0,0.0,0.0,0.0,0.0,0.0,0.0,0.0,0.0,0.0,0.0,0.0,0.0,0.0,0.0,0.0,0.0,1.4582,1.6404,1.919,2.3515,2.6991,2.9035,2.6151,2.1793,1.6163,1.3008,0.0,0.0,0.0,0.0,0.0,0.0,0.0,0.0,0.0,0.0,0.0,0.0,0.0,0.0,0.0,0.0,0.0,0.0,0.0,0.0,0.0,0.0,0.0,0.0,0.0,0.0,0.0,0.0,0.0,0.0,0.0,0.0,0.0,0.0,0.0,0.0,0.0,0.0,0.0,0.0,0.0,0.0,0.0,0.0,0.0,0.0,0.0,0.0,0.0,0.0,0.0,0.0,0.0,0.0,0.0,0.0,0.0,0.0,0.0,0.0,0.0,0.0,0.0,0.0,0.0,0.0,0.0,0.0,0.0,0.0,0.0,0.0,0.0,0.0,0.0,0.0,0.0,0.0,0.0,0.0,0.0,0.0,0.0,0.0,0.0,0.0,0.0,0.0,0.0,0.0,0.0,0.0,0.0,0.0,0.0,0.0,0.0,0.0,0.0,0.0,0.0,0.0,1.8699,2.0767,2.3161,2.7274,3.0622,3.2657,2.7052,2.1354,1.6351,1.1795,0.0,0.0,0.0,0.0,0.0,0.0,0.0,0.0,0.0,0.0,0.0,0.0,0.0,0.0,0.0,0.0,0.0,0.0,0.0,0.0,0.0,0.0,0.0,0.0,0.0,0.0,0.0,0.0,0.0,0.0,0.0,0.0,0.0,0.0,0.0,0.0,0.0,0.0,0.0,0.0,0.0,0.0,0.0,0.0,0.0,0.0,0.0,0.0,0.0,0.0,0.0,0.0,0.0,0.0,0.0,0.0,0.0,0.0,0.0,0.0,0.0,0.0,0.0,0.0,0.0,0.0,0.0,0.0,0.0,0.0,0.0,0.0,0.0,0.0,0.0,0.0,0.0,0.0,0.0,0.0,0.0,0.0,0.0,0.0,0.0,0.0,0.0,0.0,0.0,0.0,0.0,0.0,0.0,0.0,0.0,0.0,0.0,0.0,0.0,0.0,0.0,0.0,2.1914,2.5297,2.7354,2.9845,3.1853,3.3051,2.4284,1.7189,1.3672,0.8385,0.0,0.0,0.0,0.0,0.0,0.0,0.0,0.0,0.0,0.0,0.0,0.0,0.0,0.0,0.0,0.0,0.0,0.0,0.0,0.0,0.0,0.0,0.0,0.0,0.0,0.0,0.0,0.0,0.0,0.0,0.0,0.0,0.0,0.0,0.0,0.0,0.0,0.0,0.0,0.0,0.0,0.0,0.0,0.0,0.0,0.0,0.0,0.0,0.0,0.0,0.0,0.0,0.0,0.0,0.0,0.0,0.0,0.0,0.0,0.0,0.0,0.0,0.0,0.0,0.0,0.0,0.0,0.0,0.0,0.0,0.0,0.0,0.0,0.0,0.0,0.0,0.0,0.0,0.0,0.0,0.0,0.0,0.0,0.0,0.0,0.0,0.0,0.0,0.0,0.0,0.0,0.0,0.0,0.0,0.0,0.0,0.0,0.0,0.0,0.0,0.0,0.0,2.3482,2.6924,0.0,3.1907,3.2923,3.3101,2.8544,2.279,1.5982,0.0,0.0,0.0,0.0,0.0,0.0,0.0,0.0,0.0,0.0,0.0,0.0,0.0,0.0,0.0,0.0,0.0,0.0,0.0,0.0,0.0,0.0,0.0,0.0,0.0,0.0,0.0,0.0,0.0,0.0,0.0,0.0,0.0,0.0,0.0,0.0,0.0,0.0,0.0,0.0,0.0,0.0,0.0,0.0,0.0,0.0,0.0,0.0,0.0,0.0,0.0,0.0,0.0,0.0,0.0,0.0,0.0,0.0,0.0,0.0,0.0,0.0,0.0,0.0,0.0,0.0,0.0,0.0,0.0,0.0,0.0,0.0,0.0,0.0,0.0,0.0,0.0,0.0,0.0,0.0,0.0,0.0,0.0,0.0,0.0,0.0,0.0,0.0,0.0,0.0,0.0,0.0,0.0,0.0,0.0,0.0,0.0,0.0,0.0,0.0,0.0,0.0,2.1709,2.54,2.8902,0.0,3.3519,3.3903,3.3391,3.0251,2.5083,1.7422,0.0,0.0,0.0,0.0,0.0,0.0,0.0,0.0,0.0,0.0,0.0,0.0,0.0,0.0,0.0,0.0,0.0,0.0,0.0,0.0,0.0,0.0,0.0,0.0,0.0,0.0,0.0,0.0,0.0,0.0,0.0,0.0,0.0,0.0,0.0,0.0,0.0,0.0,0.0,0.0,0.0,0.0,0.0,0.0,0.0,0.0,0.0,0.0,0.0,0.0,0.0,0.0,0.0,0.0,0.0,0.0,0.0,0.0,0.0,0.0,0.0,0.0,0.0,0.0,0.0,0.0,0.0,0.0,0.0,0.0,0.0,0.0,0.0,0.0,0.0,0.0,0.0,0.0,0.0,0.0,0.0,0.0,0.0,0.0,0.0,0.0,0.0,0.0,0.0,0.0,0.0,0.0,0.0,0.0,0.0,0.0,0.0,0.0,0.0,0.0,0.0,0.0,2.3131,2.7867,3.1785,3.4071,3.471,3.472,3.3953,2.8033,2.2216,0.0,0.0,0.0,0.0,0.0,0.0,0.0,0.0,0.0,0.0,0.0,0.0,0.0,0.0,0.0,0.0,0.0,0.0,0.0,0.0,0.0,0.0,0.0,0.0,0.0,0.0,0.0,0.0,0.0,0.0,0.0,0.0,0.0,0.0,0.0,0.0,0.0,0.0,0.0,0.0,0.0,0.0,0.0,0.0,0.0,0.0,0.0,0.0,0.0,0.0,0.0,0.0,0.0,0.0,0.0,0.0,0.0,0.0,0.0,0.0,0.0,0.0,0.0,0.0,0.0,0.0,0.0,0.0,0.0,0.0,0.0,0.0,0.0,0.0,0.0,0.0,0.0,0.0,0.0,0.0,0.0,0.0,0.0,0.0,0.0,0.0,0.0,0.0,0.0,0.0,0.0,0.0,0.0,0.0,0.0,0.0,0.0,0.0,0.0,0.0,0.0,0.0,0.0,2.3969,2.8813,3.2521,3.4007,3.4768,3.4726,3.3643,3.0629,2.611,1.9812,0.0,0.0,0.0,0.0,0.0,0.0,0.0,0.0,0.0,0.0,0.0,0.0,0.0,0.0,0.0,0.0,0.0,0.0,0.0,0.0,0.0,0.0,0.0,0.0,0.0,0.0,0.0,0.0,0.0,0.0,0.0,0.0,0.0,0.0,0.0,0.0,0.0,0.0,0.0,0.0,0.0,0.0,0.0,0.0,0.0,0.0,0.0,0.0,0.0,0.0,0.0,0.0,0.0,0.0,0.0,0.0,0.0,0.0,0.0,0.0,0.0,0.0,0.0,0.0,0.0,0.0,0.0,0.0,0.0,0.0,0.0,0.0,0.0,0.0,0.0,0.0,0.0,0.0,0.0,0.0,0.0,0.0,0.0,0.0,0.0,0.0,0.0,0.0,0.0,0.0,0.0,0.0,0.0,0.0,0.0,0.0,0.0,0.0,0.0,0.0,0.0,0.0,2.4723,2.9386,3.2745,3.3559,3.4263,3.4114,3.2773,3.0869,2.7035,2.0685,0.0,0.0,0.0,0.0,0.0,0.0,0.0,0.0,0.0,0.0,0.0,0.0,0.0,0.0,0.0,0.0,0.0,0.0,0.0,0.0,0.0,0.0,0.0,0.0,0.0,0.0,0.0,0.0,0.0,0.0,0.0,0.0,0.0,0.0,0.0,0.0,0.0,0.0,0.0,0.0,0.0,0.0,0.0,0.0,0.0,0.0,0.0,0.0,0.0,0.0,0.0,0.0,0.0,0.0,0.0,0.0,0.0,0.0,0.0,0.0,0.0,0.0,0.0,0.0,0.0,0.0,0.0,0.0,0.0,0.0,0.0,0.0,0.0,0.0,0.0,0.0,0.0,0.0,0.0,0.0,0.0,0.0,0.0,0.0,0.0,0.0,0.0,0.0,0.0,0.0,0.0,0.0,0.0,0.0,0.0,0.0,0.0,0.0,0.0,0.0,0.0,0.0,2.5354,2.9714,3.2687,3.2947,3.3494,3.3138,3.1499,2.9561,2.5838,1.9686,0.0,0.0,0.0,0.0,0.0,0.0,0.0,0.0,0.0,0.0,0.0,0.0,0.0,0.0,0.0,0.0,0.0,0.0,0.0,0.0,0.0,0.0,0.0,0.0,0.0,0.0,0.0,0.0,0.0,0.0,0.0,0.0,0.0,0.0,0.0,0.0,0.0,0.0,0.0,0.0,0.0,0.0,0.0,0.0,0.0,0.0,0.0,0.0,0.0,0.0,0.0,0.0,0.0,0.0,0.0,0.0,0.0,0.0,0.0,0.0,0.4422,0.0,0.0,0.0,0.0,0.0,0.0,0.0,0.0,0.0,0.0,0.0,0.0,0.0,0.0,0.0,0.0,0.0,0.0,0.0,0.0,0.0,0.0,0.0,0.0,0.0,0.0,0.0,0.0,0.0,0.0,0.0,0.0,0.0,0.0,0.0,0.0,0.0,0.0,0.0,0.0,0.0,2.5592,3.0054,3.3,3.2773,3.307,3.2454,3.0409,2.9752,2.5039,1.4587,1.8494,0.0,0.0,0.0,0.0,0.0,0.0,0.0,0.0,0.0,0.0,0.0,0.0,0.0,0.0,0.0,0.0,0.0,0.0,0.0,0.0,0.0,0.0,0.0,0.0,0.0,0.0,0.0,0.0,0.0,0.0,0.0,0.0,0.0,0.0,0.0,0.0,0.0,0.0,0.0,0.0,0.0,0.0,0.0,0.0,0.0,0.0,0.0,0.0,0.0,0.0,0.0,0.0,0.0,0.0,0.0,0.0,0.0,0.0,0.0,0.0,0.3893,0.0,0.0,0.0,0.0,0.0,0.0,0.0,0.0,0.0,0.0,0.0,0.0,0.0,0.0,0.0,0.0,0.0,0.0,0.0,0.0,0.0,0.0,0.0,0.0,0.0,0.0,0.0,0.0,0.0,0.0,0.0,0.0,0.0,0.0,0.0,0.0,0.0,0.0,0.0,0.0,2.6747,3.0429,3.259,3.204,3.1244,3.0338,2.9253,2.8111,2.5285,2.0276,2.1464,0.0,0.0,0.0,0.0,0.0,0.0,0.0,0.0,0.0,0.0,0.0,0.0,0.0,0.0,0.0,0.0,0.0,0.0,0.0,0.0,0.0,0.0,0.0,0.0,0.0,0.0,0.0,0.0,0.0,0.0,0.0,0.0,0.0,0.0,0.0,0.0,0.0,0.0,0.0,0.0,0.0,0.0,0.0,0.0,0.0,0.0,0.0,0.0,0.0,0.0,0.0,0.0,0.0,-0.1094,-0.0891,-0.0757,-0.0515,-0.0422,-0.0398,0.1088,0.1959,0.2369,0.2307,0.0,0.0,0.0,0.0,0.0,0.0,0.0,0.0,0.0,0.0,0.0,0.0,0.0,0.0,0.0,0.0,0.0,0.0,0.0,0.0,0.0,0.0,0.0,0.0,-1.4512,-1.3017,-0.698,0.0,0.0,0.0,0.0,0.0,0.0,0.0,0.0,0.0,0.0,0.0,2.7813,3.0513,3.1854,3.1147,2.9314,2.7974,2.7642,2.6236,2.5244,2.4941,1.7764,0.8107,0.0,0.0,0.0,0.0,0.0,0.0,0.0,0.0,0.0,0.0,0.0,0.0,0.0,0.0,0.0,0.0,0.0,0.0,0.0,0.0,0.0,0.0,0.0,0.0,0.0,0.0,0.0,0.0,0.0,0.0,0.0,0.0,-0.5272,-0.5624,0.0,0.0,0.0,0.0,0.0,0.0,0.0,0.0,0.0,0.0,0.0,0.0,0.0,-0.3119,-0.3025,-0.2416,-0.2367,-0.2842,-0.2311,-0.221,-0.2488,-0.2299,-0.2732,-0.3549,-0.4375,0.0,-0.2833,-0.2289,0.0,0.0,0.0,0.0,0.0,0.0,0.0,0.0,0.0,0.0,0.0,0.0,0.0,0.0,0.0,0.0,0.0,0.0,0.0,0.0,0.0,0.0,-1.5004,-1.5272,-1.4343,-1.3015,0.0,-0.7935,-0.3932,-0.0175,0.2365,0.0,0.0,0.0,0.0,0.0,0.0,0.0,2.7426,2.996,3.1221,3.0626,2.8966,2.6957,2.4763,2.6235,2.2877,1.2611,-0.5086,-1.4871,-1.4278,-0.9739,0.0,0.0,0.0,0.0,0.0,0.0,0.0,0.0,0.0,0.0,0.0,0.0,0.0,0.0,0.0,0.0,0.0,0.0,0.0,0.0,0.0,0.0,0.0,0.0,0.0,0.0,0.0,0.0,0.0,-0.6134,-0.7456,-0.7256,-0.7874,-0.7744,0.0,0.0,0.0,0.0,0.0,0.0,0.0,0.0,0.0,-0.4133,-0.3506,-0.2951,-0.2571,-0.2454,-0.2218,-0.2059,-0.1823,-0.1991,-0.2421,-0.2598,-0.367,-0.5399,-0.7091,-0.822,-0.8764,-0.7283,-0.7173,-0.7952,0.0,0.0,0.0,0.0,-1.0918,-1.2638,-1.52,-1.7011,-1.8159,-1.836,0.0,0.0,0.0,0.0,0.0,0.0,0.0,0.0,0.0,0.0,-1.3075,-1.4001,-1.3908,-1.3394,-1.2535,-1.021,-0.6965,0.0,-0.0176,0.2343,0.634,0.0,0.0,0.0,0.0,2.4591,2.8363,3.0328,3.1038,2.9997,2.7722,2.5547,2.3721,2.2087,1.3746,-0.3625,-1.4009,-1.8168,-1.525,-1.2566,-0.983,0.0,0.0,0.0,0.0,0.0,0.0,0.0,0.0,0.0,0.0,0.0,0.0,0.0,0.0,0.0,0.0,0.0,0.0,0.0,0.0,0.0,0.0,0.0,0.0,0.0,0.0,0.0,0.0,-0.8613,-0.9644,-0.9008,-1.006,-1.0078,0.0,0.0,0.0,0.0,0.0,0.0,-0.536,-0.4722,-0.4261,-0.3891,-0.3209,-0.2529,-0.1751,-0.1637,-0.1223,-0.0727,-0.0708,-0.1098,-0.1734,-0.2655,-0.4244,-0.6464,-0.8653,-1.0777,-1.2673,-1.132,-1.1041,-1.1527,-1.1077,-1.0793,-1.0796,-1.267,-1.4146,-1.5651,-1.8915,-2.0927,-2.2082,-2.1981,-2.104,-1.9565,-1.7255,0.0,0.0,0.0,0.0,-0.9148,-0.9932,-1.0012,-1.0166,-1.1388,-1.2089,-1.2298,-1.1775,-1.0625,-0.855,0.0,-0.231,0.0429,0.555,0.0,0.0,0.0,0.0,2.5296,2.8784,3.0278,3.0443,2.9039,2.6346,2.3889,2.2066,1.7739,0.802,-0.8684,-1.4079,-1.5906,-1.4293,-1.4415,-1.2789,-0.9115,0.0,0.0,0.0,0.0,0.0,0.0,0.0,0.0,0.0,0.0,0.0,0.0,0.0,0.0,0.0,0.0,0.0,0.0,0.0,0.0,0.0,0.0,0.0,0.0,0.0,0.0,0.0,0.0,0.0,-1.1286,-1.2731,0.0,0.0,0.0,0.0,-0.7224,-0.685,-0.63,-0.5178,-0.4575,-0.3947,-0.33,-0.2271,-0.1445,-0.0824,0.0398,0.0871,0.0663,0.073,0.0346,-0.0648,-0.298,-0.4899,-0.6601,-0.9272,-1.1307,-1.2775,-1.3551,-1.3896,-1.3747,-1.3146,-1.2659,-1.2384,-1.3755,-1.5231,-1.6817,-1.9095,-2.0487,-2.1404,-2.2721,-2.1094,-1.8372,-1.7761,-1.4379,0.0,0.0,-0.8877,-0.7052,-0.716,-0.6817,-0.6529,-0.7331,-0.7931,-0.8496,-0.9107,-0.8313,-0.7054,0.0,-0.3127,0.0204,0.4693,0.0,1.1974,1.7368,2.0964,2.4306,2.782,2.8972,2.8996,2.7659,2.5031,2.1997,1.8634,1.4751,1.0833,0.6967,-0.4678,-1.2094,-1.3674,-1.6135,-1.6026,-1.2979,-0.934,0.0,0.0,0.0,0.0,0.0,0.0,0.0,0.0,0.0,0.0,0.0,0.0,0.0,0.0,0.0,0.0,0.0,0.0,0.0,0.0,0.0,0.0,0.0,0.0,0.0,0.0,0.0,0.0,-1.3344,-1.4305,0.0,-1.1272,-1.0543,-0.9616,-0.8132,-0.7237,-0.6159,-0.4976,-0.3755,-0.2762,-0.1934,-0.0521,0.0625,0.122,0.2133,0.26,0.2518,0.2143,0.1255,-0.0086,-0.2127,-0.4055,-0.602,-0.7468,-0.8785,-0.9894,-0.9598,-1.0799,-1.2673,-1.1933,-1.141,-1.1278,-1.2684,-1.4295,-1.6083,-1.7612,-1.9276,-2.0668,-2.0023,-1.8404,-1.6264,-1.4111,-1.1349,-0.8702,-0.7602,-0.5822,-0.426,-0.3914,-0.3818,-0.3925,-0.4291,-0.526,-0.6143,-0.6304,-0.5873,-0.4928,-0.299,-0.139,0.1018,0.5372,0.9082,1.3387,1.8763,2.2392,2.5564,2.8554,2.8708,2.7868,2.6096,2.3245,2.0306,1.7434,1.4716,1.0394,0.3929,0.0068,-0.3979,-0.8364,-1.1093,-1.1463,-0.9315,-0.8896,-0.7089,0.0,0.0,0.0,0.0,0.0,0.0,0.0,0.0,0.0,0.0,0.0,0.0,0.0,0.0,0.0,0.0,0.0,0.0,0.0,0.0,0.0,0.0,0.0,0.0,0.0,0.0,-1.4545,-1.3968,-1.4851,-1.4472,-1.1781,-1.1016,-1.0017,-0.8389,-0.7146,-0.5833,-0.4325,-0.2971,-0.1751,-0.0713,0.073,0.1773,0.2543,0.3173,0.3439,0.3528,0.2769,0.1673,0.0362,-0.1445,-0.2998,-0.4322,-0.5237,-0.5741,-0.5791,-0.5076,-0.5894,-0.7771,-0.8744,-0.9052,-0.9015,-1.0498,-1.2077,-1.3666,-1.5089,-1.6581,-1.762,-1.5889,-1.4294,-1.2553,-1.0126,-0.7786,-0.5576,-0.4268,-0.2565,-0.1118,-0.0919,-0.0916,-0.1191,-0.185,-0.2883,-0.3655,-0.3577,-0.329,-0.2237,0.0309,0.1094,0.2684,0.7073,1.1218,1.5637,2.049,2.3849,2.6426,2.8239,2.7982,2.6722,2.4371,2.1773,1.9113,1.6382,1.4115,0.9909,0.3121,0.187,-0.0813,-0.578,-0.9029,-1.0143,-0.888,-0.9683,-0.9467,-0.8205,0.0,0.0,0.0,0.0,0.0,0.0,0.0,0.0,0.0,0.0,0.0,0.0,0.0,0.0,0.0,0.0,0.0,0.0,0.0,0.0,0.0,0.0,0.0,-1.2087,-1.3635,-1.4365,-1.3107,-1.4307,-1.3937,-1.0847,-1.0696,-0.994,-0.793,-0.6756,-0.5321,-0.3321,-0.2256,-0.1037,0.0415,0.1245,0.2074,0.2799,0.3366,0.3607,0.354,0.2553,0.1638,0.0837,-0.106,-0.1862,-0.1667,-0.2691,-0.2332,-0.0926,-0.0505,0.0199,0.0582,-0.3977,-0.5712,-0.5744,-0.7339,-0.8618,-0.9873,-1.1572,-1.233,-1.2182,-1.0575,-0.8862,-0.7184,-0.6166,-0.3894,-0.157,-0.097,0.0622,0.2218,0.1781,0.1904,0.1709,0.006,-0.0664,-0.1002,-0.1059,-0.0437,0.1042,0.3921,0.4173,0.5313,0.9768,1.4316,1.8597,2.2261,2.5078,0.0,2.6866,2.6701,2.5439,2.2573,2.0731,1.8439,1.5244,1.2726,0.9757,0.608,0.1178,-0.3003,-0.6164,-1.0407,-1.2621,-1.2407,-1.2126,-1.2794,-1.4525,0.0,0.0,0.0,0.0,0.0,0.0,0.0,0.0,0.0,0.0,0.0,0.0,0.0,0.0,0.0,0.0,0.0,0.0,0.0,0.0,0.0,-1.0582,-1.1007,-1.2204,-1.3157,-1.3322,-1.2365,-1.2394,-1.1827,-1.0143,-0.917,-0.8215,-0.7095,-0.561,-0.4248,-0.3022,-0.1539,-0.0309,0.0611,0.2086,0.313,0.3659,0.4361,0.4575,0.4191,0.3369,0.264,0.1811,0.0711,0.0204,0.0306,0.0307,0.0822,0.1651,0.223,0.2887,0.302,0.0,-0.1612,-0.2234,-0.3806,-0.5565,-0.7267,-0.7672,-0.7703,-0.7214,-0.5847,-0.4325,-0.2803,-0.1547,0.0174,0.175,0.2238,0.3087,0.3826,0.3385,0.3182,0.2856,0.1877,0.1433,0.127,0.1484,0.2389,0.4038,0.6802,0.891,1.0982,1.3171,1.6644,2.0323,2.3663,2.5273,0.0,2.7163,2.5625,2.3607,2.1353,1.9383,1.717,1.4695,1.2517,1.0177,0.7553,0.4718,0.1763,-0.1233,-0.5641,-1.0303,-1.5203,-1.5551,-1.6158,0.0,0.0,0.0,0.0,0.0,0.0,0.0,0.0,0.0,0.0,0.0,0.0,0.0,0.0,0.0,0.0,0.0,0.0,0.0,0.0,0.0,0.0,-0.9104,-0.93,-1.0035,-1.0993,-1.1425,-1.0581,-1.0113,-0.9514,-0.852,-0.7519,-0.6572,-0.5852,-0.4667,-0.3558,-0.2318,-0.1223,0.0,0.1111,0.2179,0.3023,0.3675,0.4093,0.4358,0.4454,0.371,0.3297,0.3211,0.2356,0.2247,0.2564,0.2737,0.3244,0.3969,0.4275,0.4702,0.0,0.0,0.0,0.0,0.0,-0.2679,-0.3721,-0.3545,-0.3158,-0.2608,-0.1437,-0.038,0.0658,0.1735,0.2724,0.3655,0.4079,0.4517,0.481,0.4292,0.4194,0.3952,0.306,0.304,0.3288,0.3854,0.5043,0.6904,0.961,1.2356,0.0,1.6579,1.9112,2.1817,2.423,2.5422,2.6032,2.6177,2.4457,2.235,2.0172,1.8559,1.6575,1.3949,1.1624,0.0,0.0,0.0,-0.0048,-0.388,-0.7824,0.0,0.0,0.0,0.0,0.0,0.0,0.0,0.0,-1.9124,-1.8508,0.0,0.0,0.0,0.0,0.0,0.0,0.0,0.0,0.0,0.0,0.0,0.0,0.0,0.0,0.0,0.0,-0.744,-0.7042,-0.6648,-0.7883,-0.8644,-0.8081,-0.7597,-0.712,-0.6361,-0.5705,-0.5088,-0.4497,-0.3925,-0.307,-0.1611,0.0,0.0,0.0,0.0,0.2288,0.3226,0.3292,0.3671,0.4597,0.3847,0.3993,0.4834,0.4039,0.4148,0.5035,0.4643,0.51,0.6042,0.5824,0.6037,0.6321,0.4438,0.3352,0.2502,0.0742,0.0093,0.0186,0.0579,0.0,0.0,0.2249,0.2897,0.3408,0.39,0.4308,0.4683,0.5028,0.5204,0.5178,0.468,0.4905,0.4986,0.3936,0.4338,0.5049,0.5874,0.7489,0.9565,1.2114,1.4654,1.7062,1.9396,2.1281,2.2944,2.4354,2.5201,2.5405,2.456,2.3282,2.1581,1.9263,0.0,0.0,1.2923,1.0136,0.7115,0.3673,-0.1152,-0.6033,-1.0812,-1.3793,-1.6569,-1.9213,-2.0419,-2.2211,-2.452,-2.2876,-2.1896,-2.1425,-1.9136,-1.8222,0.0,0.0,0.0,0.0,0.0,0.0,0.0,0.0,0.0,0.0,0.0,0.0,0.0,0.0,0.0,-0.6233,-0.562,-0.5039,-0.4941,-0.4638,-0.467,-0.5372,-0.5396,-0.5054,-0.4477,-0.4089,-0.3804,-0.3622,-0.3081,-0.231,-0.131,-0.0819,0.0,0.093,0.1891,0.2543,0.307,0.4044,0.4779,0.5234,0.0,0.0,0.5929,0.5855,0.627,0.6817,0.629,0.6373,0.6884,0.6642,0.6836,0.7217,0.5321,0.4342,0.388,0.3361,0.2897,0.2619,0.3567,0.3698,0.3492,0.403,0.4634,0.5016,0.4732,0.5107,0.0,0.5201,0.5204,0.5299,0.5119,0.5134,0.516,0.516,0.5791,0.6641,0.7533,0.9332,1.1336,1.3302,1.5439,1.7491,1.9111,2.0954,2.2739,2.4231,2.4198,2.4055,2.4073,2.2528,2.0947,1.9769,1.7662,1.4949,1.1446,0.8228,0.4944,0.16,-0.5316,-1.0747,-1.4017,-1.592,-1.8087,-2.0696,-2.074,-2.0924,-2.1518,-2.0361,-1.9284,-1.8152,-1.8833,-1.8067,0.0,0.0,0.0,0.0,0.0,0.0,0.0,0.0,0.0,0.0,0.0,-0.6333,-0.5682,0.0,-0.4578,-0.43,-0.3716,-0.315,-0.3045,-0.2604,-0.2572,-0.3534,-0.3598,-0.3378,-0.2783,-0.2485,-0.2195,-0.2115,-0.1626,-0.1129,-0.0415,-0.0105,0.0526,0.1472,0.1926,0.26,0.3496,0.4257,0.5032,0.5805,0.6251,0.6802,0.7334,0.7338,0.7597,0.8093,0.7656,0.7696,0.7937,0.7736,0.7948,0.8146,0.716,0.6315,0.5674,0.5326,0.525,0.5264,0.5812,0.5927,0.5807,0.6002,0.6214,0.6239,0.5743,0.5721,0.5711,0.5206,0.5013,0.4924,0.5018,0.5145,0.539,0.5964,0.6876,0.7806,0.9005,1.0826,1.2673,1.4146,1.6126,1.7918,1.8894,2.0342,2.1703,2.2917,2.3088,2.2894,2.2342,2.1037,1.9749,1.8769,1.6343,1.334,0.951,0.4545,0.0081,-0.3601,-0.8332,-1.2093,-1.4501,-1.5977,-1.753,-1.9187,-1.8745,-1.8935,-1.9766,-1.811,-1.709,-1.6658,-1.4939,-1.4074,0.0,0.0,0.0,0.0,0.0,0.0,0.0,0.0,-0.7769,-0.6839,-0.5834,-0.4757,-0.3957,-0.3316,-0.2724,-0.221,-0.1744,-0.129,-0.1075,-0.0641,-0.0632,-0.1329,-0.1732,-0.1836,-0.1325,-0.1121,-0.082,-0.0624,-0.0417,0.0,0.0638,0.0641,0.107,0.2142,0.2069,0.266,0.4055,0.4347,0.5148,0.6377,0.6995,0.7653,0.8488,0.8594,0.8816,0.9129,0.8805,0.8798,0.8869,0.8744,0.901,0.9421,0.9108,0.8639,0.8012,0.7172,0.7153,0.7341,0.7434,0.7534,0.7614,0.7504,0.7349,0.7015,0.6524,0.61,0.5685,0.5315,0.4984,0.4845,0.5064,0.5393,0.5862,0.6851,0.7848,0.8945,1.036,1.1973,1.3607,1.4879,1.6564,1.8009,1.8734,1.9626,2.0596,2.1551,2.1912,2.1751,2.0698,1.961,1.8408,1.7153,1.4956,1.1677,0.7041,0.0919,-0.4252,-0.7872,-0.9834,-1.1758,-1.3832,-1.4746,-1.5553,-1.6249,-1.5576,-1.6077,-1.7577,-1.5366,-1.4501,-1.4826,-1.0744,-0.9542,-1.2574,-1.0273,-0.8324,-0.8232,-0.8057,-0.7256,0.0,0.0,-0.5115,-0.3605,-0.2988,-0.2496,-0.2112,-0.175,-0.128,-0.0699,0.0114,0.0668,0.1002,0.1735,0.2229,0.2115,0.0529,-0.0423,-0.0106,-0.0106,0.0,0.0,0.0,0.0425,0.1171,0.0972,0.1308,0.2181,0.266,0.3155,0.3782,0.5234,0.6269,0.6741,0.8049,0.8714,0.8848,0.9553,0.9994,1.0163,0.9691,0.9389,0.9339,0.9324,0.9943,1.0889,1.0785,1.0958,1.1214,0.9407,0.8449,0.7939,0.8131,0.7932,0.7528,0.7316,0.7334,0.7233,0.6246,0.5979,0.5989,0.5501,0.5322,0.5536,0.6294,0.6713,0.7143,0.797,0.8992,1.0075,1.1189,1.2502,1.3944,1.5373,1.6155,1.7039,1.8452,1.9225,2.0016,2.1111,2.0893,2.0589,2.0497,1.893,1.7143,1.5565,1.416,1.0486,0.3421,-0.0954,-0.428,-0.6661,-0.8537,-1.0594,-1.2957,-1.2419,-1.2183,-1.2398,-1.1749,-1.1848,-1.2825,-1.1401,-1.0806,-1.0949,-0.8855,-0.7657,-0.7863,-0.6621,-0.593,0.0,-0.492,-0.4374,-0.344,-0.3273,-0.2979,-0.1958,-0.1211,-0.0601,-0.0239,0.0591,0.1293,0.0,0.219,0.2725,0.2952,0.3228,0.3507,0.3507,0.2738,0.1958,0.1174,0.0958,0.0749,0.0756,0.1298,0.1738,0.2087,0.232,0.2773,0.3548,0.3795,0.4425,0.5354,0.6322,0.7015,0.7796,0.8824,0.9457,0.9457,1.0123,1.0547,1.0509,1.054,1.0534,1.0675,1.089,1.1327,1.1861,1.1861,1.1894,1.1954,1.0808,1.0138,0.9854,0.9458,0.913,0.8726,0.823,0.8089,0.7845,0.6958,0.6778,0.6767,0.6128,0.5992,0.6278,0.6577,0.6899,0.7365,0.8216,0.9213,1.0386,1.1765,1.2745,1.4023,1.5631,1.6306,1.7003,1.8176,1.8932,1.9489,1.9904,2.0212,2.0091,1.9301,1.7862,1.5449,1.1897,0.8926,0.5644,0.1863,-0.0879,-0.3152,-0.4987,-0.6663,-0.7999,-0.892,-0.8591,-0.8453,-0.8727,-0.8132,-0.7896,-0.8179,-0.8031,-0.6965,-0.5235,-0.3282,-0.1855,-0.4398,-0.365,0.0,-0.2617,-0.198,-0.1578,-0.1795,-0.1402,-0.0889,-0.025,0.0493,0.1098,0.1342,0.2409,0.3213,0.3199,0.3736,0.4153,0.4364,0.4415,0.4254,0.403,0.3807,0.3329,0.2274,0.1945,0.1738,0.165,0.2313,0.277,0.2914,0.3365,0.3921,0.448,0.4704,0.5334,0.642,0.6915,0.7616,0.8303,0.9316,0.9822,0.9822,1.062,1.1043,1.1085,1.1338,1.1617,1.2001,1.211,1.2327,1.2762,1.2663,1.2675,1.2703,1.1906,1.1494,1.107,1.0276,0.9821,0.9426,0.8924,0.8528,0.8137,0.7434,0.7308,0.7345,0.675,0.683,0.7137,0.7242,0.7655,0.8131,0.8924,0.9813,1.0867,1.2255,1.3025,1.397,1.5622,1.6197,1.6814,1.7945,1.8573,1.8851,1.8785,1.9258,1.9213,1.818,1.634,1.3579,0.9439,0.5794,0.3141,0.1785,0.0103,-0.1498,-0.291,-0.4455,-0.515,-0.4648,-0.467,-0.4641,-0.4522,-0.4317,-0.4046,-0.3498,-0.4004,-0.2404,0.1106,0.2788,0.3867,-0.3799,0.0,-0.0263,-0.0788,0.0,0.0937,0.0923,0.1051,0.1178,0.1938,0.2291,0.252,0.252,0.3113,0.3556,0.3746,0.4278,0.4794,0.4951,0.5209,0.5043,0.4142,0.3471,0.3136,0.0,0.3022,0.291,0.269,0.2692,0.2914,0.3589,0.3586,0.3921,0.448,0.5039,0.5531,0.5974,0.7111,0.7819,0.8181,0.9271,0.9822,0.9815,1.0986,1.1637,1.202,1.2149,1.2505,1.2881,1.2555,1.2881,1.364,1.3423,1.364,1.404,1.3254,1.2161,1.107,1.0276,0.9624,0.9137,0.8924,0.8428,0.7939,0.7341,0.7241,0.7241,0.7135,0.7534,0.8131,0.8619,0.932,1.0019,1.0609,1.1198,1.1823,1.2825,1.324,1.387,1.5308,1.5691,1.6194,1.7627,1.7997,1.8213,1.8323,1.792,1.7513,1.7375,1.4345,1.1491,0.9516,0.7233,0.5171,0.3304,0.1877,0.0656,-0.0318,-0.1833,-0.2155,-0.1007,-0.1286,-0.0778,0.0675,-0.0287,-0.029,0.0903,0.1205,0.3507,0.7713,0.8402,0.8059,0.1029,0.0,0.211,0.1748,0.2022,0.2411,0.185,0.1976,0.2231,0.2459,0.2294,0.2271,0.2523,0.2718,0.2907,0.2893,0.3296,0.358,0.3558,0.3421,0.3282,0.336,0.3165,0.0,0.0,0.0,0.0,0.2914,0.3141,0.3347,0.3529,0.412,0.4682,0.5072,0.5788,0.6429,0.6883,0.7922,0.8636,0.8885,0.9988,1.0785,1.139,1.1938,1.2281,1.266,1.2777,1.3155,1.3407,1.3267,1.3532,1.3975,1.3975,1.4083,1.4363,1.3805,1.3195,1.2481,1.1226,1.0527,1.0117,0.9525,0.9229,0.8931,0.823,0.8477,0.8801,0.8385,0.8881,0.9407,0.9383,0.9821,1.0314,1.0708,1.1492,1.2394,1.3368,1.3768,1.4334,1.5908,1.604,1.637,1.7637,1.8031,1.8167,1.801,1.7241,1.6244,1.5184,1.3528,1.1608,0.9588,0.8005,0.6388,0.4676,0.3537,0.2584,0.1782,0.1409,0.1276,0.1277,0.1769,0.2044,0.1966,0.189,0.2304,0.3448,0.4384,0.5807,0.7713,0.9972,1.064,0.4367,0.4395,0.373,0.3705,0.3433,0.3133,0.2431,0.2291,0.2283,0.2249,0.1818,0.1535,0.1781,0.1734,0.1816,0.1806,0.2009,0.2095,0.2083,0.208,0.2072,0.228,0.2415,0.2766,0.0,0.0,0.0,0.3253,0.3383,0.3479,0.3642,0.4208,0.4764,0.5292,0.5978,0.671,0.75,0.8425,0.9285,1.0073,1.0951,1.1872,1.2595,1.3067,1.332,1.3586,1.3992,1.4281,1.4643,1.4603,1.4713,1.4961,1.4864,1.4797,1.49,1.4327,1.3846,1.3237,1.2128,1.1381,1.0807,1.0311,0.997,0.9821,0.9221,0.9585,0.9925,0.9383,0.9786,1.0425,1.0177,1.0609,1.11,1.1678,1.2297,1.3031,1.389,1.4166,1.4683,1.5945,1.6133,1.6314,1.7282,1.7628,1.7622,1.7198,1.6266,1.5256,1.4127,1.3053,1.1691,0.9846,0.8665,0.7374,0.5872,0.5173,0.4421,0.3692,0.3781,0.3746,0.3478,0.4393,0.4567,0.391,0.4265,0.5023,0.6105,0.7069,0.8096,0.928,1.1094,1.2035,0.6117,0.5366,0.4597,0.5011,0.4065,0.3083,0.2663,0.1961,0.1533,0.1514,0.0939,0.0393,0.0387,0.0,0.0367,0.0362,0.0481,0.0597,0.0588,0.1175,0.1411,0.0,0.0,0.0,0.0,0.0,0.0,0.36,0.0,0.3421,0.4036,0.3975,0.4405,0.5353,0.5612,0.6384,0.7598,0.8408,0.9659,1.15,1.2269,1.2844,1.3324,1.4152,1.4754,1.4919,1.5478,1.6023,1.6269,1.6357,1.6315,1.6296,1.5967,1.5813,1.547,1.4922,1.4206,1.3491,1.2977,1.2089,1.118,1.1089,1.0861,1.0413,1.0413,1.0422,1.0422,1.0117,1.052,1.1012,1.1198,1.1688,1.237,1.334,1.353,1.3635,1.4372,1.4608,1.4919,1.5634,1.5863,1.6158,1.6694,1.6839,1.6599,1.5904,1.5195,1.4552,1.419,1.2943,1.1613,1.0221,0.9316,0.8257,0.6933,0.6691,0.616,0.5229,0.5263,0.5439,0.5706,0.6622,0.6926,0.6549,0.705,0.7862,0.8894,0.9501,1.0681,1.2436,1.2215,1.2617,0.745,0.6753,0.5607,0.4461,0.3361,0.2101,0.1261,0.0695,0.0276,-0.0412,-0.0799,-0.0906,-0.0645,-0.1247,0.0,-0.0965,-0.1074,0.0,-0.0942,-0.0476,0.0,0.059,0.0,0.1788,0.2592,0.3329,0.0,0.0,0.3896,0.3743,0.4292,0.4543,0.4739,0.4851,0.6379,0.7089,0.7138,0.8798,1.0345,1.1837,1.2388,1.3195,1.4272,1.4748,1.5311,1.5836,1.646,1.6586,1.6287,1.6754,1.6745,1.6351,1.6258,1.6138,1.6042,1.5743,1.4941,1.4052,1.3948,1.2934,1.1786,1.1744,1.1558,1.1198,1.0806,1.1114,1.1496,1.1236,1.1796,1.2579,1.2586,1.3028,1.3522,1.4004,1.4194,1.4389,1.4927,1.5149,1.5447,1.6133,1.6476,1.6665,1.6679,1.6422,1.6026,1.5477,1.4921,1.4368,1.3713,1.2803,1.1721,1.0408,0.9968,0.9075,0.7481,0.7244,0.6965,0.6556,0.6833,0.7218,0.7679,0.8109,0.8396,0.8505,0.9139,0.9827,1.0742,1.1288,1.2339,1.38,1.3921,1.4124,0.6916,0.5573,0.4016,0.2811,0.1412,0.0141,-0.0701,-0.1114,-0.138,-0.2045,-0.226,0.0,-0.1938,-0.2125,-0.207,0.0,0.0,0.0,-0.1202,-0.0727,0.0,0.0,0.1574,0.0,0.3007,0.3996,0.4697,0.0,0.4661,0.4462,0.4863,0.4977,0.5178,0.5552,0.6598,0.7512,0.8362,1.0085,1.1504,1.265,1.3523,1.4381,1.5224,1.5935,1.6408,1.6868,1.7426,1.7596,1.7596,1.8008,1.7981,1.7628,1.7129,1.6832,1.6683,1.6089,1.5399,1.4676,1.4801,1.4104,1.3071,1.2504,1.2162,1.2078,1.198,1.2268,1.2636,1.2597,1.304,1.3498,1.3653,1.3811,1.4196,1.4675,1.4948,1.514,1.5466,1.5777,1.6055,1.6155,1.6342,1.628,1.6127,1.5737,1.5308,1.524,1.4613,1.3901,1.3404,1.277,1.1809,1.0443,1.0171,0.9463,0.795,0.7982,0.802,0.7698,0.8311,0.8787,0.905,0.9604,0.9947,1.0126,1.0982,1.1854,1.2533,1.3431,1.4364,1.5343,1.571,1.5885,0.4769,0.2997,0.0977,0.0282,-0.0992,-0.2266,-0.2793,-0.2921,-0.3038,-0.3636,0.0,-0.3134,-0.2966,-0.2389,-0.1973,-0.1726,0.0,-0.0863,-0.0863,0.0123,0.0863,0.111,0.2342,0.3209,0.3579,0.4561,0.5262,0.5786,0.5586,0.5578,0.5622,0.5533,0.6074,0.7043,0.7149,0.8221,1.0343,1.1716,1.2831,1.364,1.5003,1.5935,1.6301,1.7126,1.7713,1.8052,1.8415,1.8881,1.9243,1.9359,1.9428,1.9285,1.8203,1.7584,1.7181,1.6365,1.5647,1.521,1.5341,1.5187,1.4624,1.3366,1.305,1.3149,1.3539,1.3711,1.3688,1.3955,1.4027,1.41,1.4388,1.4484,1.4675,1.5439,1.5698,1.5782,1.6002,1.6327,1.636,1.595,1.5726,1.5546,1.5408,1.4919,1.476,1.4996,1.4143,1.3469,1.3219,1.2669,1.1808,1.0484,1.0182,0.9553,0.8417,0.8729,0.895,0.879,0.9544,1.0122,1.0241,1.1094,1.1582,1.1677,1.2822,1.3703,1.428,1.5507,1.6372,1.6857,1.7369,1.764,0.1698,0.0,-0.1642,-0.258,-0.3557,-0.4129,-0.4208,-0.4294,0.0,0.0,-0.3757,-0.305,-0.2027,-0.1997,-0.1604,-0.0494,0.0,0.0,0.0,0.0,0.1849,0.0,0.0,0.0,0.0,0.0,0.0,0.0,0.7075,0.7322,0.663,0.6945,0.7573,0.892,0.9537,1.0285,1.1345,1.273,1.3621,1.4323,1.5715,1.6655,1.7244,1.7701,1.8169,1.8752,1.9345,0.0,1.8997,1.9809,1.9666,1.9008,1.8731,1.8216,1.7487,1.7085,1.6336,1.5395,1.5234,1.5005,1.4724,1.471,1.4765,1.4755,1.4666,1.4512,1.452,1.452,1.4764,1.4975,1.5261,1.5452,1.5629,1.6305,1.6258,1.6134,1.6536,1.6124,1.571,1.556,1.5232,1.4903,1.464,1.4705,1.4664,1.4096,1.3863,1.3553,1.2868,1.2315,1.1587,1.061,1.0363,0.9787,0.8636,0.8946,0.9441,0.9854,1.0039,1.0798,1.2224,1.2374,1.2887,1.3741,1.4829,1.5602,1.617,1.6936,1.7777,1.8427,1.9098,1.9178,-0.1955,-0.3343,-0.4643,-0.543,-0.5829,-0.5811,-0.6,0.0,0.0,0.0,-0.3949,-0.3022,-0.2248,-0.1354,0.0,0.0122,0.0,0.0,0.0,0.0,0.0,0.0,0.0,0.0,0.0,0.0,0.6508,0.6579,0.7422,0.792,0.7437,0.8232,0.9157,1.0021,1.1017,1.1836,1.2698,1.3575,1.4593,1.5646,1.6727,1.7565,1.8277,1.8513,1.8867,1.9338,1.9542,1.9461,1.9345,1.9809,1.9809,1.9319,1.8911,1.8294,1.7563,1.7161,1.658,1.5915,1.581,1.5848,1.5959,1.5969,1.5429,1.4777,1.4887,1.49,1.4983,1.5164,1.5364,1.5452,1.5642,1.5737,1.5927,1.6305,1.6536,1.6679,1.6876,1.656,1.6133,1.5529,1.5096,1.4743,1.4439,1.4274,1.4068,1.3843,1.3528,1.323,1.3039,1.2344,1.1573,1.0807,1.0593,1.0063,0.9164,0.9452,0.98,1.0238,1.097,1.2013,1.3222,1.3741,1.4376,1.5248,1.6183,1.7008,1.7829,1.869,1.9353,1.9919,2.0475,2.0473,-0.4449,-0.5619,-0.6405,-0.7044,-0.684,-0.6626,-0.6774,-0.6046,0.0,0.0,-0.3891,-0.2753,-0.2102,-0.0733,0.0364,0.0,0.1334,0.1837,0.0,0.0,0.0,0.0,0.0,0.0,0.0,0.0,0.0,0.6775,0.7627,0.8136,0.8383,0.9592,1.0486,1.1134,1.2117,1.3092,1.3922,1.4713,1.5738,1.6748,1.7799,1.8533,1.8954,1.9311,1.9589,1.9999,1.9757,1.978,2.0,1.9932,1.9904,1.9761,1.9004,1.8346,1.7674,1.7334,1.6825,1.643,1.643,1.6711,1.7147,1.6821,1.5871,1.4936,1.5274,1.5319,1.546,1.5734,1.579,1.5832,1.5832,1.5832,1.5832,1.613,1.6679,1.7041,1.6876,1.6698,1.6216,1.5339,1.4799,1.4436,1.4156,1.3697,1.346,1.3535,1.3153,1.2838,1.2928,1.2299,1.1522,1.0807,1.0643,1.0388,0.9781,0.9885,1.026,1.0839,1.2016,1.3136,1.4064,1.4917,1.5803,1.6658,1.7486,1.8471,1.9399,2.034,2.0911,2.1212,2.1777,2.1819,-0.4204,-0.5189,-0.5615,-0.5862,-0.582,-0.5642,-0.524,0.0,0.0,-0.346,-0.2843,-0.21,-0.0494,-0.0123,0.037,0.1232,0.1479,0.1611,0.0,0.0,0.0,0.0,0.0,0.0,0.0,0.0,0.6123,0.6412,0.7867,0.9017,0.9815,1.0815,1.1611,1.2548,1.3404,1.4187,1.4735,1.6457,1.7171,1.7092,1.8545,1.9181,1.9298,1.9549,2.0066,2.067,2.0523,2.0629,0.0,2.0342,2.0115,1.9851,1.9658,1.8971,1.8033,1.8326,1.7859,1.7067,1.6736,1.6885,1.7181,1.6859,1.6793,1.6879,1.6325,1.615,1.6135,1.5953,1.5853,1.5832,1.5832,1.5832,1.5832,1.613,1.6507,1.6595,1.6212,1.5587,1.4918,1.4493,1.3919,1.3475,1.3277,1.3198,1.3104,1.2808,1.2629,1.2322,1.1926,1.1887,1.1558,1.0595,1.0563,1.0542,1.025,1.0096,1.0622,1.2246,1.2905,1.3906,1.5222,1.5866,1.6773,1.8118,1.9398,2.0293,2.0746,2.1808,2.2369,2.2263,2.3107,2.3262,-0.2244,-0.2912,-0.3294,-0.4039,-0.4494,-0.4681,-0.4499,0.0,-0.4315,-0.3207,-0.259,-0.1846,-0.0854,-0.0122,0.0487,0.1339,0.1584,0.1843,0.2264,0.0,0.0,0.0,0.0,0.0,0.0,0.0,0.601,0.6903,0.836,0.9546,1.0456,1.1302,1.2303,1.3744,1.4117,1.4972,1.624,1.6918,1.7625,1.8134,1.8998,1.943,1.9549,1.98,2.008,2.0335,1.9853,1.9668,0.0,1.9286,1.9063,1.8933,1.9166,1.8748,1.8043,1.8197,1.7773,1.718,1.6787,1.6765,1.686,1.6588,1.6523,1.6677,1.6592,1.6414,1.6273,1.598,1.577,1.5547,1.5452,1.5452,1.5737,1.6103,1.6392,1.6535,1.6349,1.5775,1.5177,1.4462,1.3818,1.3146,1.275,1.2552,1.2514,1.2557,1.223,1.2097,1.2384,1.2023,1.164,1.1455,1.1048,1.0802,1.0722,1.0932,1.1639,1.2866,1.4018,1.5378,1.7124,1.7618,1.8449,1.9604,2.0724,2.1709,2.2749,2.3242,2.3729,2.4291,2.4639,2.4507,0.0524,0.0,-0.0519,-0.1544,-0.2542,-0.3262,0.0,-0.3586,-0.3576,-0.2714,-0.2097,-0.1476,-0.0852,-0.0121,0.0607,0.1336,0.158,0.1842,0.2404,0.254,0.0,0.0,0.0,0.3764,0.0,0.5319,0.6135,0.7148,0.8477,0.9572,1.0785,1.1589,1.2714,1.4302,1.4531,1.5407,1.6978,1.7395,1.8109,1.8881,1.9286,1.9589,1.9814,1.9787,1.9985,2.0099,1.9481,1.9257,0.0,1.8919,1.866,1.8634,1.8816,1.8581,1.8081,1.8007,1.7611,1.7003,1.68,1.6736,1.6698,1.6507,1.6444,1.6406,1.6612,1.65,1.6098,1.5901,1.5693,1.546,1.5204,1.5274,1.5452,1.5818,1.6035,1.6085,1.5874,1.548,1.4933,1.4077,1.331,1.2692,1.2261,1.198,1.1875,1.1954,1.1699,1.1746,1.2261,1.1757,1.1455,1.1719,1.1295,1.1079,1.1165,1.1652,1.2457,1.357,1.4929,1.6395,1.8056,1.8863,1.986,2.1011,2.2048,2.3153,2.4297,2.46,2.4996,2.5456,2.5575,2.5234,0.4229,0.3335,0.2678,0.1982,0.0374,-0.1001,0.0,-0.183,-0.2344,-0.1603,-0.1234,-0.0864,-0.0123,0.0,0.037,0.1356,0.1234,0.1372,0.2441,0.258,0.0,0.0,0.0,0.3477,0.4089,0.5255,0.6256,0.6898,0.8105,0.0,1.0785,1.1819,1.2768,1.383,1.4761,1.5687,1.6736,1.8147,1.8881,1.8881,1.9404,1.9707,1.9755,1.9683,1.9839,2.0081,1.9776,1.9661,0.0,1.9412,1.9298,1.9246,1.9132,1.8619,1.8118,1.7707,1.7206,1.6736,1.6736,1.6736,1.6736,1.6723,1.6723,1.6723,1.6723,1.6342,1.5897,1.591,1.5706,1.5426,1.5159,1.5083,1.5083,1.5083,1.5042,1.4851,1.4372,1.4002,1.3635,1.2845,1.2357,1.1929,1.1746,1.1488,1.1241,1.092,1.0888,1.0885,1.0913,1.0914,1.0899,1.0982,1.1038,1.1186,1.1618,1.2026,1.2841,1.4193,1.5486,1.6613,1.7669,1.9096,2.0619,2.2245,2.3499,2.4422,2.5078,2.5777,2.5873,2.5476,2.5641,2.545,0.2985,0.2004,0.1002,-0.0608,-0.1833,-0.271,-0.2899,-0.268,-0.2467,-0.2221,-0.1742,-0.1254,-0.0753,-0.0758,-0.0382,0.089,0.1017,0.1404,0.2448,0.0,0.0,0.0,0.3157,0.3766,0.0,0.0,0.643,0.7505,0.836,0.9457,1.0785,1.1695,1.2857,1.4282,1.5045,1.5966,1.7229,1.7712,1.834,1.8881,1.905,1.9244,1.9481,1.9389,1.9547,1.9814,1.9261,1.8889,1.8729,1.8264,1.7888,1.7705,1.7886,1.788,1.7717,1.7674,1.7283,1.6788,1.6493,1.6311,1.6205,1.6311,1.643,1.6418,1.663,1.6482,1.6151,1.5745,1.5444,1.512,1.4851,1.4973,1.502,1.4833,1.4816,1.4716,1.4546,1.4019,1.3433,1.2803,1.2191,1.1542,1.1,1.082,1.0751,1.071,1.068,1.0773,1.0964,1.0836,1.0877,1.1134,1.1037,1.1176,1.1682,1.2261,1.3209,1.4731,1.6173,1.7508,1.8703,2.054,2.1977,2.3017,2.4487,2.545,2.6084,2.6436,2.6628,2.6506,2.6436,2.6014,0.0362,0.0485,-0.0364,-0.1902,-0.3,-0.3514,-0.3704,-0.3514,-0.3204,-0.2835,-0.2371,-0.1892,-0.1262,-0.1277,-0.0774,0.0774,0.0903,0.1292,0.0,0.0,0.0,0.0,0.0,0.0,0.0,0.5515,0.6562,0.7627,0.8604,0.9579,1.0914,1.1872,1.3075,1.4401,1.5078,1.5952,1.6984,1.7389,1.789,1.8519,1.8576,1.8728,1.8979,1.8863,1.8889,1.905,1.8493,1.8237,0.0,1.7744,1.7494,1.7373,1.7487,1.7572,1.7603,1.7229,1.6882,1.6587,1.6423,1.6217,1.6111,1.6311,1.6355,1.6175,1.6373,1.6248,1.5828,1.5141,1.4743,1.4595,1.4335,1.4362,1.4412,1.4244,1.4208,1.4184,1.4076,1.3449,1.283,1.2368,1.158,1.0935,1.0473,1.038,1.0435,1.0405,1.05,1.0573,1.0963,1.0871,1.0982,1.1413,1.1435,1.1607,1.2015,1.2596,1.3536,1.5178,1.655,1.7854,1.9255,2.1199,2.2735,2.3672,2.5063,2.6187,2.6784,2.6976,2.7092,2.7092,2.6805,2.636,0.0,-0.1989,-0.1977,-0.2902,-0.3659,-0.4303,-0.4239,-0.4451,0.0,-0.3694,-0.3367,-0.2774,-0.1894,-0.166,-0.1161,0.0646,0.0646,0.0909,0.0,0.2376,0.0,0.0,0.3322,0.0,0.4125,0.559,0.6754,0.7383,0.8599,0.9822,1.1148,1.2113,1.3084,1.4172,1.5126,1.5729,1.6206,1.6996,1.7572,1.7818,1.8233,1.8369,1.8394,1.8285,1.8274,0.0,1.7794,1.7781,1.7796,1.778,1.7888,1.7972,1.77,1.7576,1.7477,1.6636,1.6308,1.6357,1.6328,1.6336,1.6324,1.663,1.6361,1.5952,1.5823,1.5695,1.5263,1.4271,1.3933,1.3876,1.3625,1.3568,1.3556,1.3545,1.3437,1.338,1.3131,1.2509,1.1879,1.158,1.0798,1.0147,1.0054,1.0147,1.0241,1.0222,1.0342,1.0571,1.099,1.1061,1.1262,1.1671,1.1854,1.2209,1.2711,1.2954,1.3793,1.5623,1.6639,1.7919,1.9513,2.1292,2.2829,2.4117,2.554,2.6572,2.7262,2.7357,2.7262,2.7262,2.6955,2.6396,-1.3939,0.0,-0.9628,-1.0486,-1.0208,-0.956,0.0,-0.7621,-0.6385,-0.5536,0.0,-0.4299,-0.3326,-0.2701,-0.1941,-0.0393,0.0,0.0656,0.1976,0.0,0.0,0.3711,0.4224,0.4692,0.521,0.6059,0.6758,0.7393,0.836,0.9579,1.0906,1.1752,1.2844,1.4172,1.4878,1.5569,1.6116,1.6332,1.6693,1.7232,1.7506,1.7769,1.8009,1.8227,1.8368,1.856,1.8435,1.8262,1.8066,1.8132,1.7836,1.7553,1.7482,1.7325,1.7183,1.6948,1.6758,1.6611,1.6658,1.6605,1.663,1.6736,1.6804,1.6714,1.5664,1.5148,1.4867,1.4535,1.4398,1.4139,1.3888,1.3819,1.3773,1.3591,1.334,1.3136,1.2876,1.2383,1.1783,1.1153,1.066,1.0272,1.0078,1.0369,1.0711,1.0744,1.1244,1.1549,1.1299,1.1384,1.163,1.1866,1.1929,1.2369,1.3137,1.3307,1.3978,1.5623,1.68,1.8169,1.977,2.1742,2.3299,2.4434,2.6317,2.7262,2.7262,2.7452,2.7357,2.6996,2.7324,2.7435,-1.8911,-1.5997,-1.3166,-1.3334,-1.2421,-1.111,-1.0434,-0.9265,0.0,0.0,0.0,-0.5567,-0.4497,-0.363,-0.2617,-0.1062,-0.0399,0.0,0.0,0.0,0.0,0.4129,0.4628,0.5233,0.0,0.6349,0.7027,0.7588,0.864,0.9822,1.0914,1.1872,1.3,1.4309,1.4801,1.535,1.5839,1.606,1.6294,1.6537,1.7028,1.7276,1.7408,1.7672,1.7735,1.7882,1.7874,1.7862,1.7746,1.7995,1.7954,1.7815,1.7684,1.7589,1.7418,1.7177,1.7053,1.6894,1.6879,1.687,1.6948,1.6736,1.666,1.6428,1.5652,1.51,1.4593,1.4287,1.4083,1.3846,1.3713,1.369,1.3624,1.3369,1.3215,1.2986,1.2683,1.2175,1.1688,1.11,1.0806,1.0511,1.0413,1.0806,1.1258,1.1337,1.1813,1.1921,1.1548,1.1811,1.2136,1.2307,1.2528,1.2954,1.3815,1.4068,1.475,1.5991,1.7152,1.8506,2.0133,2.2113,2.3862,2.5397,2.6635,2.7357,2.7452,2.7547,2.7641,2.7568,2.801,2.8263,-2.0183,-1.7322,-1.4545,-1.4341,-1.2853,-1.1308,-1.0914,0.0,0.0,0.0,0.0,0.0,0.0,-0.4034,0.0,0.0,0.0,0.0,0.2566,0.3503,0.4037,0.444,0.5059,0.0,0.5796,0.6562,0.7335,0.7932,0.9063,1.0207,1.1156,1.2113,1.3156,1.4304,1.4841,1.5135,1.5536,1.5937,1.6078,1.6198,1.6628,1.6839,1.6861,1.7043,1.7019,1.6988,1.7041,0.0,1.736,1.7719,1.7954,1.8263,1.8034,1.7913,1.7817,1.745,1.7212,1.7254,1.7174,1.7206,1.7067,1.6736,1.6373,1.5989,1.5885,1.5403,1.471,1.3898,1.3637,1.3583,1.348,1.348,1.3427,1.3211,1.3136,1.305,1.2562,1.2098,1.1688,1.1394,1.11,1.0904,1.1002,1.1482,1.1873,1.2078,1.2278,1.2288,1.2026,1.2428,1.2786,1.282,1.3345,1.3867,1.4405,1.4908,1.5616,1.6595,1.7676,1.9067,2.087,2.2631,2.4523,2.6376,2.686,2.7262,2.7547,2.7641,2.7831,2.8228,2.8583,2.8839,-1.7185,-1.6178,-1.5624,-1.6617,-1.5371,-1.3648,-1.2638,0.0,0.0,0.0,0.0,0.0,0.0,-0.3224,-0.2059,0.0,0.0,0.2434,0.0,0.0,0.4839,0.551,0.0,0.6269,0.6193,0.6814,0.7374,0.7572,0.8783,0.9958,1.0793,1.1752,1.2733,1.3731,1.464,1.5206,1.554,1.5985,1.6328,1.6328,1.6607,1.6865,1.6865,1.7078,1.7326,1.7474,0.0,1.7462,1.7622,1.7987,1.7984,1.7907,1.8117,1.8082,1.7961,1.7892,1.784,1.7868,1.7566,1.7193,1.6736,1.643,1.6299,1.6156,1.5743,1.5506,1.5258,1.4927,1.4294,1.3766,1.3162,1.3265,1.347,1.3427,1.3467,1.3292,1.2762,1.2506,1.2175,1.1883,1.1688,1.159,1.1785,1.236,1.2834,1.2662,1.3317,1.3695,1.3147,1.3762,1.4052,1.3528,1.4196,1.4679,1.4671,1.5061,1.5926,1.728,1.8024,1.9624,2.2281,2.3813,2.504,2.5913,2.7128,2.762,2.7357,2.7715,2.7809,2.7452,2.8295,2.8815,-1.638,-1.5349,-1.4814,-1.5597,-1.444,-1.2918,-1.1956,-1.0674,0.0,0.0,0.0,0.0,0.0,0.0,-0.1163,0.0536,0.0,0.3238,0.3801,0.4726,0.551,0.0,0.0,0.6569,0.666,0.7266,0.7847,0.8258,0.9136,1.0143,1.0927,1.1687,1.2647,1.3602,1.4666,1.5463,1.5836,1.6444,1.656,1.6312,1.6566,1.6746,1.6746,1.7003,1.7185,1.7163,0.0,1.7247,1.7213,1.7587,1.7847,1.796,1.8057,1.7949,1.778,1.7596,1.7334,1.7266,1.7089,1.687,1.6418,1.6217,1.6111,1.6004,1.5791,1.5684,1.5577,1.5148,1.4764,1.4477,1.4162,1.4173,1.4245,1.4216,1.3992,1.3769,1.3236,1.292,1.2662,1.2467,1.2467,1.2467,1.2748,1.3221,1.3619,1.3823,1.4195,1.4415,1.4087,1.4485,1.4887,1.4874,1.5388,1.5763,1.5955,1.6414,1.7157,1.8181,1.9259,2.0802,2.2847,2.3712,2.467,2.5812,2.6484,2.7087,2.7715,2.7904,2.7998,2.8113,2.8678,2.9021,-1.5053,-1.391,-1.2931,-1.3075,-1.2406,-1.1592,-1.1077,-0.9849,0.0,0.0,0.0,0.0,0.0,-0.1166,0.0,0.1482,0.2704,0.365,0.4327,0.5255,0.5912,0.6046,0.6317,0.6585,0.6987,0.7578,0.8181,0.8807,0.9774,1.0496,1.0922,1.1931,1.2778,1.3496,1.4739,1.572,1.6022,1.6626,1.6829,1.6474,1.6657,1.6743,1.6754,1.6926,1.6904,1.6743,1.6943,1.6937,1.6761,1.7202,1.7529,1.7906,1.7815,1.772,1.7647,1.7406,1.7008,1.6867,1.6882,1.6636,1.6402,1.6114,1.5982,1.597,1.591,1.5885,1.5779,1.5363,1.5256,1.5137,1.4934,1.4934,1.4995,1.4801,1.4665,1.4299,1.3847,1.3501,1.3311,1.3072,1.3147,1.334,1.3619,1.4004,1.4292,1.4688,1.4829,1.4986,1.5047,1.5299,1.57,1.6345,1.6551,1.6873,1.7328,1.7873,1.8589,1.9212,2.0448,2.159,2.2825,2.3281,2.4141,2.5651,2.5865,2.6598,2.7809,2.7998,2.8186,2.8488,2.889,2.9171,-1.2158,-1.1019,-1.0204,-0.9709,-1.0263,-1.0912,-1.0785,-0.9142,0.0,-0.589,0.0,0.0,0.0,0.0264,0.1619,0.2054,0.3019,0.3976,0.4798,0.0,0.6046,0.6451,0.6455,0.6585,0.6987,0.7646,0.8265,0.8813,1.0214,1.0976,1.1053,1.2416,1.3181,1.3023,1.477,1.5757,1.5778,1.6636,1.699,1.6958,1.6969,1.698,1.698,1.699,1.699,1.6969,1.6754,1.6783,1.6751,1.7145,1.719,1.692,1.7271,1.7506,1.7539,1.7843,1.7762,1.7514,1.7489,1.719,1.6598,1.6344,1.6247,1.6211,1.597,1.5885,1.5885,1.5885,1.5885,1.5672,1.4815,1.4826,1.5041,1.5018,1.5024,1.4873,1.4412,1.4259,1.4115,1.3881,1.3835,1.3931,1.4208,1.4688,1.4987,1.4688,1.5324,1.5803,1.6129,1.6309,1.6723,1.7474,1.7566,1.7757,1.837,1.9208,1.9851,2.0307,2.098,2.1571,2.2143,2.3217,2.4275,2.5209,2.6095,2.6806,2.7357,2.7809,2.7904,2.7736,2.87,2.9246,-1.1862,-1.0748,-0.9908,-0.9627,-0.9123,0.0,0.0,-0.8114,-0.6532,-0.481,-0.3203,0.0,0.0,0.0,0.2136,0.2706,0.3528,0.4341,0.5153,0.5665,0.618,0.6719,0.6853,0.7121,0.7922,0.8451,0.9099,0.9977,1.0678,1.1213,1.1599,1.2439,1.3009,1.3198,1.4595,1.5385,1.565,1.6379,1.6753,1.7001,1.7001,1.7001,1.7001,1.7001,1.7001,1.7001,1.6915,1.6797,1.6657,1.6822,1.6941,1.7168,1.78,1.7733,1.7503,1.779,1.7572,1.6966,1.7195,1.7037,1.6682,1.6573,1.6537,1.6525,1.6429,1.6272,1.6139,1.6139,1.6018,1.5779,1.5458,1.5458,1.5565,1.5791,1.5692,1.5579,1.556,1.5442,1.5283,1.4998,1.5045,1.5177,1.5191,1.5595,1.5919,1.6195,1.647,1.6677,1.6786,1.7056,1.7375,1.7658,1.8182,1.8694,1.9329,1.9625,1.9889,2.0086,2.1174,2.2026,2.2479,2.3328,2.4074,2.471,2.5237,2.591,2.6827,2.7014,2.7254,2.7641,2.7809,2.7902,-1.1569,-1.0383,-0.9341,-0.929,0.0,0.0,-0.7587,-0.6891,-0.5816,-0.433,-0.2454,0.0,0.0,0.0,0.0,0.0,0.3768,0.4577,0.5111,0.5513,0.5915,0.6581,0.6719,0.7254,0.8189,0.8717,0.9516,1.0452,1.1016,1.1453,1.1918,1.2875,1.3326,1.3518,1.4856,1.5741,1.6136,1.655,1.7012,1.726,1.726,1.726,1.7001,1.7001,1.7001,1.7001,1.7001,1.6915,1.7019,1.707,1.7394,1.7661,1.8275,1.8167,1.7744,1.7961,1.7648,1.7205,1.7237,1.7092,1.6936,1.6851,1.6827,1.6803,1.683,1.6784,1.6625,1.6747,1.6611,1.6464,1.6464,1.6294,1.6258,1.6667,1.648,1.6361,1.6469,1.6343,1.6163,1.5879,1.5914,1.6045,1.6139,1.6273,1.6603,1.7009,1.7288,1.7442,1.7609,1.7969,1.8228,1.8409,1.8978,1.9659,2.0093,2.0292,2.0292,2.0201,2.1511,2.2391,2.2428,2.3186,2.3935,2.4629,2.4815,2.5498,2.6598,2.6692,2.7045,2.7547,2.7547,2.744,-1.0862,-0.9466,-0.8384,-0.8019,0.0,0.0,-0.6276,-0.5728,-0.4917,-0.4336,-0.1953,0.013,0.0394,0.1714,0.0,0.2684,0.3633,0.444,0.4705,0.5111,0.5513,0.5912,0.6317,0.6723,0.7393,0.8456,0.9383,1.0193,1.1247,1.1833,1.2056,1.3509,1.4308,1.4107,1.5594,1.6623,1.7001,1.7271,1.7658,1.8033,1.8033,1.7647,1.7001,1.7001,1.7001,1.7001,1.7001,1.7141,1.7507,1.8024,1.8256,1.8398,1.8655,1.8643,1.8362,1.8348,1.8381,1.8332,1.7693,1.7491,1.7443,1.7177,1.7092,1.7171,1.7229,1.7266,1.7266,1.7489,1.7601,1.7601,1.7601,1.7177,1.6929,1.7525,1.7372,1.7188,1.6919,1.686,1.678,1.6465,1.6413,1.6513,1.6714,1.6814,1.6927,1.7127,1.7526,1.8123,1.8587,1.8981,1.933,2.0046,2.0239,2.049,2.0762,2.114,2.123,2.0852,2.2149,2.259,2.2005,2.2833,2.39,2.5059,2.5059,2.5559,2.6496,2.7071,2.7262,2.7262,2.7809,2.7968,-1.0532,-0.9463,0.0,-0.7548,0.0,0.0,0.0,-0.5381,0.0,0.0,-0.1707,-0.0393,0.1053,0.1845,0.0,0.3356,0.3902,0.444,0.4705,0.4839,0.5379,0.6183,0.6585,0.7254,0.8189,0.8989,0.9788,1.0459,1.1512,1.2289,1.2497,1.3979,1.4772,1.4707,1.5674,1.6364,1.7001,1.713,1.7389,1.8033,1.8033,1.7905,1.7647,1.7647,1.7647,1.7647,1.7647,1.7776,1.7893,1.8404,1.8512,1.869,1.9436,1.9432,1.9023,1.9517,1.9427,1.8968,1.8571,1.8483,1.8433,1.8156,1.8194,1.8345,1.8374,1.8349,1.8349,1.8466,1.8326,1.834,1.8997,1.8942,1.8525,1.8112,1.7857,1.7877,1.8018,1.778,1.7583,1.7277,1.7257,1.7157,1.7055,1.7392,1.7733,1.795,1.8337,1.8818,1.929,1.9865,2.0394,2.052,2.054,2.0653,2.0933,2.09,2.1011,2.1305,2.2565,2.3087,2.2402,2.3515,2.4294,2.4507,2.4698,2.5156,2.5844,2.5939,2.629,2.6784,2.6668,2.6633,-0.9986,-0.9,0.0,-0.7158,-0.6214,-0.5349,-0.4631,0.0,0.0,0.0,-0.1329,-0.0266,0.0798,0.1595,0.0,0.3092,0.3499,0.4037,0.4305,0.4574,0.4977,0.5915,0.6451,0.7121,0.8056,0.8856,0.9655,1.0459,1.1247,1.1909,1.2576,1.3752,1.467,1.4931,1.5714,1.6494,1.7141,1.7389,1.7647,1.8302,1.8431,1.8431,1.8419,1.8162,1.8033,1.8033,1.8302,1.8547,1.8664,1.9283,1.9474,1.9474,2.0229,2.0237,1.9846,2.0159,1.9944,1.9627,1.9223,1.9013,1.8974,1.8809,1.886,1.912,1.9253,1.9374,1.9494,1.9601,1.9602,1.9746,2.0264,2.0301,1.9924,1.9334,1.8924,1.8874,1.8986,1.8865,1.8699,1.8507,1.8337,1.8178,1.7997,1.8217,1.8363,1.8583,1.9168,1.9702,2.0128,2.0522,2.0931,2.1197,2.0992,2.0992,2.1483,2.1439,2.1593,2.232,2.3198,2.3538,2.3051,2.3877,2.4417,2.4369,2.4659,2.4948,2.5428,2.5619,2.5853,2.6187,2.6091,2.6093,-0.9288,-0.8326,-0.7306,-0.666,-0.5862,0.0,-0.3488,-0.2825,-0.2422,-0.175,0.0,0.0,0.0135,0.1212,0.2155,0.2289,0.2827,0.3362,0.3768,0.4171,0.4577,0.5379,0.6053,0.6723,0.7393,0.8189,0.8989,1.006,1.0585,1.1247,1.2173,1.3358,1.4277,1.4931,1.5974,1.6764,1.74,1.7787,1.8173,1.8571,1.8956,1.9072,1.9072,1.8419,1.8162,1.8162,1.8816,1.9328,1.9699,2.0348,2.0628,2.0654,2.1022,2.0895,2.0615,2.0354,2.0375,2.0185,1.964,1.9415,1.9415,1.9389,1.9389,1.9537,1.9794,2.0186,2.0564,2.0794,2.1036,2.1278,2.1278,2.125,2.1286,2.1005,2.0456,1.9892,1.9892,1.9849,1.9828,1.9828,1.9585,1.937,1.937,1.9141,1.906,1.9031,1.9866,2.0559,2.0938,2.105,2.1274,2.186,2.1624,2.1586,2.2178,2.2329,2.2663,2.3538,2.3691,2.3809,2.3809,2.4108,2.4288,2.4529,2.4726,2.5039,2.5333,2.5839,2.5956,2.5762,2.5995,2.6035,-0.8468,-0.7892,0.0,-0.6302,-0.5079,-0.3887,-0.2957,-0.2287,-0.175,-0.1346,-0.0539,0.0269,0.1077,0.1481,0.2019,0.2825,0.3094,0.3497,0.4037,0.4308,0.4708,0.5647,0.6183,0.6723,0.7393,0.8189,0.8856,0.925,1.0717,1.1644,1.1909,1.3621,1.48,1.4931,1.5974,1.6753,1.713,1.74,1.7787,1.8173,1.8571,1.8699,1.8699,1.8816,1.8816,1.8944,1.9328,1.9584,1.9699,2.0348,2.0732,2.0941,2.1328,2.1456,2.1328,2.1261,2.1089,2.085,2.0557,2.0451,2.0411,2.0064,2.0388,2.0821,2.0821,2.1231,2.1659,2.1783,2.1783,2.1908,2.2281,2.2096,2.2019,2.219,2.1341,2.0536,2.0536,2.0216,1.9822,1.9822,1.979,1.9794,1.9794,1.986,1.9989,1.9706,1.9655,1.9971,2.0925,2.1932,2.2148,2.1242,2.1896,2.2395,2.2494,2.2564,2.2633,2.2837,2.3335,2.3715,2.3936,2.4445,2.4583,2.4529,2.4529,2.4843,2.5333,2.5542,2.5714,2.5814,2.6059,2.6066,-0.7724,-0.7245,0.0,-0.5547,0.0,-0.3633,-0.2825,-0.2153,-0.1481,-0.0943,-0.0269,0.0404,0.1212,0.1481,0.188,0.2535,0.268,0.2948,0.3569,0.4003,0.4562,0.5461,0.616,0.6723,0.7393,0.7794,0.8323,0.8984,0.9977,1.0819,1.1354,1.2821,1.4015,1.4554,1.5512,1.6244,1.6753,1.7141,1.74,1.7787,1.8173,1.8442,1.8571,1.8956,1.9072,1.9072,1.9584,1.9839,1.9851,2.0759,2.1159,2.1305,2.171,2.1764,2.175,2.1603,2.1666,2.174,2.1443,2.157,2.1765,2.1464,2.1589,2.1825,2.1673,2.1978,2.2355,2.2355,2.248,2.2606,2.2731,2.274,2.261,2.2857,2.2132,2.1446,2.1446,2.1176,2.0831,2.0716,2.0569,2.0472,2.0361,2.0143,2.0155,2.0145,1.992,2.0071,2.0939,2.2245,2.2736,2.2005,2.1843,2.218,2.3049,2.3083,2.3376,2.3774,2.3966,2.4193,2.4508,2.4823,2.4954,2.4942,2.472,2.492,2.5547,2.5346,2.556,2.5869,2.5891,2.5993,-0.6867,-0.625,-0.547,-0.4907,-0.4297,0.0,-0.2959,-0.2148,-0.1341,-0.0671,0.0,0.0672,0.1074,0.1341,0.1736,0.2106,0.2255,0.2519,0.3107,0.3816,0.4655,0.5274,0.5988,0.6702,0.7393,0.7526,0.7922,0.8984,0.9215,0.9826,1.0792,1.2015,1.3108,1.4083,1.5101,1.5914,1.6426,1.6774,1.7141,1.74,1.7776,1.8197,1.8641,1.9016,1.912,1.9072,1.9851,2.0106,2.0132,2.1173,2.1577,2.1657,2.1951,2.2058,2.2163,2.1921,2.2209,2.2607,2.236,2.2702,2.3,2.2734,2.275,2.2652,2.2398,2.2523,2.2731,2.2731,2.3024,2.3304,2.3245,2.3274,2.3304,2.3245,2.297,2.2571,2.2271,2.2246,2.2111,2.1818,2.1561,2.1369,2.1145,2.0758,2.0461,2.0554,2.0609,2.0838,2.1386,2.2323,2.3022,2.3022,2.2188,2.2143,2.3589,2.3644,2.3909,2.4666,2.4715,2.4785,2.4984,2.5163,2.538,2.5587,2.5021,2.5014,2.5674,2.5396,2.547,2.5897,2.5971,2.6106,-0.5188,0.0,-0.4446,0.0,-0.4267,-0.3633,0.0,0.0,-0.1454,0.0,0.0,0.0671,0.0927,0.1322,0.171,0.2075,0.2333,0.2721,0.3482,0.4139,0.4819,0.5657,0.6066,0.663,0.7383,0.7526,0.7789,0.859,0.9267,0.999,1.0928,1.2285,1.3435,1.4411,1.5309,1.6002,1.6267,1.6467,1.6753,1.7001,1.74,1.8029,1.89,1.9031,1.9042,1.9072,1.9851,2.0106,2.0132,2.1173,2.1697,2.1951,2.2245,2.2499,2.29,2.2859,2.2841,2.3028,2.2986,2.3014,2.3028,2.2986,2.3049,2.3078,2.3035,2.2961,2.2981,2.2981,2.3436,2.3851,2.3554,2.3953,2.4356,2.4052,2.4163,2.3902,2.2745,2.233,2.2156,2.2096,2.22,2.2507,2.2605,2.2654,2.227,2.1255,2.1963,2.2654,2.2767,2.2846,2.3022,2.3022,2.3739,2.4226,2.3867,2.3519,2.3168,2.3128,2.3947,2.4505,2.482,2.537,2.5881,2.6163,2.5094,2.4769,2.5344,2.5445,2.5809,2.6408,2.6774,2.7048,-0.426,-0.4294,-0.4455,0.0,-0.4019,-0.3356,-0.2798,-0.1985,-0.1183,-0.0391,0.0262,0.0918,0.1173,0.1562,0.1944,0.2044,0.231,0.2694,0.3152,0.4085,0.4781,0.5332,0.5893,0.6749,0.7779,0.766,0.7927,0.9128,0.9661,1.0315,1.1056,1.2513,1.37,1.4337,1.5381,1.6027,1.6318,1.6612,1.688,1.7001,1.74,1.7922,1.8696,1.8959,1.9233,1.9531,2.0316,2.0564,2.059,2.1648,2.2111,2.2258,2.2822,2.3066,2.3188,2.3292,2.3518,2.3799,2.3762,2.3951,2.4199,2.4012,2.3999,2.397,2.3925,2.3892,2.4044,2.4172,2.4532,2.4623,2.4471,2.4523,2.4573,2.4436,2.4377,2.4193,2.3548,2.3505,2.353,2.3309,2.2914,2.2713,2.3288,2.2611,2.2002,2.223,2.2683,2.3022,2.3022,2.3022,2.3552,2.516,2.5729,2.5844,2.5324,2.4637,2.4239,2.4502,2.4603,2.4867,2.5429,2.5715,2.5812,2.5831,2.5016,2.5058,2.6028,2.5775,2.608,2.6915,2.7304,2.7486,0.0,0.0,-0.3527,-0.3672,-0.3187,-0.2522,0.0,0.0,-0.065,0.0,0.064,0.1276,0.1531,0.192,0.2042,0.2138,0.2407,0.2785,0.3094,0.3899,0.4731,0.5151,0.5725,0.6723,0.7912,0.7794,0.8339,0.9844,1.0029,1.0586,1.149,1.2858,1.3924,1.4403,1.5597,1.6205,1.6399,1.6674,1.6923,1.7001,1.7271,1.7826,1.8524,1.8789,1.9362,2.0074,2.073,2.0933,2.0958,2.2031,2.2418,2.258,2.3147,2.3543,2.3652,2.37,2.416,2.4602,2.4372,2.4713,2.5022,2.4907,2.4775,2.479,2.48,2.481,2.4864,2.5138,2.5329,2.5375,2.5298,2.5257,2.5103,2.5026,2.4921,2.4688,2.427,2.4314,2.4332,2.43,2.3724,2.3271,2.3908,2.2673,2.2002,2.2909,2.3022,2.3262,2.3958,2.4007,2.4645,2.647,2.6847,2.6764,2.5864,2.5477,2.5442,2.5577,2.5292,2.5425,2.5946,2.5963,2.5943,2.5652,2.5241,2.5453,2.6489,2.5957,2.6222,2.724,2.7585,2.7524,0.0,-0.0955,0.0,-0.1633,-0.1535,-0.1292,0.0,0.0,0.0,0.0379,0.0999,0.161,0.1857,0.2003,0.2136,0.2476,0.2719,0.309,0.3455,0.4077,0.4621,0.5137,0.5544,0.6389,0.7902,0.8056,0.8773,1.0373,1.0535,1.107,1.247,1.32,1.4131,1.4884,1.5821,1.6432,1.6621,1.6855,1.7012,1.7001,1.7001,1.7642,1.8787,1.8787,1.9457,2.0743,2.0894,2.0933,2.0958,2.2031,2.2553,2.2996,2.3283,2.3816,2.4495,2.4481,2.4766,2.5052,2.5037,2.5037,2.5187,2.5442,2.5353,2.5099,2.5479,2.5382,2.5138,2.5138,2.5612,2.6043,2.5747,2.6131,2.6533,2.6199,2.636,2.6151,2.4875,2.413,2.4045,2.4849,2.4907,2.4879,2.476,2.3713,2.2909,2.3006,2.3022,2.3958,2.6525,2.6832,2.6503,2.5349,2.6305,2.6365,2.4691,2.5612,2.5729,2.4776,2.5544,2.6084,2.6101,2.6338,2.6439,2.6422,2.6045,2.5801,2.5831,2.5835,2.6196,2.6929,2.7299,2.7493,0.0,0.0,0.0,-0.0987,-0.1131,-0.1014,-0.0754,-0.0252,0.0252,0.0997,0.1486,0.2097,0.2839,0.2603,0.2358,0.2469,0.296,0.3332,0.3455,0.4105,0.4665,0.5141,0.5717,0.671,0.8307,0.8456,0.9175,1.0934,1.1302,1.1862,1.3192,1.4024,1.4973,1.5753,1.6535,1.7154,1.7598,1.7532,1.7751,1.7882,1.7882,1.8404,1.9446,1.9446,2.0042,2.1069,2.1283,2.1467,2.1616,2.2659,2.3107,2.3256,2.391,2.4224,2.4495,2.4781,2.5052,2.5457,2.5457,2.5607,2.5742,2.5876,2.5786,2.5829,2.6213,2.6269,2.6176,2.644,2.665,2.6846,2.6735,2.6624,2.6581,2.6231,2.6264,2.6296,2.5894,2.5686,2.5477,2.5156,2.5391,2.5844,2.6184,2.5189,2.4595,2.5544,2.5662,2.5982,2.7004,2.7073,2.6952,2.6466,2.6499,2.6554,2.6127,2.5963,2.5897,2.6217,2.61,2.6236,2.673,2.6867,2.6628,2.6151,2.6116,2.6101,2.6213,2.6468,2.6727,2.6987,2.7586,2.7639,-0.0579,0.0,0.0,0.0,-0.0369,-0.0123,0.0494,0.0743,0.1117,0.1974,0.2219,0.259,0.3332,0.3207,0.296,0.296,0.3209,0.3586,0.3603,0.4011,0.4573,0.5182,0.5758,0.6745,0.844,0.8851,0.9704,1.1475,1.1905,1.2612,1.376,1.4656,1.5612,1.6744,1.7238,1.7845,1.8407,1.8361,1.8502,1.8804,1.8765,1.9154,1.9983,1.9847,2.0263,2.1207,2.1634,2.1897,2.2035,2.2996,2.3543,2.3679,2.4224,2.4631,2.4795,2.5319,2.5561,2.5622,2.5862,2.6163,2.6298,2.6448,2.651,2.6722,2.7004,2.6972,2.7075,2.7232,2.72,2.7232,2.7343,2.7296,2.7137,2.6899,2.6787,2.6791,2.6745,2.6615,2.6275,2.5831,2.648,2.731,2.7826,2.686,2.657,2.7695,2.7572,2.745,2.745,2.745,2.7484,2.7322,2.6951,2.667,2.7008,2.665,2.6616,2.7114,2.6983,2.7054,2.7432,2.7327,2.7085,2.6587,2.6321,2.6255,2.6386,2.6508,2.6764,2.7139,2.7367,2.7418,0.0,0.0,0.0,0.0,0.0,0.0,0.1958,0.0,0.2661,0.3316,0.3207,0.3209,0.3458,0.3825,0.3946,0.3948,0.3702,0.3598,0.4027,0.4036,0.4336,0.525,0.5661,0.6613,0.844,0.925,1.0372,1.1865,1.2437,1.3157,1.4178,1.507,1.631,1.7861,1.8058,1.838,1.8676,1.9212,1.9483,1.9495,1.9495,1.9745,2.0391,1.9995,2.0412,2.1207,2.1622,2.2035,2.231,2.3133,2.3679,2.4102,2.436,2.4781,2.5246,2.5844,2.5906,2.5802,2.6527,2.6786,2.6786,2.7059,2.7414,2.7771,2.7715,2.7741,2.7677,2.7328,2.7232,2.7312,2.7661,2.7979,2.8217,2.8217,2.8058,2.7788,2.7328,2.6676,2.6358,2.7034,2.8323,2.9316,2.9316,2.87,2.8455,2.91,2.8741,2.8254,2.822,2.822,2.8179,2.7905,2.7391,2.7035,2.668,2.7383,2.7654,2.7189,2.7824,2.8186,2.8186,2.7933,2.768,2.7664,2.6935,2.6504,2.6129,2.5772,2.6158,2.7109,2.6739,2.6813,-0.0221,0.0,0.0,0.0,0.0,0.0,0.0,0.3592,0.4105,0.3807,0.4677,0.5432,0.5372,0.5383,0.5526,0.5586,0.5001,0.4465,0.4404,0.4709,0.5029,0.5646,0.6237,0.7218,0.8845,0.9655,1.0645,0.0,1.2601,1.344,1.4597,1.6065,1.7308,1.8293,1.8648,1.891,1.9356,1.9888,2.0122,2.0453,2.0662,2.0971,2.1371,2.1233,2.1546,2.2035,2.2173,2.2448,2.2722,2.3543,2.3952,2.4102,2.4645,2.5062,2.5418,2.5918,2.6313,2.6725,2.7247,2.7539,2.7815,2.7952,2.8016,2.8079,2.8122,2.809,2.8074,2.7963,2.7931,2.7826,2.7799,2.7893,2.8217,2.8217,2.8058,2.7915,2.7931,2.7407,2.6982,2.7182,2.8374,2.8922,2.7998,2.793,2.8469,2.986,3.0389,3.0285,2.9613,2.9267,2.8922,2.8622,2.7694,2.7128,2.7062,2.6935,2.7079,2.7239,2.7333,2.7554,2.7807,2.8128,2.8128,2.768,2.7201,2.6898,2.6501,2.6133,2.6011,2.6003,2.6377,2.6692,0.0,0.0,0.0,0.0,0.0,0.0,0.4477,0.5108,0.5638,0.6048,0.6456,0.6984,0.7088,0.6986,0.6878,0.7065,0.6471,0.5804,0.4999,0.5046,0.549,0.5965,0.6685,0.7517,0.8984,0.9921,1.0891,1.1777,1.2783,1.3934,1.5431,1.6539,1.7627,1.8563,1.8993,1.9427,1.987,2.0388,2.0922,2.1217,2.1467,2.1744,2.2035,2.2035,2.2173,2.2585,2.2722,2.2996,2.3406,2.3952,2.4102,2.4088,2.4781,2.5242,2.5549,2.6235,2.6831,2.7137,2.785,2.8316,2.8456,2.8456,2.8551,2.8646,2.8487,2.8316,2.8145,2.8003,2.8161,2.8381,2.813,2.8507,2.8853,2.871,2.8863,2.8938,2.8646,2.836,2.8036,2.8112,2.879,2.9138,2.8659,2.8395,2.879,3.0408,3.0711,3.0698,3.0397,3.0044,2.9693,2.9487,2.8474,2.7866,2.7866,2.7312,2.7101,2.7409,2.7376,2.7489,2.7731,2.7798,2.7685,2.723,2.6826,2.644,2.6024,2.6117,2.6156,2.6048,2.6694,2.7052,0.0954,0.1608,0.0,0.0,0.0,0.0,0.6495,0.6842,0.7327,0.8793,0.8499,0.8171,0.8557,0.8469,0.8353,0.8603,0.8514,0.7667,0.5784,0.5529,0.5822,0.6443,0.6853,0.765,0.8984,1.0054,1.0982,1.1776,1.2994,1.4467,1.6363,1.6817,1.7621,1.8982,1.9401,1.9854,2.0315,2.082,2.1358,2.1797,2.1782,2.2035,2.231,2.231,2.2585,2.2996,2.3406,2.3679,2.4102,2.4374,2.436,2.4102,2.4824,2.5301,2.5622,2.6783,2.7214,2.7415,2.8428,2.8821,2.8821,2.8821,2.9043,2.9234,2.8916,2.8554,2.8208,2.7944,2.8333,2.8671,2.8702,2.9195,2.9613,2.9441,2.9903,3.0157,2.9728,2.9569,2.9583,2.953,2.941,2.9512,3.0446,2.951,2.9257,3.0599,3.0241,3.0105,3.0941,3.0634,3.0344,3.0293,2.9429,2.8656,2.8623,2.8028,2.7567,2.7567,2.7567,2.7567,2.7567,2.7051,2.68,2.68,2.6105,2.5535,2.5245,2.5798,2.628,2.6536,2.7229,2.7599,0.1985,0.3231,0.4512,0.5014,0.0,0.0,0.7539,0.8433,0.8791,0.876,0.9912,1.0831,1.0273,1.0552,1.1143,1.1247,1.133,1.018,0.6985,0.6841,0.7008,0.6973,0.7522,0.8323,0.9528,1.006,1.0717,1.1776,1.3536,1.5087,1.6556,1.7148,1.8036,1.939,1.9541,1.9935,2.0593,2.1057,2.1183,2.1408,2.1596,2.2173,2.2722,2.2722,2.3133,2.383,2.3816,2.3952,2.4102,2.4374,2.4495,2.4524,2.5193,2.5637,2.6099,2.713,2.7717,2.809,2.8884,2.9202,2.9202,2.9202,2.9234,2.9282,2.9218,2.9186,2.9091,2.9007,2.8927,2.8954,2.8954,2.9159,2.9345,2.9707,2.9713,2.9871,3.0852,3.1056,3.1054,3.0932,3.0099,2.9764,3.1179,3.0544,2.9567,2.92,2.9576,3.0215,3.0909,3.0615,3.0358,3.0071,2.9022,2.8272,2.7979,2.7499,2.7334,2.7334,2.7334,2.7334,2.7334,2.72,2.7067,2.7067,2.6737,2.6275,2.5947,2.5528,2.551,2.5767,2.6215,2.6584,0.3439,0.4579,0.5761,0.6073,0.0,0.0,0.0,0.8588,0.9123,0.9422,1.0547,1.1551,1.1362,1.1905,1.2457,1.3121,1.3182,1.2362,1.0207,0.9215,0.8671,0.8536,0.8542,0.9058,0.9933,1.0193,1.0982,1.218,1.3707,1.5044,1.6201,1.6985,1.802,1.9347,1.9496,1.998,2.0665,2.0804,2.1081,2.1207,2.1622,2.2035,2.2585,2.3133,2.3679,2.4102,2.451,2.4781,2.4781,2.4916,2.5154,2.5315,2.5461,2.5725,2.6202,2.7236,2.7855,2.8305,2.9215,2.9407,2.9293,2.9467,2.9367,2.9236,2.9236,2.9074,2.8857,2.8746,2.8958,2.9094,2.9094,2.9305,2.9813,3.0198,3.0156,3.0339,3.1318,3.1491,3.1395,3.1395,3.0823,3.0563,3.1347,3.0953,3.0307,3.0049,3.0079,3.0299,3.0852,3.0684,3.0376,3.0193,2.9379,2.8793,2.8542,2.7709,2.7327,2.7453,2.7211,2.7075,2.6923,2.6771,2.6542,2.6374,2.6072,2.5861,2.5592,2.5263,2.5363,2.589,2.6268,2.653,0.0,0.0,0.0,0.0,0.0,0.757,0.0,0.0,0.0,1.0097,1.0934,0.0,0.0,0.0,0.0,1.4298,0.0,0.0,0.0,1.1636,0.0,1.0097,0.9943,1.0053,1.0505,1.1003,1.1644,1.2832,1.4015,1.5016,1.5899,1.697,1.7973,1.9084,1.9562,1.9965,2.0593,2.0641,2.0804,2.1081,2.1484,2.1897,2.231,2.327,2.3952,2.4088,2.5052,2.5592,2.5607,2.5727,2.5801,2.61,2.5884,2.5952,2.629,2.7469,2.8044,2.832,2.9404,2.9529,2.943,2.9774,2.9586,2.9152,2.9152,2.8882,2.8535,2.8512,2.8783,2.8966,2.9135,2.9579,3.0174,3.0688,3.0823,3.0918,3.13,3.1395,3.1395,3.1395,3.1395,3.1421,3.134,3.1044,3.0916,3.1318,3.086,3.0649,3.094,3.0677,3.0304,3.0316,2.9672,2.9147,2.9099,2.8142,2.757,2.7617,2.7354,2.7059,2.6593,2.6158,2.5857,2.5535,2.5271,2.511,2.5052,2.5052,2.5472,2.6011,2.6249,2.6666,0.0,0.0,0.0,0.0,0.7449,0.0,0.0,0.0,0.9043,1.0235,0.0,0.0,0.0,0.0,0.0,0.0,0.0,0.0,1.3567,1.274,1.1843,1.0744,1.1394,1.1976,1.1836,1.2515,1.3218,1.335,1.466,1.5672,1.6175,1.7235,1.815,1.8833,1.9333,1.9882,2.0327,2.0557,2.0665,2.0804,2.1081,2.1622,2.231,2.2859,2.3543,2.4495,2.4916,2.5322,2.5592,2.5876,2.6073,2.613,2.6399,2.6713,2.7042,2.8233,2.8676,2.8753,2.9549,2.9822,2.9739,3.0055,3.0033,2.9586,2.9152,2.9049,2.8985,2.8862,2.8931,2.8997,2.9308,2.9308,2.9449,3.0993,3.1315,3.1331,3.1379,3.1395,3.1395,3.1395,3.1395,3.1379,3.1469,3.0966,3.068,3.0798,3.0888,3.0875,3.0875,3.0531,3.0258,3.0206,2.9234,2.8522,2.8344,2.8424,2.8099,2.716,2.74,2.7292,2.6593,2.6158,2.5857,2.5535,2.5491,2.533,2.5052,2.5052,2.5337,2.5891,2.5427,2.6011,0.0,0.0,0.0,0.0,0.0,0.0,0.775,0.0,0.8948,0.0,0.0,0.0,0.0,0.0,0.0,0.0,1.3797,0.0,0.0,0.0,1.3743,0.0,0.0,0.0,1.2906,1.3587,1.3866,1.3481,1.466,1.5613,1.5843,1.7152,1.8256,1.8787,1.9709,2.033,2.0772,2.1158,2.1358,2.1358,2.1622,2.2035,2.231,2.3171,2.3666,2.4218,2.5178,2.574,2.5876,2.642,2.6892,2.7108,2.7415,2.7347,2.7244,2.828,2.8831,2.9049,2.9834,3.0103,3.0025,2.9914,2.9411,2.8813,2.8659,2.8569,2.8503,2.8831,2.8762,2.8863,2.9336,2.936,2.9412,3.0404,3.0903,3.137,3.123,3.1541,3.1633,3.1427,3.1395,3.1395,3.1395,3.1067,3.0788,3.0788,3.0369,3.0181,3.0498,3.0049,2.9718,3.0018,2.9457,2.8741,2.8033,2.7733,2.7636,2.7425,2.735,2.7161,2.6875,2.6712,2.6408,2.6105,2.59,2.574,2.5608,2.5164,2.5149,2.5288,2.5485,2.5757,0.6712,0.0,0.0,0.0,0.0,0.0,0.0,0.0,0.0,0.0,0.0,0.0,0.0,0.0,0.0,0.0,0.0,1.1463,0.0,1.2721,0.0,0.0,0.0,0.0,0.0,1.406,1.4308,1.3796,1.4893,1.5734,1.6055,1.7358,1.8473,1.9055,2.0075,2.0712,2.1233,2.1721,2.1897,2.1897,2.2448,2.2625,2.2704,2.3485,2.4038,2.4261,2.5374,2.5943,2.6082,2.6909,2.7523,2.7726,2.824,2.7956,2.7508,2.831,2.8863,2.9143,2.9727,3.0015,2.9977,2.9293,2.8744,2.8289,2.8118,2.8174,2.8255,2.8602,2.8819,2.8862,2.9239,2.9424,2.968,2.9987,3.0566,3.1071,3.1151,3.1449,3.1652,3.1458,3.1395,3.1395,3.1395,3.1087,3.0933,3.0933,3.0407,3.0084,3.0405,2.9729,2.9632,3.0229,2.9633,2.8842,2.8103,2.7658,2.745,2.755,2.7274,2.6983,2.6983,2.6938,2.6776,2.65,2.6266,2.6105,2.6018,2.5412,2.5257,2.5242,2.5447,2.5621,0.0,0.0,0.0,0.7056,0.0,0.0,0.0,0.0,0.9376,0.0,0.0,0.0,0.0,0.0,0.0,0.0,0.0,0.0,0.0,0.0,0.0,0.0,0.0,0.0,0.0,1.4261,1.4638,1.4619,1.5455,1.6326,1.7324,1.8016,1.88,1.9845,2.0515,2.0946,2.1365,2.203,2.231,2.231,2.2996,2.3557,2.3844,2.3858,2.4302,2.4862,2.5285,2.5567,2.6143,2.7262,2.7601,2.7611,2.8475,2.8553,2.8114,2.8547,2.8707,2.8816,2.9072,2.9275,2.9353,2.8588,2.8289,2.8275,2.779,2.7857,2.8255,2.8602,2.8976,2.9295,2.9297,2.9603,2.9924,2.9933,3.0271,3.058,3.104,3.1292,3.1183,3.1304,3.1395,3.1395,3.1395,3.1395,3.1395,3.1395,3.1087,3.0778,3.0763,2.9974,2.9944,3.1194,2.9928,2.8827,2.8827,2.852,2.8146,2.758,2.7274,2.6983,2.6983,2.6983,2.6822,2.6515,2.6486,2.6339,2.6018,2.6018,2.6018,2.6003,2.5403,2.512,0.0,0.0,0.9217,0.7861,0.0,0.0,0.0,0.0,0.0,0.0,0.0,0.0,0.0,0.0,0.0,0.0,0.0,0.0,0.0,0.0,0.0,0.0,0.0,0.0,0.0,0.0,1.5169,1.454,1.591,1.6872,1.7109,1.858,1.9579,1.9845,2.0931,2.1849,2.244,2.2806,2.3133,2.3406,2.3679,2.3983,2.4275,2.4217,2.4479,2.4897,2.547,2.5755,2.604,2.7175,2.7817,2.8082,2.8585,2.8598,2.8563,2.8707,2.8702,2.8719,2.8943,2.8996,2.9056,2.8431,2.7976,2.7374,2.7582,2.7524,2.7811,2.8669,2.8959,2.9179,2.9879,2.9939,3.0057,3.0468,3.0926,3.1472,3.1833,3.2122,3.2348,3.2142,3.1887,3.1744,3.1744,3.1538,3.1241,3.1087,3.0469,2.9989,3.0299,2.9679,2.9523,3.0454,2.9974,2.9508,2.8886,2.8203,2.76,2.7158,2.71,2.6838,2.6546,2.6838,2.6939,2.6822,2.6822,2.6778,2.6661,2.6373,2.6215,2.62,2.554,2.5168,0.7268,0.7979,0.0,0.722,0.7508,0.0,0.7793,0.0,0.87,0.0,0.0,0.0,0.0,0.0,0.0,0.0,0.0,0.0,0.0,0.7856,0.0,0.0,0.0,0.0,0.0,0.0,1.4487,1.4685,1.6115,1.7257,0.0,1.9446,2.0253,2.0659,2.161,2.2536,2.3133,2.3543,2.4008,2.4394,2.4531,2.4758,2.5171,2.496,2.5068,2.5361,2.594,2.6085,2.6229,2.7236,2.7809,2.7983,2.8341,2.8418,2.8274,2.8418,2.842,2.8447,2.8413,2.8534,2.8588,2.7961,2.7504,2.7086,2.7227,2.7203,2.7485,2.8785,2.9019,2.9184,3.0185,3.0203,3.0248,3.0766,3.1257,3.1808,3.2174,3.2467,3.268,3.2475,3.2237,3.2094,3.2094,3.1747,3.137,3.1134,3.0469,2.9989,3.0129,2.9508,2.9197,2.9664,2.9664,2.9464,2.8739,2.8169,2.7565,2.6886,2.6981,2.6807,2.6399,2.6692,2.6838,2.6983,2.6983,2.6983,2.6983,2.6692,2.6546,2.6531,2.5883,2.5606]},{"header":{"parameterUnit":"m.s-1","parameterCategory":1,"la1":30.6,"la2":29.2853,"lo1":-89.7004,"lo2":-87.6739,"dy":0.0162,"dx":0.0183,"nx":112,"ny":82,"refTime":"2026-04-11T12:00:00:Z","depth":0,"parameterNumber":3,"parameterNumberName":"V-component_of_WINDS"},"data":[0.0,0.0,0.0,0.0,0.0,0.0,0.0,0.0,0.0,0.0,0.0,0.0,0.0,0.0,0.0,0.0,0.0,0.0,0.0,0.0,0.0,0.0,0.0,0.0,0.0,0.0,0.0,0.0,0.0,0.0,0.0,0.0,0.0,0.0,0.0,0.0,0.0,0.0,0.0,0.0,0.0,0.0,0.0,0.0,0.0,0.0,0.0,0.0,0.0,0.0,0.0,0.0,0.0,0.0,0.0,0.0,0.0,0.0,0.0,0.0,0.0,0.0,0.0,0.0,0.0,0.0,0.0,0.0,0.0,0.0,0.0,0.0,0.0,0.0,0.0,0.0,0.0,0.0,0.0,0.0,0.0,0.0,0.0,0.0,0.0,0.0,0.0,0.0,0.0,0.0,0.0,2.0671,1.1838,0.1804,-0.9122,-1.436,-1.3354,-0.4675,0.0,0.0,0.0,0.0,0.0,0.0,0.0,0.0,0.0,0.0,0.0,0.0,0.0,0.0,0.0,0.0,0.0,0.0,0.0,0.0,0.0,0.0,0.0,0.0,0.0,0.0,0.0,0.0,0.0,0.0,0.0,0.0,0.0,0.0,0.0,0.0,0.0,0.0,0.0,0.0,0.0,0.0,0.0,0.0,0.0,0.0,0.0,0.0,0.0,0.0,0.0,0.0,0.0,0.0,0.0,0.0,0.0,0.0,0.0,0.0,0.0,0.0,0.0,0.0,0.0,0.0,0.0,0.0,0.0,0.0,0.0,0.0,0.0,0.0,0.0,0.0,0.0,0.0,0.0,0.0,0.0,0.0,0.0,0.0,0.0,0.0,0.0,0.0,0.0,0.0,0.0,0.0,0.0,0.0,0.0,0.0,0.0,0.0,0.0,0.0,0.0,0.0,0.0,0.0,2.3605,1.9351,1.0749,0.1459,-0.7984,-1.5148,-1.5897,-0.8294,0.0,0.0,0.0,0.0,0.0,0.0,0.0,0.0,0.0,0.0,0.0,0.0,0.0,0.0,0.0,0.0,0.0,0.0,0.0,0.0,0.0,0.0,0.0,0.0,0.0,0.0,0.0,0.0,0.0,0.0,0.0,0.0,0.0,0.0,0.0,0.0,0.0,0.0,0.0,0.0,0.0,0.0,0.0,0.0,0.0,0.0,0.0,0.0,0.0,0.0,0.0,0.0,0.0,0.0,0.0,0.0,0.0,0.0,0.0,0.0,0.0,0.0,0.0,0.0,0.0,0.0,0.0,0.0,0.0,0.0,0.0,0.0,0.0,0.0,0.0,0.0,0.0,0.0,0.0,0.0,0.0,0.0,0.0,0.0,0.0,0.0,0.0,0.0,0.0,0.0,0.0,0.0,0.0,0.0,0.0,0.0,0.0,0.0,0.0,0.0,0.0,0.0,0.0,2.3912,2.109,1.7739,0.9263,-0.0294,-1.0568,-1.5174,-1.5118,-0.9426,-0.0085,0.0,0.0,0.0,0.0,0.0,0.0,0.0,0.0,0.0,0.0,0.0,0.0,0.0,0.0,0.0,0.0,0.0,0.0,0.0,0.0,0.0,0.0,0.0,0.0,0.0,0.0,0.0,0.0,0.0,0.0,0.0,0.0,0.0,0.0,0.0,0.0,0.0,0.0,0.0,0.0,0.0,0.0,0.0,0.0,0.0,0.0,0.0,0.0,0.0,0.0,0.0,0.0,0.0,0.0,0.0,0.0,0.0,0.0,0.0,0.0,0.0,0.0,0.0,0.0,0.0,0.0,0.0,0.0,0.0,0.0,0.0,0.0,0.0,0.0,0.0,0.0,0.0,0.0,0.0,0.0,0.0,0.0,0.0,0.0,0.0,0.0,0.0,0.0,0.0,0.0,0.0,0.0,0.0,0.0,0.0,0.0,0.0,0.0,0.0,0.0,0.0,0.0,2.1322,1.8617,1.5185,0.7628,-0.1605,-1.2699,-1.3414,-1.1175,-0.6236,0.2373,0.0,0.0,0.0,0.0,0.0,0.0,0.0,0.0,0.0,0.0,0.0,0.0,0.0,0.0,0.0,0.0,0.0,0.0,0.0,0.0,0.0,0.0,0.0,0.0,0.0,0.0,0.0,0.0,0.0,0.0,0.0,0.0,0.0,0.0,0.0,0.0,0.0,0.0,0.0,0.0,0.0,0.0,0.0,0.0,0.0,0.0,0.0,0.0,0.0,0.0,0.0,0.0,0.0,0.0,0.0,0.0,0.0,0.0,0.0,0.0,0.0,0.0,0.0,0.0,0.0,0.0,0.0,0.0,0.0,0.0,0.0,0.0,0.0,0.0,0.0,0.0,0.0,0.0,0.0,0.0,0.0,0.0,0.0,0.0,0.0,0.0,0.0,0.0,0.0,0.0,0.0,0.0,0.0,0.0,0.0,0.0,0.0,0.0,0.0,0.0,0.0,0.0,2.0887,1.6983,1.0706,0.5937,-0.1182,-1.1867,-0.854,-0.2838,0.418,0.9688,0.0,0.0,0.0,0.0,0.0,0.0,0.0,0.0,0.0,0.0,0.0,0.0,0.0,0.0,0.0,0.0,0.0,0.0,0.0,0.0,0.0,0.0,0.0,0.0,0.0,0.0,0.0,0.0,0.0,0.0,0.0,0.0,0.0,0.0,0.0,0.0,0.0,0.0,0.0,0.0,0.0,0.0,0.0,0.0,0.0,0.0,0.0,0.0,0.0,0.0,0.0,0.0,0.0,0.0,0.0,0.0,0.0,0.0,0.0,0.0,0.0,0.0,0.0,0.0,0.0,0.0,0.0,0.0,0.0,0.0,0.0,0.0,0.0,0.0,0.0,0.0,0.0,0.0,0.0,0.0,0.0,0.0,0.0,0.0,0.0,0.0,0.0,0.0,0.0,0.0,0.0,0.0,0.0,0.0,0.0,0.0,0.0,0.0,0.0,0.0,0.0,0.0,2.0322,1.6018,0.0,0.5054,-0.1725,-1.0755,-1.0319,-0.6106,0.1892,0.0,0.0,0.0,0.0,0.0,0.0,0.0,0.0,0.0,0.0,0.0,0.0,0.0,0.0,0.0,0.0,0.0,0.0,0.0,0.0,0.0,0.0,0.0,0.0,0.0,0.0,0.0,0.0,0.0,0.0,0.0,0.0,0.0,0.0,0.0,0.0,0.0,0.0,0.0,0.0,0.0,0.0,0.0,0.0,0.0,0.0,0.0,0.0,0.0,0.0,0.0,0.0,0.0,0.0,0.0,0.0,0.0,0.0,0.0,0.0,0.0,0.0,0.0,0.0,0.0,0.0,0.0,0.0,0.0,0.0,0.0,0.0,0.0,0.0,0.0,0.0,0.0,0.0,0.0,0.0,0.0,0.0,0.0,0.0,0.0,0.0,0.0,0.0,0.0,0.0,0.0,0.0,0.0,0.0,0.0,0.0,0.0,0.0,0.0,0.0,0.0,0.0,2.3179,1.9579,1.5286,0.0,0.4562,-0.1703,-0.9103,-0.9538,-0.6604,-0.0,0.0,0.0,0.0,0.0,0.0,0.0,0.0,0.0,0.0,0.0,0.0,0.0,0.0,0.0,0.0,0.0,0.0,0.0,0.0,0.0,0.0,0.0,0.0,0.0,0.0,0.0,0.0,0.0,0.0,0.0,0.0,0.0,0.0,0.0,0.0,0.0,0.0,0.0,0.0,0.0,0.0,0.0,0.0,0.0,0.0,0.0,0.0,0.0,0.0,0.0,0.0,0.0,0.0,0.0,0.0,0.0,0.0,0.0,0.0,0.0,0.0,0.0,0.0,0.0,0.0,0.0,0.0,0.0,0.0,0.0,0.0,0.0,0.0,0.0,0.0,0.0,0.0,0.0,0.0,0.0,0.0,0.0,0.0,0.0,0.0,0.0,0.0,0.0,0.0,0.0,0.0,0.0,0.0,0.0,0.0,0.0,0.0,0.0,0.0,0.0,0.0,0.0,2.176,1.862,1.4653,0.9129,0.4493,-0.0682,-0.6908,-0.5006,-0.2384,0.0,0.0,0.0,0.0,0.0,0.0,0.0,0.0,0.0,0.0,0.0,0.0,0.0,0.0,0.0,0.0,0.0,0.0,0.0,0.0,0.0,0.0,0.0,0.0,0.0,0.0,0.0,0.0,0.0,0.0,0.0,0.0,0.0,0.0,0.0,0.0,0.0,0.0,0.0,0.0,0.0,0.0,0.0,0.0,0.0,0.0,0.0,0.0,0.0,0.0,0.0,0.0,0.0,0.0,0.0,0.0,0.0,0.0,0.0,0.0,0.0,0.0,0.0,0.0,0.0,0.0,0.0,0.0,0.0,0.0,0.0,0.0,0.0,0.0,0.0,0.0,0.0,0.0,0.0,0.0,0.0,0.0,0.0,0.0,0.0,0.0,0.0,0.0,0.0,0.0,0.0,0.0,0.0,0.0,0.0,0.0,0.0,0.0,0.0,0.0,0.0,0.0,0.0,2.2351,1.889,1.4735,0.9511,0.4654,-0.0227,-0.5329,-0.658,-0.5669,-0.2433,0.0,0.0,0.0,0.0,0.0,0.0,0.0,0.0,0.0,0.0,0.0,0.0,0.0,0.0,0.0,0.0,0.0,0.0,0.0,0.0,0.0,0.0,0.0,0.0,0.0,0.0,0.0,0.0,0.0,0.0,0.0,0.0,0.0,0.0,0.0,0.0,0.0,0.0,0.0,0.0,0.0,0.0,0.0,0.0,0.0,0.0,0.0,0.0,0.0,0.0,0.0,0.0,0.0,0.0,0.0,0.0,0.0,0.0,0.0,0.0,0.0,0.0,0.0,0.0,0.0,0.0,0.0,0.0,0.0,0.0,0.0,0.0,0.0,0.0,0.0,0.0,0.0,0.0,0.0,0.0,0.0,0.0,0.0,0.0,0.0,0.0,0.0,0.0,0.0,0.0,0.0,0.0,0.0,0.0,0.0,0.0,0.0,0.0,0.0,0.0,0.0,0.0,2.2163,1.9084,1.5182,0.9941,0.5888,0.134,-0.4242,-0.7625,-0.7752,-0.3927,0.0,0.0,0.0,0.0,0.0,0.0,0.0,0.0,0.0,0.0,0.0,0.0,0.0,0.0,0.0,0.0,0.0,0.0,0.0,0.0,0.0,0.0,0.0,0.0,0.0,0.0,0.0,0.0,0.0,0.0,0.0,0.0,0.0,0.0,0.0,0.0,0.0,0.0,0.0,0.0,0.0,0.0,0.0,0.0,0.0,0.0,0.0,0.0,0.0,0.0,0.0,0.0,0.0,0.0,0.0,0.0,0.0,0.0,0.0,0.0,0.0,0.0,0.0,0.0,0.0,0.0,0.0,0.0,0.0,0.0,0.0,0.0,0.0,0.0,0.0,0.0,0.0,0.0,0.0,0.0,0.0,0.0,0.0,0.0,0.0,0.0,0.0,0.0,0.0,0.0,0.0,0.0,0.0,0.0,0.0,0.0,0.0,0.0,0.0,0.0,0.0,0.0,2.1559,1.9296,1.5942,1.0467,0.7733,0.3483,-0.338,-0.7852,-0.8583,-0.4681,0.0,0.0,0.0,0.0,0.0,0.0,0.0,0.0,0.0,0.0,0.0,0.0,0.0,0.0,0.0,0.0,0.0,0.0,0.0,0.0,0.0,0.0,0.0,0.0,0.0,0.0,0.0,0.0,0.0,0.0,0.0,0.0,0.0,0.0,0.0,0.0,0.0,0.0,0.0,0.0,0.0,0.0,0.0,0.0,0.0,0.0,0.0,0.0,0.0,0.0,0.0,0.0,0.0,0.0,0.0,0.0,0.0,0.0,0.0,0.0,3.4168,0.0,0.0,0.0,0.0,0.0,0.0,0.0,0.0,0.0,0.0,0.0,0.0,0.0,0.0,0.0,0.0,0.0,0.0,0.0,0.0,0.0,0.0,0.0,0.0,0.0,0.0,0.0,0.0,0.0,0.0,0.0,0.0,0.0,0.0,0.0,0.0,0.0,0.0,0.0,0.0,0.0,2.1762,1.9704,1.6543,1.1125,0.8322,0.4561,-0.1128,-0.538,-0.7062,-0.549,-0.0888,0.0,0.0,0.0,0.0,0.0,0.0,0.0,0.0,0.0,0.0,0.0,0.0,0.0,0.0,0.0,0.0,0.0,0.0,0.0,0.0,0.0,0.0,0.0,0.0,0.0,0.0,0.0,0.0,0.0,0.0,0.0,0.0,0.0,0.0,0.0,0.0,0.0,0.0,0.0,0.0,0.0,0.0,0.0,0.0,0.0,0.0,0.0,0.0,0.0,0.0,0.0,0.0,0.0,0.0,0.0,0.0,0.0,0.0,0.0,0.0,3.2895,0.0,0.0,0.0,0.0,0.0,0.0,0.0,0.0,0.0,0.0,0.0,0.0,0.0,0.0,0.0,0.0,0.0,0.0,0.0,0.0,0.0,0.0,0.0,0.0,0.0,0.0,0.0,0.0,0.0,0.0,0.0,0.0,0.0,0.0,0.0,0.0,0.0,0.0,0.0,0.0,2.3354,2.0621,1.742,1.3189,1.0152,0.6448,0.1597,-0.2274,-0.578,-0.8816,-0.713,0.0,0.0,0.0,0.0,0.0,0.0,0.0,0.0,0.0,0.0,0.0,0.0,0.0,0.0,0.0,0.0,0.0,0.0,0.0,0.0,0.0,0.0,0.0,0.0,0.0,0.0,0.0,0.0,0.0,0.0,0.0,0.0,0.0,0.0,0.0,0.0,0.0,0.0,0.0,0.0,0.0,0.0,0.0,0.0,0.0,0.0,0.0,0.0,0.0,0.0,0.0,0.0,0.0,3.8578,3.7138,3.4679,3.3707,3.2224,3.0427,3.1153,3.0915,3.0102,3.1047,0.0,0.0,0.0,0.0,0.0,0.0,0.0,0.0,0.0,0.0,0.0,0.0,0.0,0.0,0.0,0.0,0.0,0.0,0.0,0.0,0.0,0.0,0.0,0.0,1.4324,1.4456,1.9574,0.0,0.0,0.0,0.0,0.0,0.0,0.0,0.0,0.0,0.0,0.0,2.5153,2.1866,1.8577,1.5444,1.2519,0.9089,0.475,0.0859,-0.366,-0.9139,-1.2496,-0.4471,0.0,0.0,0.0,0.0,0.0,0.0,0.0,0.0,0.0,0.0,0.0,0.0,0.0,0.0,0.0,0.0,0.0,0.0,0.0,0.0,0.0,0.0,0.0,0.0,0.0,0.0,0.0,0.0,0.0,0.0,0.0,0.0,3.0287,3.0343,0.0,0.0,0.0,0.0,0.0,0.0,0.0,0.0,0.0,0.0,0.0,0.0,0.0,4.3247,4.3254,4.2549,4.1691,4.0643,3.919,3.7474,3.5577,3.3946,3.2032,2.9986,2.9719,0.0,2.8767,2.9913,0.0,0.0,0.0,0.0,0.0,0.0,0.0,0.0,0.0,0.0,0.0,0.0,0.0,0.0,0.0,0.0,0.0,0.0,0.0,0.0,0.0,0.0,1.5268,1.3511,1.1771,1.1165,0.0,1.8359,2.3185,2.6757,2.924,0.0,0.0,0.0,0.0,0.0,0.0,0.0,2.5575,2.3197,2.0275,1.637,1.5079,1.2714,0.8226,0.3629,0.155,0.2854,-0.5775,-0.4796,0.8922,1.5286,0.0,0.0,0.0,0.0,0.0,0.0,0.0,0.0,0.0,0.0,0.0,0.0,0.0,0.0,0.0,0.0,0.0,0.0,0.0,0.0,0.0,0.0,0.0,0.0,0.0,0.0,0.0,0.0,0.0,3.1558,3.0186,3.0516,3.129,3.2568,0.0,0.0,0.0,0.0,0.0,0.0,0.0,0.0,0.0,4.2926,4.3335,4.3572,4.3596,4.3212,4.2325,4.1003,3.9763,3.7995,3.5738,3.3963,3.2213,3.0621,3.0114,3.015,3.0565,3.063,3.1699,3.3443,0.0,0.0,0.0,0.0,3.1935,2.9773,2.7706,2.6447,2.6054,2.7477,0.0,0.0,0.0,0.0,0.0,0.0,0.0,0.0,0.0,0.0,1.7195,1.4062,1.2633,1.2327,1.368,1.7334,2.1436,0.0,2.6913,2.8968,3.1875,0.0,0.0,0.0,0.0,3.0098,2.7872,2.5112,2.2139,1.8927,1.7407,1.5502,1.288,1.0124,0.8884,0.9696,0.3042,0.203,0.8584,1.2403,1.6605,0.0,0.0,0.0,0.0,0.0,0.0,0.0,0.0,0.0,0.0,0.0,0.0,0.0,0.0,0.0,0.0,0.0,0.0,0.0,0.0,0.0,0.0,0.0,0.0,0.0,0.0,0.0,0.0,3.1864,3.0586,3.0657,3.1191,3.2456,0.0,0.0,0.0,0.0,0.0,0.0,4.3656,4.4005,4.4248,4.4478,4.4494,4.4538,4.4575,4.411,4.3108,4.1634,4.058,3.8695,3.6091,3.4703,3.3364,3.213,3.2015,3.2683,3.3671,3.2416,3.276,3.4203,3.5131,3.5301,3.4769,3.2794,3.0685,2.8528,2.6764,2.5728,2.5627,2.8134,3.0188,3.2083,3.4609,0.0,0.0,0.0,0.0,2.9922,2.6563,2.3163,1.9633,1.5819,1.4536,1.4463,1.5485,1.7859,2.077,0.0,2.5756,2.8083,3.23,0.0,0.0,0.0,0.0,3.1238,2.9547,2.6437,2.3466,2.0905,1.9229,1.7757,1.6477,1.5556,1.4848,1.4241,0.9858,0.8017,0.9686,1.033,1.2622,1.6875,0.0,0.0,0.0,0.0,0.0,0.0,0.0,0.0,0.0,0.0,0.0,0.0,0.0,0.0,0.0,0.0,0.0,0.0,0.0,0.0,0.0,0.0,0.0,0.0,0.0,0.0,0.0,0.0,0.0,3.0186,3.151,0.0,0.0,0.0,0.0,4.0454,4.2063,4.3452,4.4583,4.5434,4.6277,4.7189,4.7289,4.7283,4.7219,4.5623,4.4366,4.3432,4.1829,3.9647,3.7104,3.6833,3.5996,3.4769,3.5852,3.6982,3.7905,3.5301,3.483,3.5811,3.6119,3.5257,3.357,3.1076,2.9415,2.8266,2.7019,2.682,2.7643,3.0566,3.3433,3.6058,3.7447,3.6739,0.0,0.0,3.2561,3.0243,2.744,2.3971,2.055,1.8145,1.6817,1.6495,1.8069,2.0318,2.2719,0.0,2.799,3.1132,3.4487,0.0,3.6853,3.7458,3.4889,3.1964,2.9444,2.6665,2.3903,2.1319,2.036,1.9291,1.776,1.7657,1.7505,1.7028,1.2347,0.9707,0.9889,0.6974,0.8298,1.4542,1.8038,0.0,0.0,0.0,0.0,0.0,0.0,0.0,0.0,0.0,0.0,0.0,0.0,0.0,0.0,0.0,0.0,0.0,0.0,0.0,0.0,0.0,0.0,0.0,0.0,0.0,0.0,0.0,0.0,3.2821,3.3096,0.0,3.6584,3.8018,3.9671,4.1834,4.2672,4.3827,4.5431,4.6411,4.6833,4.6639,4.7731,4.7769,4.6585,4.6514,4.5786,4.4343,4.268,4.1074,3.9609,3.8965,3.8576,3.8556,3.9336,4.0463,4.1613,4.076,3.9609,3.8433,3.8137,3.7032,3.5231,3.2201,3.0831,3.0248,2.8882,2.9541,3.1524,3.5033,3.7527,3.9265,3.9301,3.8315,3.6958,3.5763,3.3442,3.08,2.8758,2.5931,2.3146,2.1091,2.071,2.1076,2.2168,2.4461,2.7253,3.0361,3.1845,3.3305,3.5415,3.747,3.8604,3.8047,3.5662,3.3166,3.1161,2.7966,2.5092,2.3088,2.1581,2.0573,2.0144,1.9529,1.8847,1.8094,1.5508,1.3325,1.1835,1.0949,1.1463,1.3553,1.765,2.2831,0.0,0.0,0.0,0.0,0.0,0.0,0.0,0.0,0.0,0.0,0.0,0.0,0.0,0.0,0.0,0.0,0.0,0.0,0.0,0.0,0.0,0.0,0.0,0.0,0.0,0.0,3.5115,3.5012,3.4986,3.582,3.794,3.8737,4.0176,4.2659,4.3281,4.4305,4.5969,4.6898,4.7194,4.6674,4.7768,4.778,4.6571,4.6846,4.6279,4.4822,4.3701,4.2584,4.1483,4.1381,4.1572,4.2005,4.2648,4.3608,4.4744,4.4555,4.3312,4.1426,4.0273,3.8441,3.6159,3.3552,3.2517,3.2391,3.2358,3.3809,3.6127,3.9081,4.0646,4.138,4.0994,3.9593,3.7873,3.6745,3.4514,3.2012,3.0064,2.7993,2.5988,2.4187,2.4361,2.5205,2.6281,2.8876,3.1992,3.5389,3.5804,3.6111,3.7702,3.9776,4.0735,3.9361,3.6725,3.4129,3.1918,2.8474,2.5581,2.3741,2.2253,2.132,2.1157,2.0634,1.9983,1.9162,1.7793,1.619,1.4306,1.3323,1.3339,1.435,1.9963,2.5319,3.0356,0.0,0.0,0.0,0.0,0.0,0.0,0.0,0.0,0.0,0.0,0.0,0.0,0.0,0.0,0.0,0.0,0.0,0.0,0.0,0.0,0.0,0.0,0.0,3.8335,3.7978,3.7666,3.6507,3.727,3.8034,3.8461,3.992,4.1402,4.2787,4.3897,4.496,4.6052,4.6977,4.7528,4.7576,4.7562,4.7494,4.7457,4.6676,4.5835,4.4978,4.4967,4.4149,4.2609,4.4167,4.4883,4.493,4.5624,4.6426,4.7139,4.6325,4.5507,4.4488,4.2274,3.9393,3.6267,3.4901,3.4245,3.4433,3.7268,3.9405,4.1124,4.2412,4.2604,4.2364,4.2524,4.0438,3.7858,3.7058,3.5659,3.3834,3.1356,3.0057,2.8973,2.7344,2.7648,2.8693,3.0333,3.3395,3.6743,3.9807,3.9703,3.9685,4.1483,4.2786,4.3028,4.1429,3.8068,0.0,3.1456,2.8137,2.5329,2.3273,2.2329,2.1495,2.0695,2.0972,2.0923,2.0362,1.9261,1.8191,1.7169,1.3874,1.3654,1.7155,2.4725,3.1273,3.664,0.0,0.0,0.0,0.0,0.0,0.0,0.0,0.0,0.0,0.0,0.0,0.0,0.0,0.0,0.0,0.0,0.0,0.0,0.0,0.0,0.0,4.3658,4.2948,4.0873,4.0494,4.0399,4.013,3.9917,3.9926,4.0306,4.0939,4.1778,4.2973,4.4098,4.5152,4.6112,4.7006,4.7225,4.6676,4.7767,4.7749,4.6497,4.7456,4.7515,4.6726,4.6714,4.6488,4.6097,4.6557,4.6718,4.6718,4.6913,4.7102,4.7276,4.6431,4.5573,4.4585,4.2695,4.1023,3.9351,3.6992,3.669,3.7824,4.0411,4.2074,4.3111,4.2963,4.2947,4.276,4.169,3.9882,3.8163,3.7942,3.6197,3.424,3.3619,3.2305,3.108,3.0685,3.1256,3.2319,3.3991,3.6445,3.9246,4.2348,4.3312,4.3639,4.3764,4.336,4.237,4.078,3.7469,0.0,3.2228,2.8963,2.6104,2.4241,2.2795,2.178,2.1183,2.1143,2.0982,2.0613,2.128,2.1216,2.0158,2.1054,2.2478,2.4448,2.8493,3.2231,0.0,0.0,0.0,0.0,0.0,0.0,0.0,0.0,0.0,0.0,0.0,0.0,0.0,0.0,0.0,0.0,0.0,0.0,0.0,0.0,0.0,0.0,4.4747,4.4228,4.3466,4.2508,4.1908,4.2048,4.1721,4.1622,4.1876,4.2107,4.27,4.3712,4.4404,4.5212,4.6153,4.6703,4.6758,4.6276,4.7528,4.7717,4.6691,4.799,4.8594,4.8468,4.8491,4.8677,4.8996,4.9045,4.9011,4.8917,4.8203,4.7898,4.7765,4.6523,4.5696,0.0,0.0,0.0,0.0,0.0,3.9558,4.0493,4.2665,4.3792,4.422,4.3883,4.3553,4.3081,4.1839,4.022,3.8852,3.881,3.7463,3.5929,3.5601,3.4787,3.4029,3.4121,3.475,3.5787,3.7458,3.9641,4.1817,4.3802,4.4934,0.0,4.4638,4.3954,4.2588,4.0127,3.6989,3.4234,3.2182,2.8889,2.6169,2.4579,2.3021,2.1797,2.1075,2.0756,0.0,0.0,0.0,2.1914,2.2004,2.4442,0.0,0.0,0.0,0.0,0.0,0.0,0.0,0.0,4.5054,4.5522,0.0,0.0,0.0,0.0,0.0,0.0,0.0,0.0,0.0,0.0,0.0,0.0,0.0,0.0,0.0,0.0,4.632,4.575,4.5849,4.4145,4.2967,4.3077,4.3085,4.3127,4.3206,4.3337,4.3807,4.4657,4.4868,4.5326,4.6144,0.0,0.0,0.0,0.0,4.764,4.7625,4.8599,4.9395,5.0024,5.0283,5.0741,5.1375,5.1326,5.1278,5.112,4.9352,4.8522,4.8335,4.659,4.5854,4.5698,4.5055,4.3817,4.2426,4.2532,4.25,4.2656,4.4254,0.0,0.0,4.4787,4.4202,4.3303,4.2438,4.0985,3.9567,3.9525,3.8872,3.8048,3.7443,3.7257,3.7246,3.745,3.8074,3.901,4.0514,4.247,4.4052,4.4433,4.5101,4.5333,4.4342,4.412,4.2925,3.9548,3.6667,3.4022,3.172,2.8495,2.5948,2.4656,0.0,0.0,2.0482,2.0,1.9816,1.9819,2.028,2.1392,2.3319,2.5536,2.8412,3.1976,3.3484,3.6783,4.2044,4.3712,4.4646,4.4918,4.454,4.4542,0.0,0.0,0.0,0.0,0.0,0.0,0.0,0.0,0.0,0.0,0.0,0.0,0.0,0.0,0.0,4.8153,4.7481,4.6957,4.7007,4.6056,4.5385,4.5386,4.4754,4.4361,4.4463,4.45,4.4604,4.4775,4.5482,4.5997,4.6192,4.6946,4.7344,4.7335,4.8127,4.8527,4.8457,4.9993,5.0791,5.0864,0.0,0.0,5.3068,5.2408,5.2006,5.178,4.9445,4.841,4.8222,4.652,4.5742,4.5565,4.496,4.4083,4.3264,4.3934,4.4202,4.4415,4.5328,4.571,4.5648,4.4937,4.4093,4.3186,4.2354,4.0854,0.0,3.9503,3.8872,3.8307,3.8883,3.8999,3.9193,3.9863,4.0565,4.1345,4.2184,4.2983,4.3831,4.4907,4.4838,4.412,4.2674,4.1799,4.0812,3.9348,3.6214,3.3414,3.1945,2.9095,2.6811,2.5648,2.3227,2.0957,1.9144,1.8699,1.8612,1.876,2.0372,2.2659,2.5682,2.7298,3.0101,3.4275,3.6288,3.9353,4.3395,4.4165,4.5156,4.6379,4.6613,4.5573,0.0,0.0,0.0,0.0,0.0,0.0,0.0,0.0,0.0,0.0,0.0,5.066,4.9873,0.0,4.8652,4.9148,4.8569,4.8061,4.8068,4.7702,4.7117,4.6193,4.5718,4.546,4.5501,4.5518,4.5689,4.6123,4.6573,4.7057,4.7498,4.7969,4.82,4.8181,4.9025,4.9619,4.9995,5.123,5.2258,5.3003,5.3818,5.442,5.4785,5.3917,5.321,5.2584,5.0477,4.9285,4.8733,4.7499,4.687,4.6796,4.6522,4.5659,4.4601,4.4998,4.5204,4.532,4.5686,4.579,4.5648,4.4834,4.4214,4.3697,4.2898,4.2034,4.1287,4.092,4.0826,4.0837,4.0865,4.1164,4.1645,4.2434,4.2811,4.3167,4.3771,4.4241,4.4561,4.4526,4.4305,4.3526,4.17,4.0358,3.9153,3.7953,3.5215,3.2848,3.1613,2.9088,2.6934,2.5715,2.3558,2.1143,1.8565,1.8231,1.8476,1.9196,2.1152,2.3606,2.6708,2.8972,3.1953,3.5897,3.8012,4.0607,4.3878,4.4545,4.5406,4.6397,4.6322,4.5326,0.0,0.0,0.0,0.0,0.0,0.0,0.0,0.0,5.358,5.284,5.2214,5.1774,5.1724,5.0594,4.9887,5.0616,4.993,4.928,4.9285,4.898,4.8277,4.6856,4.6687,4.6722,4.67,4.6705,4.6985,4.7691,4.7732,4.8047,4.8746,4.8941,4.9051,4.9055,4.9879,5.0751,5.152,5.232,5.3464,5.4904,5.4986,5.5332,5.5961,5.5036,5.413,5.3128,5.1241,4.9894,4.9048,4.8356,4.8029,4.791,4.7971,4.7184,4.6026,4.5928,4.5812,4.5703,4.5648,4.5632,4.55,4.4845,4.4514,4.4292,4.3656,4.3401,4.3182,4.2521,4.2915,4.3363,4.2787,4.3141,4.3789,4.4515,4.4509,4.4461,4.4874,4.5078,4.4856,4.3832,4.3433,4.2685,4.0872,3.9363,3.7933,3.6585,3.4394,3.2399,3.1271,2.8801,2.6784,2.5793,2.3819,2.1396,1.8343,1.8297,1.8983,2.0242,2.2218,2.4513,2.7148,3.0402,3.3736,3.7148,3.9291,4.1611,4.4338,4.4946,4.5642,4.6318,4.5185,4.4416,4.9966,5.3475,5.6539,5.7657,5.7327,5.704,0.0,0.0,5.5664,5.4999,5.4723,5.4435,5.3747,5.3448,5.3344,5.3433,5.2109,5.1011,5.1006,4.9696,4.8621,4.843,4.8474,4.8514,4.8515,4.8515,4.8555,4.8633,4.8633,4.8709,4.8775,4.9522,4.9944,4.9952,5.0751,5.1583,5.2442,5.3141,5.3973,5.49,5.5513,5.5808,5.5866,5.4878,5.3925,5.29,5.0445,4.8872,4.8046,4.7969,4.7805,4.7638,4.7662,4.7462,4.7162,4.6758,4.6147,4.5603,4.553,4.5565,4.5594,4.5549,4.5032,4.4415,4.4446,4.3931,4.3299,4.3245,4.3346,4.3516,4.4084,4.4259,4.4469,4.5201,4.5208,4.4979,4.4876,4.396,4.3237,4.3413,4.2084,4.0634,3.9797,3.8559,3.7447,3.6751,3.443,3.2319,3.1263,2.86,2.678,2.6556,2.3801,2.0917,1.8237,1.8999,2.0136,2.1451,2.3456,2.542,2.7317,3.113,3.4887,3.8441,4.064,4.3088,4.5857,4.5306,4.5893,4.7424,4.4518,4.2876,5.3409,5.5938,5.7625,0.0,5.921,5.8861,5.8336,5.7641,5.6836,5.6059,5.5494,5.5075,5.4726,5.4215,5.3852,0.0,5.2806,5.1999,5.1986,5.0952,5.0151,5.0151,5.016,4.9844,4.8892,4.878,4.9018,4.9525,4.9553,4.9774,5.0308,5.0611,5.0784,5.0735,5.107,5.1882,5.3169,5.3416,5.4196,5.547,5.5712,5.5766,5.5766,5.5292,5.4258,5.2832,5.0673,4.9557,4.9167,4.912,4.9061,4.8934,4.8934,4.8605,4.7946,4.6815,4.6205,4.5867,4.5472,4.538,4.5419,4.5512,4.5299,4.5064,4.521,4.5356,4.5278,4.4305,4.4757,4.5388,4.4675,4.4824,4.5224,4.5435,4.5283,4.4988,4.4688,4.3727,4.2841,4.2656,4.1396,4.0056,3.8978,3.8181,3.724,3.5907,3.3973,3.2309,3.1191,2.8865,2.6759,2.5226,2.3561,2.2023,2.0776,2.1193,2.2081,2.346,2.4865,2.7004,3.0113,3.2921,3.6254,4.0196,4.1834,4.3667,4.5799,4.5547,4.592,4.6857,4.5507,4.4727,5.5882,5.7619,0.0,5.9943,6.0475,6.0253,5.8762,5.8421,5.8196,5.7304,5.6482,5.5927,5.5921,5.5182,5.4476,5.4242,5.3424,5.2766,5.2514,5.1765,5.1191,5.1209,5.1226,5.0789,4.9596,4.9493,4.9774,5.0403,5.0455,5.0745,5.1323,5.1335,5.1256,5.1211,5.119,5.1836,5.3247,5.3421,5.4194,5.5555,5.5671,5.5703,5.5703,5.5278,5.4279,5.2714,5.1141,5.0317,4.9986,4.9959,4.9906,4.9797,4.9862,4.9456,4.8682,4.7314,4.6531,4.6111,4.5414,4.5235,4.5319,4.5381,4.5457,4.5568,4.5648,4.6143,4.6375,4.5162,4.5703,4.6368,4.5086,4.5137,4.553,4.5381,4.5197,4.4834,4.4191,4.3278,4.2365,4.1784,4.0599,3.9372,3.8483,3.7662,3.6602,3.496,3.3355,3.1976,3.0864,2.8589,2.6224,2.4117,2.3676,2.3463,2.333,2.3633,2.4485,2.6049,2.6622,2.8841,3.3073,3.4884,3.7802,4.2141,4.2869,4.4033,4.5726,4.5763,4.5874,4.608,4.5579,4.5343,5.6082,0.0,6.0195,6.0229,6.0898,6.1321,6.0422,6.0225,5.9988,5.9187,5.8314,5.7718,5.7718,5.7024,5.6137,5.5303,5.4363,5.3457,5.2619,5.173,5.1197,5.12,5.125,5.1271,0.0,5.1239,5.1245,5.1336,5.1375,5.1323,5.132,5.1281,5.1256,5.1211,5.1159,5.154,5.2434,5.312,5.3928,5.4743,5.5401,5.5703,5.5665,5.4609,5.3595,5.2589,5.1597,5.0627,4.9807,4.989,4.9807,4.9604,4.9663,4.9604,4.937,4.8616,4.7451,4.6111,4.5414,4.5277,4.5418,4.5381,4.5475,4.5603,4.5703,4.5719,4.5719,4.5696,4.5632,4.553,4.54,4.5301,4.5192,4.5057,4.4914,4.4511,4.3297,4.2313,4.1452,4.0943,3.9329,3.8151,3.8457,3.69,3.5174,3.41,3.2496,3.1113,3.0247,2.7411,2.507,2.4003,2.442,2.4859,2.5096,2.6026,2.7336,2.9139,2.8926,3.0823,3.5493,3.6813,3.9602,4.4213,4.3788,4.4296,4.6007,4.6,4.5842,4.5483,4.3731,4.2961,5.8975,0.0,6.0432,6.1616,6.1764,6.1359,6.0558,6.0358,6.0115,5.9285,5.8392,5.7807,5.7796,5.6575,5.5471,5.5198,5.3884,5.2848,5.2536,5.2193,5.181,5.1257,5.1739,0.0,0.0,0.0,0.0,5.1323,5.1349,5.1062,5.0463,5.0927,5.0957,5.037,5.0804,5.1436,5.2283,5.3005,5.3764,5.4555,5.5237,5.5485,5.5364,5.4409,5.3731,5.3242,5.1726,5.0865,5.0476,4.9948,4.9634,4.9551,4.9551,4.9521,4.9277,4.8544,4.7984,4.7408,4.6315,4.5597,4.517,4.5298,4.536,4.5419,4.5512,4.6301,4.6916,4.5801,4.6225,4.6758,4.5607,4.5235,4.5125,4.5033,4.484,4.4315,4.305,4.2062,4.1046,3.9873,3.8723,3.765,3.677,3.5968,3.4713,3.2491,3.1264,3.0073,2.8558,2.7736,2.6856,2.5816,2.6391,2.6868,2.6862,2.8295,2.9536,3.0221,3.2274,3.439,3.6579,3.8592,4.0691,4.2885,4.3279,4.3963,4.5064,4.5531,4.5648,4.5483,4.4522,4.3483,6.0546,6.0935,6.098,6.282,6.2875,6.2382,6.1866,6.1754,6.152,6.0622,5.9503,5.8613,5.8293,5.677,5.5478,5.5166,5.4142,5.3318,5.3006,5.2928,5.2733,5.2216,5.2679,5.2779,0.0,0.0,0.0,5.1342,5.1608,5.1367,5.0494,5.0646,5.0636,5.0348,5.0507,5.0966,5.1725,5.2453,5.3338,5.4348,5.5054,5.5262,5.5102,5.443,5.3926,5.3497,5.222,5.1494,5.1067,5.0509,5.0071,4.9711,4.9781,4.9557,4.9118,4.8759,4.8288,4.773,4.6895,4.6076,4.5451,4.5567,4.5442,4.5235,4.5321,4.6084,4.6691,4.5607,4.6042,4.6542,4.5437,4.5057,4.4938,4.4751,4.4342,4.3643,4.2433,4.1434,4.0341,3.8974,3.8007,3.7077,3.603,3.5165,3.3852,3.1511,3.0593,2.9622,2.8181,2.7833,2.7543,2.7053,2.7904,2.8515,2.8543,3.0502,3.1961,3.2407,3.452,3.6409,3.7848,4.0112,4.1704,4.2555,4.3306,4.409,4.486,4.5272,4.5337,4.511,4.4497,4.3766,6.0747,6.1328,6.1861,6.367,6.4168,6.4184,6.4202,6.4189,6.3888,6.3068,6.1477,5.9999,5.9178,0.0,5.6053,5.5233,5.5076,5.4762,5.3942,5.3854,5.3888,0.0,0.0,0.0,0.0,0.0,0.0,5.1476,0.0,5.2193,5.1287,5.0508,5.0354,5.093,5.0234,5.0181,5.0841,5.1624,5.2756,5.4104,5.4775,5.5085,5.4971,5.4723,5.4118,5.3344,5.3103,5.241,5.1597,5.1487,5.0968,5.0153,5.0259,4.9775,4.9064,4.9193,4.8347,4.7049,4.7194,4.6743,4.6125,4.6187,4.568,4.5103,4.5103,4.5141,4.5141,4.517,4.5118,4.5,4.4914,4.4789,4.4605,4.4325,4.3573,4.2597,4.1446,4.0409,3.9378,3.8215,3.7145,3.6292,3.6006,3.4335,3.2577,3.1046,3.0311,2.9671,2.8934,2.7756,2.7194,2.7706,2.8886,2.9775,3.003,3.2522,3.4493,3.5516,3.5747,3.6945,3.9354,4.1229,4.2526,4.3178,4.389,4.4586,4.5227,4.5184,4.4919,4.4465,4.3676,4.3642,6.0677,6.1662,6.2522,6.3789,6.4131,6.4184,6.4206,6.3707,6.3163,6.2967,6.1049,5.9329,5.9137,5.7135,0.0,5.5265,5.4716,0.0,5.3976,5.4529,0.0,5.4059,0.0,5.4619,5.3961,5.4429,0.0,0.0,5.2433,5.1896,5.0325,5.0656,5.0363,4.9254,5.0143,5.0442,5.0001,5.1876,5.3222,5.3951,5.4749,5.4962,5.4692,5.4565,5.4288,5.3893,5.3011,5.2603,5.2451,5.1565,5.1157,5.108,5.0412,5.004,4.9743,4.9182,4.8492,4.7822,4.7852,4.6638,4.5167,4.5824,4.5508,4.4914,4.501,4.5418,4.5685,4.5066,4.5205,4.5358,4.4626,4.4336,4.4229,4.4079,4.3361,4.239,4.1291,4.0251,3.9216,3.8007,3.6363,3.494,3.4196,3.258,3.1116,3.0212,2.9443,2.8977,2.9077,2.8421,2.8124,2.8594,2.9576,3.0393,3.0864,3.3363,3.5017,3.5374,3.7786,3.9423,3.9972,4.1719,4.2698,4.2756,4.3463,4.3874,4.39,4.4448,4.4493,4.4102,4.3818,4.3794,6.0701,6.2133,6.3388,6.4392,6.4711,6.4648,6.4254,6.3818,6.3266,6.2466,6.0895,0.0,5.9187,5.7265,5.5782,0.0,0.0,0.0,5.5104,5.5503,5.5664,0.0,5.5485,0.0,5.5074,5.5403,5.5073,0.0,5.3273,5.231,5.0508,5.0537,5.032,4.9691,5.0114,5.0262,4.9969,5.188,5.2984,5.3204,5.4238,5.4623,5.4434,5.4231,5.4089,5.3907,5.3236,5.2974,5.2974,5.2299,5.1853,5.1562,5.0824,5.0305,4.9861,4.9152,4.8472,4.8002,4.8413,4.7236,4.5585,4.5865,4.5391,4.4685,4.4712,4.4998,4.518,4.4664,4.474,4.4849,4.4311,4.414,4.4017,4.386,4.3107,4.2169,4.1092,4.0051,3.876,3.6934,3.5652,3.4518,3.3248,3.2265,3.1561,3.1073,3.0466,3.0153,3.0463,2.9546,2.9228,3.0116,3.1073,3.1948,3.28,3.492,3.6552,3.7419,3.9526,4.0903,4.1245,4.2443,4.3085,4.3003,4.3639,4.3856,4.3707,4.393,4.3881,4.3631,4.3458,4.3644,6.0594,6.2389,6.3977,6.4609,6.4953,6.4882,6.3962,6.3722,6.3247,6.1651,0.0,5.9801,5.9066,5.7607,5.6489,5.6497,0.0,5.6517,5.6517,5.6523,5.6517,5.6512,5.6475,5.651,5.6488,5.6378,5.5925,5.5048,5.4284,5.3067,5.1334,5.0518,5.0377,5.0921,5.0078,4.9795,5.0275,5.1777,5.2437,5.2273,5.3644,5.4231,5.4163,5.3907,5.3717,5.3563,5.3481,5.3318,5.323,5.3188,5.2663,5.1925,5.1403,5.0709,4.9898,4.9267,4.8516,4.7876,4.8654,4.7802,4.6382,4.6232,4.551,4.4749,4.4632,4.4498,4.4423,4.4258,4.4153,4.4048,4.3955,4.3923,4.386,4.3597,4.2839,4.1933,4.0886,3.9661,3.808,3.5615,3.5116,3.4512,3.2855,3.2737,3.2766,3.253,3.2143,3.1923,3.2112,3.0776,3.0363,3.1793,3.2791,3.3874,3.5058,3.6711,3.8384,4.0063,4.0933,4.1759,4.2655,4.3288,4.3605,4.358,4.399,4.4132,4.3949,4.349,4.3213,4.3069,4.2991,4.3387,5.9859,6.1445,6.2713,6.2212,6.2633,6.299,6.2123,6.1412,0.0,0.0,5.9295,5.8201,5.805,5.7192,5.654,5.656,0.0,0.0,0.0,0.0,5.6493,0.0,0.0,0.0,0.0,0.0,0.0,0.0,5.4661,5.3801,5.2119,5.1881,5.1438,5.0587,4.9639,4.9449,5.0139,5.1537,5.2197,5.209,5.3481,5.4055,5.387,5.368,5.3524,5.3322,5.3151,0.0,5.3277,5.298,5.295,5.2941,5.2169,5.144,5.0785,4.9972,4.8824,4.7735,4.7951,4.6876,4.5653,4.701,4.6829,4.6094,4.6164,4.568,4.5021,4.5021,4.4448,4.38,4.3701,4.3634,4.3529,4.3322,4.263,4.1757,4.0673,3.8688,3.6786,3.5574,3.4822,3.4071,3.3077,3.2834,3.2553,3.2036,3.1882,3.193,3.2254,3.1465,3.1407,3.2655,3.3635,3.4701,3.597,3.7623,3.895,3.9895,4.1418,4.2517,4.2983,4.3874,4.4215,4.3916,4.3684,4.3456,4.3248,4.2995,4.2655,4.2378,4.2894,4.3328,5.9733,6.1237,6.2484,6.2067,6.1953,6.1758,6.0916,0.0,0.0,0.0,5.8304,5.7655,5.7221,5.6429,0.0,5.5937,0.0,0.0,0.0,0.0,0.0,0.0,0.0,0.0,0.0,0.0,5.6029,5.5588,5.5443,5.4624,5.2917,5.272,5.1933,5.038,5.0212,5.0266,5.0458,5.1563,5.2177,5.2401,5.3869,5.4464,5.4229,5.4149,5.4027,5.386,5.3329,5.3109,5.3151,5.298,5.298,5.3078,5.2312,5.1661,5.1006,5.0194,4.9195,4.8264,4.8298,4.771,4.7013,4.7381,4.645,4.5143,4.5148,4.4856,4.4457,4.4354,4.3996,4.3634,4.3566,4.3532,4.3463,4.3322,4.2523,4.1542,4.0491,3.9013,3.7327,3.5715,3.5137,3.4523,3.3208,3.3024,3.2942,3.2613,3.2661,3.2951,3.353,3.346,3.361,3.4274,3.5198,3.6287,3.745,3.8264,3.9304,4.0685,4.1666,4.2596,4.3586,4.3916,4.3918,4.3664,4.3284,4.3177,4.331,4.2476,4.2221,4.2475,4.2687,4.3164,5.9874,6.1149,6.2249,6.1826,6.1221,6.0498,5.9459,5.8752,0.0,0.0,5.7446,5.7317,5.6641,5.6011,5.5585,0.0,5.557,5.6103,0.0,0.0,0.0,0.0,0.0,0.0,0.0,0.0,0.0,5.6194,5.6046,5.5264,5.3685,5.3046,5.212,5.0746,5.0962,5.1083,5.1066,5.1737,5.2292,5.2716,5.3977,5.4596,5.4658,5.4533,5.4559,5.4576,5.3916,5.3616,5.3493,5.331,5.3237,5.3207,5.2569,5.1808,5.0968,5.0341,4.9566,4.8751,4.8751,4.8532,4.8089,4.75,4.6094,4.4638,4.4358,4.4177,4.3962,4.3823,4.3679,4.3497,4.3497,4.3497,4.3497,4.3429,4.2341,4.1141,4.0491,3.9337,3.7971,3.6137,3.5728,3.5286,3.3965,3.39,3.3953,3.3712,3.3822,3.4109,3.4576,3.5219,3.5727,3.5909,3.6813,3.7777,3.8866,3.8921,3.9671,4.1539,4.1905,4.2632,4.3937,4.3943,4.3716,4.3397,4.3281,4.3252,4.3315,4.2405,4.217,4.2544,4.274,4.3288,6.0126,6.0834,6.111,5.9517,5.9089,5.8596,5.7025,0.0,0.0,5.6574,5.6608,5.6602,5.6599,5.6523,5.6483,5.6471,5.6465,5.6774,0.0,0.0,0.0,0.0,0.0,0.0,0.0,0.0,5.7055,5.6276,5.5973,5.5364,5.4276,5.2571,5.184,5.2265,5.1366,5.1155,5.1813,5.2194,5.2456,5.2605,5.3105,5.3792,5.4496,5.4448,5.4759,5.5285,5.5257,5.5176,0.0,5.4407,5.4159,5.4173,5.3286,5.2123,5.0925,5.0695,4.9743,4.8532,4.8605,4.8016,4.7205,4.7279,4.7095,4.6691,4.6101,4.5293,4.4634,4.4741,4.4154,4.3497,4.3497,4.3497,4.3497,4.3429,4.1905,4.0565,4.0635,3.8824,3.7156,3.703,3.6498,3.604,3.5988,3.6017,3.576,3.4954,3.4936,3.4797,3.4149,3.5525,3.6658,3.6948,3.7769,3.8667,3.9633,3.9754,4.0344,4.1675,4.2212,4.2797,4.359,4.4191,4.4273,4.374,4.4085,4.3767,4.2773,4.3032,4.2743,4.2092,4.3457,4.4215,6.0466,6.0633,6.034,5.9629,5.8734,5.7858,5.7167,0.0,5.6398,5.6471,5.6503,5.6376,5.5892,5.582,5.5818,5.5804,5.5837,5.6298,5.7612,0.0,0.0,0.0,0.0,0.0,0.0,0.0,5.7185,5.6218,5.5941,5.5553,5.5071,5.3746,5.2764,5.2205,5.1782,5.1785,5.2302,5.2456,5.2676,5.304,5.3649,5.4117,5.4448,5.4399,5.4796,5.5493,5.4546,5.4406,0.0,5.4086,5.3834,5.3838,5.3382,5.2578,5.1667,5.1032,5.0188,4.9196,4.8753,4.8347,4.7942,4.7499,4.7315,4.7095,4.6213,4.5405,4.4709,4.4814,4.4226,4.36,4.3634,4.3634,4.3532,4.3356,4.2704,4.1978,4.1505,4.0304,3.9028,3.8172,3.7454,3.6867,3.651,3.6454,3.6343,3.5956,3.6028,3.6155,3.6223,3.7002,3.7779,3.8365,3.885,3.9284,3.967,4.0099,4.0591,4.112,4.1897,4.254,4.2921,4.3607,4.3728,4.3266,4.3694,4.378,4.3469,4.303,4.2808,4.2717,4.3328,4.3761,6.0037,5.9961,5.9451,5.8964,5.8226,5.7446,0.0,5.6605,5.6449,5.6497,5.6523,5.6348,5.5775,5.5664,5.5661,5.5648,5.5681,5.6259,5.7958,5.8187,0.0,0.0,0.0,5.9412,0.0,5.7881,5.7172,5.6188,5.5884,5.5707,5.5485,5.4524,5.347,5.246,5.2397,5.2432,5.2642,5.2753,5.2966,5.3318,5.4086,5.4559,5.481,5.511,5.5662,5.6367,5.5012,5.4759,0.0,5.4174,5.381,5.3736,5.3134,5.2471,5.1777,5.0851,5.0079,4.9381,4.879,4.8605,4.8495,4.7941,4.7756,4.7645,4.6911,4.5956,4.5145,4.5215,4.4626,4.3962,4.3845,4.3738,4.3634,4.3461,4.3173,4.2737,4.1898,4.1129,4.0207,3.894,3.8383,3.7933,3.7458,3.7426,3.7378,3.7065,3.7105,3.7254,3.7458,3.7865,3.8365,3.8939,3.9389,3.9613,3.9588,3.9977,4.0429,4.0852,4.1581,4.2159,4.2537,4.3381,4.3579,4.3079,4.3742,4.4007,4.3833,4.326,4.3078,4.3216,4.3418,4.3707,5.8637,5.8733,5.8415,5.6762,5.7069,5.7335,0.0,5.5907,5.6514,5.6501,5.6549,5.6595,5.6601,5.6601,5.6561,5.6507,5.6549,5.7171,5.8856,5.9084,0.0,0.0,0.0,6.1229,6.0369,5.8593,5.7119,5.618,5.59,0.0,5.5485,5.4435,5.3698,5.3475,5.3225,5.296,5.2679,5.3077,5.3318,5.3318,5.4044,5.489,5.5785,5.6762,5.7617,5.8319,5.7433,5.71,0.0,5.5202,5.4496,5.4349,5.2564,5.1503,5.0812,5.0004,4.927,4.8605,4.8605,4.8605,4.8605,4.8569,4.8569,4.8569,4.8569,4.746,4.6168,4.6205,4.5614,4.4801,4.4026,4.3804,4.3804,4.3804,4.3074,4.223,4.1446,4.0665,3.9882,3.924,3.9192,3.9324,3.9338,3.9414,3.9201,3.8399,3.8286,3.7962,3.7141,3.7751,3.8324,3.83,3.9137,3.9664,3.9539,3.9335,3.9816,4.1219,4.1418,4.1905,4.2657,4.3918,4.4218,4.3423,4.4664,4.4746,4.3436,4.3979,4.3923,4.325,4.3968,4.4529,5.6953,5.7387,5.7413,5.57,5.5986,5.6419,5.5315,5.5795,5.6509,5.6519,5.7005,5.7447,5.7495,5.7925,5.8319,5.8274,5.8272,5.8499,5.9012,0.0,0.0,0.0,6.023,5.9451,0.0,0.0,5.6432,5.6062,5.5941,5.5766,5.5485,5.5021,5.46,5.4245,5.2902,5.2632,5.3423,5.2936,5.2887,5.3318,5.417,5.4723,5.5012,5.5913,5.6768,5.7544,5.6742,5.6455,5.6385,5.5387,5.4647,5.409,5.3454,5.2673,5.1821,5.0968,5.0194,4.9455,4.8936,4.875,4.8785,4.875,4.8751,4.8714,4.8642,4.7867,4.6906,4.6385,4.6157,4.5853,4.5036,4.4749,4.4568,4.4013,4.3647,4.3352,4.3161,4.2514,4.1965,4.1876,4.1488,4.1268,4.1415,4.1463,4.1198,4.0321,4.0207,3.9859,3.8874,3.9072,3.9223,3.9151,3.9462,3.9626,3.9439,3.9794,4.0354,4.1029,4.1323,4.1751,4.2257,4.3305,4.3602,4.3062,4.4175,4.4529,4.3843,4.3997,4.3881,4.3681,4.3997,4.4384,5.5311,5.5584,5.5546,5.4459,5.4957,5.5475,5.4679,5.5475,5.6432,5.6452,5.7177,5.7781,5.7838,5.8541,5.9096,5.9096,5.9095,5.9205,0.0,0.0,0.0,0.0,0.0,0.0,0.0,5.7274,5.6495,5.6046,5.5904,5.5745,5.5499,5.5262,5.499,5.4698,5.3461,5.3003,5.3461,5.3125,5.3082,5.3404,5.4334,5.4778,5.4732,5.5969,5.6867,5.7348,5.6915,5.6546,0.0,5.5432,5.4651,5.3869,5.3422,5.29,5.2231,5.112,5.0454,4.9934,4.9083,4.8822,4.8857,4.875,4.8529,4.8342,4.8234,4.7864,4.7305,4.6257,4.6057,4.594,4.5121,4.4867,4.4687,4.4166,4.4055,4.398,4.3646,4.3312,4.2969,4.2779,4.2473,4.2281,4.2397,4.242,4.2246,4.173,4.1344,4.0881,4.0212,3.9873,3.9599,3.9477,3.9552,3.9502,3.9298,3.9649,4.0163,4.0866,4.0963,4.1307,4.2008,4.2987,4.3212,4.2706,4.3851,4.4236,4.3923,4.3805,4.378,4.378,4.3956,4.4088,0.0,5.3596,5.3284,5.3163,5.4017,5.4675,5.3857,5.5015,0.0,5.6363,5.7088,5.7746,5.7859,5.8531,5.9129,5.9176,5.9176,5.9485,0.0,6.0461,0.0,0.0,6.0847,0.0,5.8996,5.8052,5.7063,5.6078,5.5865,5.5703,5.5413,5.521,5.5028,5.4799,5.4543,5.3965,5.3008,5.3498,5.3682,5.3641,5.4491,5.4899,5.4973,5.6695,5.7518,0.0,5.775,5.7264,5.6441,5.5544,5.4647,5.3714,5.2899,5.2528,5.2232,5.0823,5.019,4.9969,4.9156,4.8824,4.8787,4.8642,4.8197,4.7675,4.7636,4.7596,4.7326,4.596,4.5574,4.5387,4.4565,4.4378,4.4341,4.4304,4.4296,4.4109,4.3287,4.3267,4.3201,4.2473,4.2517,4.2677,4.2699,4.2677,4.2655,4.2579,4.1867,4.1245,4.1014,4.0226,3.9602,3.9401,3.9388,3.932,3.912,3.8998,3.9497,4.0698,4.042,4.0724,4.1846,4.294,4.3162,4.2411,4.3575,4.4006,4.3628,4.3568,4.3628,4.3628,4.3772,4.393,5.2477,0.0,5.3913,5.2717,5.3766,5.4916,0.0,5.51,5.6044,5.6212,0.0,5.7848,5.8577,5.8922,5.9304,5.9999,6.0078,6.0153,6.0358,0.0,0.0,6.0668,6.0399,5.962,5.8087,5.7651,5.7101,5.6156,5.5941,5.5745,5.5461,5.5288,5.5085,5.4799,5.4571,5.4296,5.3973,5.3418,5.3348,5.3833,5.4688,5.5096,5.5018,5.6097,5.6955,5.755,5.759,5.7481,5.7297,5.7072,5.6141,5.4837,5.4614,5.372,5.2494,5.2159,5.1194,5.0008,4.9787,4.9269,4.8642,4.8605,4.8458,4.82,4.7853,4.7322,4.6797,4.6451,4.6371,4.6246,4.5424,4.52,4.5051,4.4453,4.4325,4.4345,4.4177,4.4277,4.436,4.4321,4.4402,4.4494,4.4538,4.4471,4.4189,4.3497,4.3088,4.236,4.1092,4.0704,4.0227,3.9425,3.9324,3.9229,3.8979,3.8921,3.9473,4.0698,4.0311,4.057,4.1682,4.2671,4.2911,4.232,4.3156,4.3628,4.3628,4.3509,4.3568,4.3839,4.3727,4.4119,5.2312,5.3153,5.3803,5.348,5.4341,5.5222,5.4956,5.5363,0.0,0.0,0.0,5.7818,5.8773,5.9342,5.9943,6.085,6.1014,0.0,0.0,0.0,0.0,6.0954,6.0487,5.981,0.0,5.7974,5.7226,5.6682,5.6136,5.5703,5.5499,5.5262,5.5209,5.5328,5.5239,5.4886,5.434,5.3786,5.3716,5.4091,5.4839,5.5212,5.5211,5.6479,5.7115,5.715,5.7562,5.7525,5.7152,5.7074,5.6513,5.5655,5.5246,5.4538,5.3608,5.2865,5.1714,5.0491,5.0084,4.9344,4.8532,4.8605,4.8384,4.805,4.7816,4.7173,4.6637,4.6732,4.6794,4.6742,4.6293,4.6218,4.5993,4.5132,4.4974,4.4918,4.4599,4.4659,4.4789,4.4938,4.501,4.508,4.5103,4.501,4.4738,4.4234,4.3705,4.2987,4.1996,4.1191,4.0323,3.933,3.9137,3.8998,3.8743,3.8652,3.9191,4.0597,4.0163,4.0375,4.1508,4.2479,4.3048,4.3115,4.3465,4.3568,4.3509,4.3449,4.3388,4.3482,4.3756,4.4151,5.2923,5.3311,5.3811,5.4472,5.5123,5.558,5.5499,0.0,0.0,0.0,0.0,0.0,0.0,5.9551,0.0,0.0,0.0,0.0,6.1861,6.1697,6.1586,6.1559,6.0884,0.0,6.019,5.8736,5.766,5.7345,5.6425,5.5753,5.5451,5.521,5.5332,5.5813,5.5875,5.5513,5.4631,5.4678,5.4718,5.4683,5.5247,5.551,5.5585,5.708,5.7454,5.6893,5.7529,0.0,5.678,5.6628,5.6513,5.6209,5.5503,5.5131,5.4834,5.331,5.2196,5.1194,5.0231,4.927,4.8532,4.8605,4.8234,4.7787,4.7821,4.7404,4.701,4.7297,4.717,4.6982,4.7012,4.7012,4.6824,4.6073,4.581,4.551,4.4917,4.4761,4.4789,4.4865,4.4938,4.4986,4.4962,4.4802,4.47,4.4685,4.3901,4.3208,4.2998,4.1622,4.0244,3.9166,3.9032,3.8891,3.8528,3.8336,3.8896,4.0312,3.9935,4.02,4.1405,4.2339,4.3124,4.3896,4.3831,4.3628,4.3449,4.3388,4.3267,4.3056,4.3804,4.4197,5.4503,5.5503,5.5864,5.4352,5.4961,5.5776,5.5293,0.0,0.0,0.0,0.0,0.0,0.0,5.9053,5.8948,0.0,0.0,6.1944,0.0,0.0,6.1489,6.1433,0.0,6.0928,6.019,5.9808,5.8994,5.7511,5.7062,5.6472,5.5523,5.5288,5.5151,5.5072,5.5605,5.5777,5.5563,5.6209,5.6476,5.6476,5.6517,5.6481,5.6481,5.6743,5.7117,5.7603,0.0,5.7117,5.764,5.7486,5.7037,5.6364,5.6174,5.5652,5.4869,5.3864,5.2934,5.1893,5.0302,4.9233,4.8605,4.8751,4.8713,4.8637,4.8813,4.8807,4.8762,4.8824,4.7872,4.6847,4.7061,4.7032,4.6974,4.6824,4.6202,4.5602,4.5632,4.5095,4.4659,4.4738,4.4789,4.4815,4.4764,4.4568,4.4393,4.4524,4.3557,4.2783,4.2669,4.1735,4.0523,3.901,3.927,3.926,3.8469,3.8234,3.8686,3.998,3.9779,4.0235,4.1684,4.209,4.2509,4.3126,4.3205,4.3355,4.3568,4.3295,4.3235,4.3509,4.399,4.4584,5.4424,5.5819,5.6771,5.5303,5.6343,5.7672,5.7481,5.6898,0.0,0.0,0.0,0.0,0.0,0.0,5.9207,6.1365,0.0,6.179,6.2149,6.1772,6.1433,0.0,0.0,6.1211,6.0808,6.0267,5.9603,5.8758,5.7679,5.6797,5.6213,5.5581,5.5331,5.5586,5.6204,5.6719,5.7102,5.7824,5.7751,5.6887,5.7302,5.7453,5.7453,5.7866,5.8016,5.7941,0.0,5.7305,5.7192,5.7078,5.7038,5.6962,5.5988,5.5654,5.5544,5.3756,5.2567,5.1602,5.0343,4.9344,4.8714,4.8822,4.8857,4.8892,4.8962,4.8996,4.903,4.9164,4.8669,4.8103,4.8197,4.8234,4.8091,4.761,4.6862,4.6113,4.5781,4.5059,4.4524,4.4578,4.4578,4.4578,4.4458,4.4279,4.4199,4.4177,4.3689,4.3082,4.2409,4.2068,4.1181,3.952,3.9826,3.9763,3.8758,3.8906,3.9224,3.9665,4.0151,4.0826,4.1644,4.1698,4.2092,4.2959,4.3007,4.3138,4.3295,4.3174,4.3113,4.3084,4.3742,4.4264,5.4279,5.5792,5.7149,5.6635,5.7745,5.8949,5.9048,5.8077,0.0,0.0,0.0,0.0,0.0,5.9363,0.0,6.174,6.1933,6.1885,6.188,6.1612,6.1396,6.1383,6.1394,6.1366,6.1322,6.0622,6.011,5.9824,5.8406,5.7328,5.6851,5.6129,5.5902,5.6215,5.6992,5.7661,5.8267,5.895,5.8689,5.745,5.8089,5.8389,5.8427,5.9027,5.8952,5.8389,5.8128,5.7641,5.7041,5.6706,5.6892,5.7225,5.5655,5.5358,5.5545,5.3571,5.2345,5.1528,5.0824,5.0083,4.9378,4.9227,4.9187,4.915,4.8964,4.889,4.8925,4.9098,4.9131,4.9127,4.923,4.923,4.9048,4.8413,4.7596,4.6769,4.6008,4.5215,4.4579,4.4486,4.4383,4.4325,4.4199,4.4079,4.3986,4.3897,4.3684,4.3217,4.2492,4.232,4.1714,4.0203,4.0456,4.0238,3.9149,3.9676,3.9863,3.961,4.0568,4.1254,4.1389,4.1359,4.1813,4.2691,4.2835,4.2983,4.3235,4.3113,4.299,4.2837,4.3649,4.4072,5.484,5.6036,5.7143,5.8021,5.8204,5.8165,5.8189,5.7718,0.0,5.8493,0.0,0.0,0.0,6.0429,6.1815,6.274,6.2857,6.2765,6.2707,0.0,6.1383,6.1381,6.1419,6.1366,6.1322,6.1164,6.0729,5.9862,5.9441,5.851,5.6865,5.7183,5.7092,5.6407,5.7629,5.8298,5.8374,5.8988,5.9253,5.914,5.9178,5.9215,5.9215,5.9253,5.9253,5.9178,5.8427,5.8052,5.794,5.6968,5.6669,5.6668,5.5622,5.4688,5.398,5.3716,5.3084,5.2343,5.2269,5.1751,5.1082,5.0302,5.0005,4.9893,4.915,4.889,4.889,4.889,4.889,4.8959,4.9225,4.9262,4.9197,4.9123,4.8385,4.7532,4.6775,4.5923,4.5109,4.4363,4.4214,4.4184,4.4055,4.3897,4.3837,4.3897,4.2975,4.2551,4.3138,4.2485,4.1651,4.0917,4.1133,4.0838,3.962,4.0046,4.0254,4.007,4.0735,4.1,4.0783,4.1036,4.1418,4.1954,4.2375,4.2899,4.3568,4.3235,4.3174,4.3328,4.3774,4.4397,5.3505,5.5293,5.6917,5.6767,5.7602,0.0,0.0,5.866,5.8464,5.9454,5.8663,0.0,0.0,0.0,6.1174,6.1972,6.2126,6.2075,6.2013,6.1654,6.1369,6.1352,6.1337,6.1306,6.1208,6.1098,6.0886,6.0432,5.9796,5.9062,5.8311,5.7898,5.7492,5.7168,5.7996,5.8438,5.8408,5.906,5.9401,5.929,5.929,5.929,5.929,5.929,5.929,5.929,5.899,5.8577,5.8089,5.7715,5.7192,5.6594,5.6029,5.4984,5.3868,5.435,5.3682,5.2605,5.2531,5.2048,5.1342,5.1008,5.0896,5.0859,5.0562,5.0079,4.967,4.967,4.9299,4.8925,4.9027,4.9027,4.8993,4.8962,4.8296,4.7593,4.7188,4.6487,4.5675,4.4823,4.4642,4.4391,4.3808,4.4039,4.4338,4.4196,4.4345,4.4309,4.4017,4.3578,4.2736,4.1348,4.1078,4.1019,4.0983,4.1145,4.1235,4.1183,4.1557,4.1643,4.14,4.1869,4.2121,4.2159,4.221,4.2489,4.2932,4.2815,4.2987,4.3388,4.3652,4.4009,5.273,5.4687,5.6578,5.6269,0.0,0.0,5.9636,5.9328,5.905,6.0039,5.9168,0.0,0.0,0.0,0.0,0.0,6.1603,6.1588,6.1507,6.1472,6.1434,6.1327,6.1352,6.1291,6.1173,6.106,6.0941,6.0827,6.0172,5.9613,5.9243,5.8682,5.8301,5.7976,5.8494,5.8748,5.8681,5.9174,5.9328,5.9215,5.9215,5.9215,5.929,5.929,5.929,5.929,5.929,5.899,5.839,5.8091,5.7342,5.6442,5.6246,5.5501,5.4611,5.4869,5.4314,5.3349,5.3051,5.2605,5.2122,5.1862,5.1788,5.1714,5.1417,5.0898,5.0416,5.0416,5.0008,4.9564,4.9564,4.9414,4.9303,4.9454,4.8899,4.8197,4.783,4.7129,4.6282,4.5471,4.5252,4.4998,4.4342,4.4709,4.5004,4.4894,4.5331,4.5439,4.4704,4.4476,4.3736,4.2087,4.1404,4.1216,4.1657,4.1604,4.1604,4.1648,4.2218,4.2334,4.196,4.2483,4.2739,4.2658,4.2551,4.2646,4.2983,4.2924,4.3072,4.3449,4.3449,4.3701,5.28,5.4377,5.6096,5.7056,0.0,0.0,5.971,5.949,5.9171,6.0117,5.9655,5.9375,6.0233,6.0405,0.0,6.1465,6.1612,6.1559,6.15,6.1507,6.1472,6.1396,6.1394,6.1391,6.1314,6.1137,6.0962,6.0911,6.0685,6.0176,5.9255,5.9701,5.9596,5.876,5.9231,5.9438,5.929,5.9253,5.9139,5.8984,5.8984,5.9101,5.929,5.929,5.929,5.929,5.929,5.929,5.9102,5.8047,5.7032,5.6206,5.6162,5.6125,5.6095,5.5235,5.4936,5.4788,5.4053,5.3831,5.3683,5.2865,5.2605,5.2456,5.1491,5.1231,5.1231,5.1155,5.1117,5.1117,5.1117,5.0601,5.0232,5.0895,5.0452,4.9565,4.879,4.7942,4.7059,4.6176,4.6028,4.5993,4.592,4.5883,4.5883,4.5809,4.5658,4.5424,4.5152,4.4988,4.4456,4.3235,4.2194,4.155,4.1415,4.1267,4.1221,4.137,4.2549,4.2936,4.2272,4.2718,4.3116,4.3403,4.3403,4.3608,4.4097,4.3747,4.3628,4.3628,4.3235,4.369,5.1193,5.299,0.0,5.5465,0.0,0.0,0.0,5.9993,0.0,0.0,6.0171,6.0077,6.0342,6.0401,0.0,6.1471,6.1595,6.1559,6.15,6.1489,6.1484,6.1408,6.1366,6.1291,6.1173,6.106,6.0938,6.0866,6.0635,6.0403,6.0081,5.9954,5.9804,5.9539,5.9534,5.951,5.929,5.9253,5.9178,5.8984,5.8984,5.9024,5.9101,5.9101,5.9101,5.9101,5.9101,5.9063,5.8986,5.7928,5.7401,5.7097,5.6847,5.6436,5.6039,5.6282,5.6024,5.548,5.4707,5.4448,5.43,5.3487,5.3598,5.4041,5.3743,5.3669,5.3669,5.3629,5.3222,5.2887,5.3277,5.2757,5.1952,5.1146,5.078,5.0483,5.0184,4.9522,4.8638,4.7793,4.7094,4.6506,4.592,4.621,4.6499,4.6458,4.6852,4.6871,4.6002,4.5416,4.4752,4.4005,4.3305,4.2818,4.2682,4.3089,4.3079,4.2498,4.4049,4.435,4.3034,4.3993,4.4281,4.3761,4.3654,4.3572,4.344,4.3384,4.3538,4.3923,4.3948,4.4106,5.1979,5.3783,0.0,5.6265,5.791,5.9643,6.0526,0.0,0.0,0.0,6.0923,6.0937,6.0932,6.0916,0.0,6.1563,6.1619,6.1586,6.1568,6.1549,6.1518,6.1434,6.1381,6.1306,6.1191,6.108,6.0959,6.0866,6.0685,6.0559,6.0464,6.0167,5.995,5.9885,5.9685,5.9474,5.929,5.9178,5.9101,5.8942,5.8902,5.8902,5.8865,5.8945,5.8984,5.8984,5.8942,5.8825,5.8747,5.8053,5.7783,5.7783,5.7523,5.7148,5.683,5.6927,5.6712,5.6203,5.5433,5.5217,5.5106,5.4626,5.4773,5.5138,5.5133,5.5091,5.5049,5.4969,5.4595,5.4252,5.4561,5.4298,5.3646,5.2407,5.1642,5.1161,5.1119,5.0456,4.9683,4.9172,4.84,4.7667,4.7192,4.715,4.7219,4.7175,4.7741,4.7861,4.7132,4.6364,4.5666,4.5198,4.4258,4.3522,4.3325,4.3957,4.4273,4.4042,4.5041,4.5217,4.4281,4.4906,4.4971,4.4418,4.4258,4.4096,4.3821,4.371,4.3889,4.4236,4.4293,4.4518,5.4051,5.5709,5.7428,5.845,5.9517,0.0,6.1424,6.1615,6.1632,6.1694,0.0,6.1719,6.1718,6.1707,6.172,6.1676,6.1654,6.1588,6.1603,6.1578,6.1588,6.1484,6.146,6.1391,6.1314,6.1173,6.106,6.0933,6.0804,6.0685,6.0506,6.0256,6.0045,5.9885,5.9616,5.9439,5.9215,5.91,5.8982,5.8899,5.8777,5.8698,5.8698,5.8865,5.8945,5.8945,5.8781,5.8614,5.8449,5.8268,5.8252,5.8326,5.8153,5.8198,5.8215,5.7479,5.714,5.7,5.624,5.5987,5.5987,5.5913,5.5913,5.5945,5.5896,5.5838,5.5742,5.5615,5.5524,5.5431,5.5431,5.5358,5.5093,5.4364,5.2943,5.1821,5.1821,5.1042,5.0337,5.0337,4.9719,4.9174,4.9174,4.8592,4.8078,4.8006,4.8258,4.8434,4.8442,4.7839,4.7226,4.6613,4.5082,4.4015,4.3763,4.43,4.4963,4.5701,4.5754,4.5736,4.5736,4.558,4.544,4.5177,4.5069,4.494,4.4776,4.453,4.4508,4.4621,4.4575,4.5094,5.2723,5.4431,0.0,5.7546,5.9549,6.1361,6.1569,6.1637,6.1694,6.1704,6.1716,6.1718,6.1709,6.1701,6.1686,6.1615,6.1602,6.158,6.1586,6.1607,6.1539,6.146,6.1408,6.1391,6.1314,6.1173,6.108,6.0982,6.0781,6.061,6.0559,6.0197,5.9918,5.9885,5.9616,5.9401,5.9253,5.9215,5.91,5.8982,5.8899,5.8859,5.8859,5.8781,5.8781,5.8739,5.8614,5.8529,5.8449,5.8268,5.8547,5.9136,5.8998,5.8951,5.8998,5.8814,5.8336,5.7675,5.6867,5.6573,5.6463,5.5882,5.6014,5.6438,5.6438,5.6786,5.7167,5.712,5.712,5.7072,5.6928,5.6455,5.5898,5.562,5.4527,5.3498,5.3498,5.2324,5.1304,5.1304,5.0562,4.993,4.993,4.9778,4.9474,4.9082,4.8345,4.8215,4.9297,5.014,4.9745,4.7155,4.6164,4.5663,4.5614,4.5754,4.5895,4.6055,4.6549,4.6795,4.6726,4.6462,4.5991,4.5177,4.5177,4.5049,4.4776,4.5375,4.5682,4.5626,4.6294,4.6783,5.3271,5.5033,0.0,5.8958,0.0,6.1612,6.1615,6.1642,6.1701,6.1711,6.1718,6.1717,6.1707,6.1701,6.1534,6.1119,6.1387,6.1374,6.052,6.108,6.1393,6.0888,6.1175,6.1391,6.1314,6.1264,6.1155,6.1022,6.1263,6.1358,6.1261,6.0971,6.0708,6.0621,5.998,5.9583,5.9401,5.929,5.9215,5.91,5.8982,5.894,5.8899,5.8777,5.8698,5.8698,5.8529,5.8443,5.848,5.862,5.8934,5.9338,5.9648,5.9795,5.9758,5.9355,5.9124,5.893,5.8124,5.8077,5.8213,5.7408,5.7361,5.7606,5.7204,5.7255,5.7486,5.7486,5.7437,5.7388,5.7338,5.6998,5.6672,5.6573,5.5474,5.4444,5.4444,5.3416,5.2545,5.259,5.1556,5.0669,5.0714,5.017,4.9575,4.9242,4.8996,4.9061,4.9631,5.0855,5.1066,4.9424,4.7654,4.6764,4.7257,4.7327,4.7401,4.7683,4.8068,4.826,4.81,4.7939,4.743,4.6419,4.6006,4.5897,4.6088,4.6199,4.6349,4.6669,4.7192,4.7626,5.3979,5.5941,5.8142,6.0661,6.1451,0.0,6.1609,6.1525,6.147,6.1481,6.1601,6.1637,6.1514,6.147,6.1186,6.0315,6.0778,6.0729,5.9293,6.0231,6.0838,6.0277,6.0799,6.1196,6.1314,6.1297,6.1208,6.1022,6.1659,6.2039,6.1997,6.1812,6.1669,6.1614,6.0568,5.9915,5.9736,5.9477,5.929,5.9215,5.9063,5.9057,5.9123,5.8962,5.8846,5.8698,5.848,5.8393,5.8467,5.897,5.9281,5.9501,6.0309,6.0603,6.0481,5.9821,5.9798,6.0066,5.9408,5.9529,5.9917,5.9224,5.8883,5.8628,5.7972,5.7546,5.7338,5.7338,5.7347,5.7319,5.7174,5.7246,5.7319,5.7174,5.6147,5.5171,5.5124,5.4375,5.3713,5.3664,5.2376,5.1272,5.1365,5.0426,4.9703,4.9622,5.0064,5.0308,5.0078,5.1034,5.1708,5.1708,4.9256,4.8032,4.8905,4.8748,4.875,4.9203,4.9571,4.9711,4.9567,4.9652,4.9278,4.8377,4.7306,4.7044,4.7533,4.7017,4.7155,4.7945,4.8083,4.8587,5.2675,0.0,5.8111,0.0,6.1023,6.1612,0.0,0.0,6.0568,0.0,6.1172,6.1481,6.0696,6.0571,6.0288,5.9417,5.9368,5.9352,5.9038,5.9191,5.9571,6.0125,6.0242,6.0536,6.1236,6.1297,6.1225,6.1118,6.1098,6.134,6.1973,6.1759,6.1878,6.242,6.1401,6.078,6.071,5.9886,5.9401,5.929,5.9215,5.9435,5.9942,5.9901,5.9487,5.8698,5.848,5.8393,5.8467,5.897,5.9612,6.0309,6.1117,6.1398,6.1249,6.114,6.0688,5.999,5.988,5.9953,5.999,5.988,5.927,5.8587,5.8478,5.7919,5.7239,5.7239,5.7644,5.7939,5.7216,5.7474,5.7729,5.7009,5.658,5.6309,5.5944,5.5269,5.4496,5.3677,5.2618,5.1764,5.1679,5.1486,5.1526,5.1953,5.1742,5.1486,5.1437,5.1615,5.1708,5.1708,5.0909,5.0506,5.0892,4.9588,4.8847,4.9038,5.0206,5.0805,5.0608,5.1164,5.1346,5.1071,4.8985,4.7835,4.7665,4.8363,4.9054,4.9666,5.0355,5.1139,5.4129,5.6125,5.8228,0.0,6.1314,6.1471,6.103,6.0631,6.0262,5.9764,5.9999,6.011,5.9754,5.9667,5.9382,5.8519,5.8783,5.8766,5.7726,5.8412,5.9104,5.9449,5.9828,6.0405,6.1148,6.1281,6.1247,6.1079,6.1867,6.2474,6.2704,6.2908,6.31,6.3359,6.2269,6.142,6.0898,6.0414,5.9853,5.929,5.9215,5.9549,6.0211,6.0129,6.0083,6.011,5.9849,5.9723,5.9797,6.0294,6.075,6.1153,6.1862,6.2105,6.2018,6.1478,6.1266,6.1199,6.0711,6.0804,6.1042,6.057,6.0155,5.9704,5.9216,5.8766,5.8408,5.8356,5.8502,5.8718,5.8358,5.8124,5.7891,5.7567,5.7083,5.6652,5.65,5.5713,5.4768,5.3928,5.3333,5.2866,5.2615,5.2315,5.215,5.2054,5.1858,5.1708,5.1708,5.1708,5.2284,5.3651,5.3641,5.3282,5.2795,5.1652,5.1105,5.137,5.1581,5.1844,5.2137,5.2432,5.2341,5.1808,4.9901,4.9179,4.9734,4.9777,5.0367,5.1429,5.1622,5.1968,0.0,0.0,5.7666,6.0044,6.0815,6.0807,0.0,0.0,5.9567,0.0,5.8629,5.8463,5.8456,5.864,5.848,5.7616,5.8036,5.798,5.6673,5.7563,5.8481,5.8877,5.9451,6.0172,6.1131,6.1264,6.1271,6.1285,6.2442,6.3261,6.354,6.3915,6.4131,6.4305,6.3141,6.21,6.12,6.064,6.0003,5.929,5.9253,5.97,6.0591,6.0509,6.0943,6.1781,6.1069,6.0794,6.0868,6.136,6.1594,6.1618,6.2325,6.2552,6.2427,6.174,6.1729,6.2059,6.1478,6.1552,6.1933,6.1263,6.0937,6.0594,5.9872,5.9529,5.9295,5.9221,5.931,5.9418,5.9238,5.8788,5.8429,5.825,5.7657,5.7119,5.6831,5.5919,5.4973,5.426,5.3917,5.3519,5.2766,5.2458,5.215,5.1758,5.1708,5.1943,5.2571,5.2678,5.346,5.5495,5.566,5.518,5.4226,5.3415,5.3042,5.3324,5.3027,5.3007,5.3493,5.3528,5.319,5.2593,5.1185,5.0774,5.1431,5.122,5.1743,5.2889,5.271,5.2874,0.0,5.4718,0.0,5.7555,5.8613,5.9205,0.0,0.0,5.8008,5.7889,5.7257,5.6735,5.6727,5.7348,5.7577,5.6704,5.6614,5.6595,5.6496,5.6533,5.7118,5.8721,5.8919,5.9541,6.1053,6.1191,6.1447,6.1989,6.2121,6.2781,6.4151,6.4164,6.4405,6.5117,6.4051,6.2969,6.203,6.0265,5.9328,5.929,5.929,6.004,6.145,6.145,6.2183,6.3371,6.155,6.0794,6.0868,6.136,6.1545,6.1506,6.2274,6.2449,6.2185,6.2149,6.2078,6.2005,6.1969,6.1969,6.195,6.1804,6.1207,6.0593,6.0392,5.9797,5.9221,5.9221,5.9614,5.9895,5.9215,5.9388,5.9594,5.8845,5.8516,5.8053,5.6868,5.5829,5.4971,5.4526,5.4027,5.305,5.1333,5.1438,5.1758,5.1672,5.1708,5.2571,5.4992,5.532,5.5565,5.6273,5.6091,5.5588,5.4812,5.3999,5.3641,5.3744,5.4161,5.438,5.4415,5.4301,5.4208,5.4173,5.3401,5.2607,5.1808,5.2678,5.3414,5.4011,5.3868,5.4251,0.0,0.0,0.0,5.6554,5.7606,5.8116,5.7612,5.7695,5.7734,5.7101,5.6738,5.6523,5.653,5.6776,5.6865,5.6548,5.6485,5.6503,5.6496,5.6922,5.7663,5.876,5.9374,6.0056,6.1039,6.1137,6.1388,6.2012,6.2502,6.3233,6.4126,6.4589,6.4856,6.4993,6.4516,6.3465,6.1882,6.0641,5.9926,5.9887,5.9887,6.0668,6.2146,6.2146,6.2612,6.3428,6.2697,6.2345,6.2335,6.2254,6.2215,6.2201,6.2287,6.2291,6.2185,6.2114,6.2005,6.184,6.184,6.182,6.1764,6.1708,6.1492,6.122,6.1013,6.0777,6.0562,6.0447,6.0568,6.0652,6.0402,6.0152,5.9701,5.8916,5.8645,5.8374,5.7484,5.7021,5.6558,5.5845,5.5395,5.4797,5.3985,5.4327,5.4599,5.4161,5.4105,5.4472,5.5367,5.5507,5.5566,5.5799,5.587,5.5671,5.5398,5.4741,5.4599,5.4966,5.4719,5.4697,5.5109,5.5086,5.4899,5.4521,5.4754,5.4415,5.3449,5.3672,5.4198,5.5027,5.473,5.4834,5.3083,0.0,0.0,0.0,5.6327,5.6523,5.656,5.6792,5.6903,5.6528,5.648,5.6503,5.6503,5.6471,5.6485,5.6485,5.651,5.6605,5.6878,5.736,5.8101,5.9227,5.9801,6.0366,6.102,6.1041,6.1267,6.1914,6.2708,6.3406,6.4046,6.4769,6.5027,6.4745,6.4332,6.3274,6.1646,6.1008,6.0516,6.0095,6.0435,6.1214,6.2426,6.247,6.2829,6.3382,6.3279,6.3147,6.3099,6.2755,6.2552,6.25,6.2291,6.2132,6.215,6.2276,6.2093,6.1856,6.2053,6.2011,6.1954,6.1933,6.2076,6.2198,6.1735,6.1664,6.1533,6.1165,6.1093,6.1165,6.1414,6.1307,6.095,6.0415,6.0165,5.9822,5.9028,5.8401,5.7654,5.6354,5.6786,5.7258,5.7052,5.6952,5.6657,5.616,5.622,5.628,5.628,5.628,5.635,5.6645,5.6823,5.6869,5.6623,5.6188,5.6117,5.6529,5.5942,5.5777,5.6245,5.634,5.6153,5.5742,5.6127,5.5985,5.5318,5.4957,5.518,5.5953,5.5494,5.5294,0.0,0.0,0.0,0.0,0.0,0.0,5.6059,0.0,5.5405,5.623,5.6471,5.651,5.6535,5.6472,5.6425,5.6464,5.648,5.68,5.7594,5.7711,5.8355,6.0005,6.0164,6.0381,6.102,6.0982,6.1158,6.1761,6.2525,6.3255,6.3955,6.4633,6.4815,6.4405,6.3498,6.2551,6.1566,6.14,6.0864,5.9998,6.0901,6.1682,6.2294,6.2464,6.2822,6.3382,6.3242,6.3099,6.3002,6.2705,6.25,6.2381,6.2238,6.2114,6.2095,6.2779,6.2542,6.1909,6.2494,6.2723,6.2723,6.2605,6.3048,6.3489,6.2617,6.2307,6.2164,6.1379,6.1165,6.1343,6.2128,6.2842,6.3377,6.3377,6.302,6.2414,6.1379,5.9916,5.8174,5.6047,5.807,6.0107,6.0107,5.8843,5.7701,5.7422,5.7646,5.793,5.786,5.786,5.8097,5.8835,5.9076,5.8982,5.8543,5.839,5.8305,5.8308,5.8008,5.779,5.779,5.7912,5.8033,5.7998,5.7435,5.7162,5.7335,5.6553,5.6418,5.6835,5.6059,5.559,5.0703,0.0,0.0,0.0,0.0,0.0,0.0,5.4804,5.5238,5.6199,5.629,5.6419,5.7091,5.7208,5.7391,5.8013,5.7164,5.6738,5.7566,5.8208,5.8965,6.0008,6.0617,6.098,6.1003,6.0959,6.1151,0.0,6.1934,6.2557,6.3861,6.4434,6.4596,6.4324,6.3978,6.3331,6.2337,6.2129,6.193,6.1575,6.1752,6.2225,6.2956,6.3002,6.302,6.3099,6.3051,6.2953,6.2855,6.2552,6.2397,6.2381,6.2168,6.2422,6.2911,6.296,6.3135,6.3343,6.3418,6.3334,6.3214,6.3153,6.3296,6.3438,6.3163,6.3092,6.3056,6.2806,6.2735,6.2867,6.3178,6.3392,6.3377,6.3377,6.302,6.2699,6.2735,6.1557,6.0249,5.9645,5.9823,6.0297,6.0732,5.9557,5.8694,5.892,5.9966,6.0412,5.9394,5.9348,5.9299,5.9011,5.8719,5.8509,5.8367,5.8426,5.8403,5.8414,5.8284,5.8094,5.7973,5.7991,5.7991,5.8033,5.8001,5.8013,5.8152,5.6688,5.6099,5.6404,5.5928,5.5648,0.0,0.0,0.0,0.0,0.0,0.0,5.3877,5.4291,5.4789,5.6356,5.6665,5.6877,5.773,5.794,5.811,5.8599,5.7921,5.7638,5.8615,5.916,5.9748,6.0566,6.1041,6.122,6.1022,6.0916,6.0988,6.1301,6.1458,6.2208,6.3664,6.3951,6.4105,6.4206,6.4121,6.3542,6.2544,6.2747,6.253,6.2059,6.2345,6.2704,6.3099,6.3099,6.3051,6.2904,6.2855,6.2755,6.2603,6.2397,6.2381,6.2344,6.2114,6.2476,6.3237,6.3336,6.3595,6.3932,6.4051,6.3974,6.3912,6.3912,6.4126,6.4341,6.3984,6.3974,6.3964,6.3643,6.4,6.4501,6.4696,6.4787,6.4804,6.4483,6.4073,6.3867,6.4341,6.3698,6.2602,6.098,6.036,6.041,6.1459,6.0892,6.036,6.0656,6.1597,6.1908,6.0967,6.0924,6.0879,6.0458,6.0035,5.976,5.976,5.9586,5.9467,5.9455,5.9384,5.9289,5.9133,5.9274,5.937,5.9408,5.9206,5.9037,5.8795,5.764,5.7064,5.7157,5.7246,5.7035,4.8584,4.9114,0.0,0.0,0.0,0.0,5.3868,5.3785,5.384,5.631,5.6868,5.7232,5.8123,5.8412,5.8508,5.8433,5.8722,5.9232,6.0074,6.0176,6.0462,6.1303,6.1337,6.1203,6.1022,6.0894,6.0734,6.0585,6.1134,6.2046,6.327,6.3312,6.3539,6.4083,6.3958,6.3451,6.2524,6.314,6.2919,6.1982,6.2815,6.3099,6.3002,6.3002,6.2904,6.2755,6.2603,6.25,6.2381,6.2275,6.2238,6.2381,6.2223,6.2621,6.3418,6.3869,6.4112,6.4196,6.4608,6.4733,6.4733,6.4733,6.5233,6.5661,6.4947,6.4894,6.4875,6.4266,6.5161,6.6334,6.6406,6.6746,6.6903,6.6125,6.5617,6.5415,6.5611,6.6025,6.529,6.1912,6.0973,6.1184,6.2424,6.257,6.2386,6.2392,6.2697,6.2763,6.2398,6.2463,6.256,6.2455,6.2046,6.1805,6.1734,6.1148,6.0843,6.0843,6.0843,6.0843,6.0843,6.1117,6.127,6.127,6.0762,6.0156,5.9473,5.8979,5.8681,5.8566,5.9065,5.885,4.7849,4.7703,4.7952,4.8727,0.0,0.0,5.1995,5.1779,5.1838,5.4535,5.4814,5.5078,5.6813,5.7636,5.8002,5.7862,5.9676,6.0834,6.0142,6.0041,6.0336,6.1205,6.1259,6.1155,6.1018,6.0933,6.0781,6.0585,6.1056,6.1657,6.2331,6.2899,6.3423,6.392,6.3915,6.3712,6.3379,6.3391,6.3308,6.3067,6.3168,6.3051,6.2855,6.2855,6.2705,6.2485,6.2449,6.2397,6.2381,6.2275,6.2185,6.2258,6.2749,6.3454,6.4194,6.4698,6.5298,6.5776,6.5645,6.559,6.559,6.559,6.5661,6.5768,6.5625,6.5554,6.5725,6.6316,6.733,6.8211,6.8211,6.7868,6.749,6.7118,6.6346,6.5545,6.5046,6.7366,6.934,6.8667,6.6429,6.4563,6.4283,6.3678,6.3406,6.3705,6.3789,6.3705,6.3372,6.3471,6.3291,6.2692,6.2238,6.1681,6.1041,6.1045,6.1034,6.1034,6.1034,6.1034,6.1034,6.1093,6.1152,6.1152,6.1127,6.1157,6.1127,5.9777,5.902,5.8908,5.8881,5.8672,4.7689,4.7553,4.7779,4.774,0.0,0.0,0.0,5.1318,5.1741,5.3433,5.4258,5.4931,5.5848,5.6613,5.7374,5.7987,5.8854,5.9431,5.9403,6.075,6.1698,6.1717,6.1756,6.1524,6.0993,6.0911,6.0734,6.0545,6.0578,6.0904,6.1536,6.177,6.233,6.328,6.3275,6.337,6.3602,6.3557,6.3465,6.3382,6.3242,6.3099,6.2904,6.2705,6.25,6.2381,6.2222,6.2114,6.2114,6.206,6.2259,6.2657,6.3019,6.3671,6.4447,6.495,6.5622,6.6279,6.6396,6.6439,6.6574,6.6968,6.7139,6.7239,6.7239,6.7267,6.7573,6.8553,6.9057,6.9381,6.9381,6.9038,6.8564,6.8225,6.7731,6.7349,6.7546,6.91,7.0514,7.0514,6.9229,6.7848,6.6843,6.638,6.6119,6.5936,6.5622,6.5349,6.5046,6.4693,6.4407,6.4018,6.3364,6.2817,6.2631,6.2235,6.2105,6.2391,6.2582,6.2641,6.2664,6.2687,6.2529,6.2134,6.1795,6.1672,6.1784,6.099,6.0483,6.026,6.0053,5.9938,0.0,0.0,0.0,0.0,0.0,4.9186,0.0,0.0,0.0,5.2554,5.3743,0.0,0.0,0.0,0.0,5.7346,0.0,0.0,0.0,6.1288,0.0,6.1996,6.1902,6.1726,6.1135,6.0849,6.061,6.037,6.0106,6.0226,6.0928,6.0679,6.1164,6.2421,6.2519,6.2842,6.3379,6.3527,6.3557,6.3465,6.3289,6.3147,6.3002,6.2654,6.2397,6.2344,6.2005,6.1784,6.182,6.1728,6.229,6.3011,6.3269,6.3832,6.4664,6.5107,6.5669,6.6315,6.6825,6.7111,6.7282,6.807,6.845,6.8678,6.8678,6.8877,6.9317,7.0129,7.0355,7.0365,7.0337,7.0109,6.9813,6.9332,6.9229,6.9444,7.03,7.0514,7.0514,7.0514,7.0514,7.016,6.9169,6.8916,6.8631,6.7933,6.7327,6.6865,6.6731,6.6164,6.5734,6.5384,6.4734,6.433,6.4223,6.3581,6.3406,6.3896,6.4052,6.4135,6.4202,6.4339,6.3997,6.32,6.2549,6.215,6.2005,6.2005,6.1876,6.1651,6.1466,6.1328,0.0,0.0,0.0,0.0,4.7703,0.0,0.0,0.0,5.0009,5.1453,0.0,0.0,0.0,0.0,0.0,0.0,0.0,0.0,5.8767,6.0589,6.1646,6.0935,6.0737,6.0904,6.1608,6.0835,6.0246,6.0217,5.9912,6.0059,6.0896,6.0605,6.0786,6.1599,6.2263,6.2582,6.2562,6.3267,6.3602,6.3557,6.3465,6.3242,6.3002,6.2805,6.2552,6.2185,6.206,6.1895,6.1784,6.1708,6.2176,6.3083,6.3733,6.4491,6.5285,6.5715,6.5949,6.6128,6.676,6.6981,6.7189,6.7903,6.8255,6.845,6.8678,6.9273,6.9976,7.0112,7.0717,7.1323,7.1195,7.1195,7.1095,7.0436,7.0336,7.0371,7.0478,7.0514,7.0514,7.0514,7.0514,7.0478,7.0267,6.9551,6.8908,6.877,6.8172,6.7749,6.7749,6.7777,6.7171,6.5521,6.5661,6.5207,6.3663,6.3841,6.424,6.477,6.416,6.3908,6.4202,6.4339,6.3997,6.32,6.3092,6.2693,6.2005,6.2005,6.1932,6.1744,6.1768,6.1651,0.0,0.0,0.0,0.0,0.0,0.0,4.9633,0.0,5.0106,0.0,0.0,0.0,0.0,0.0,0.0,0.0,5.5337,0.0,0.0,0.0,5.9528,0.0,0.0,0.0,6.0074,6.0044,6.0061,6.0188,5.9912,5.9832,6.0176,5.9816,6.0182,6.145,6.1571,6.2109,6.2992,6.3234,6.3373,6.3373,6.3242,6.3099,6.3002,6.3232,6.3298,6.3089,6.2712,6.2526,6.247,6.2242,6.2593,6.3477,6.4196,6.4819,6.537,6.5823,6.6308,6.6809,6.7403,6.8011,6.8642,6.9627,7.0138,7.0428,7.049,7.1158,7.19,7.1811,7.2091,7.2345,7.2155,7.1765,7.1448,7.1627,7.1498,7.1294,7.1398,7.1261,7.1049,7.0585,7.0514,7.0514,7.0514,7.019,6.9971,6.9971,6.943,6.9,6.8904,6.8291,6.754,6.6637,6.6161,6.5708,6.5248,6.5334,6.5502,6.5803,6.5622,6.5574,6.5692,6.5294,6.4954,6.4613,6.4106,6.3708,6.3382,6.3475,6.3439,6.3384,6.2293,6.18,5.0139,0.0,0.0,0.0,0.0,0.0,0.0,0.0,0.0,0.0,0.0,0.0,0.0,0.0,0.0,0.0,0.0,5.5109,0.0,5.6796,0.0,0.0,0.0,0.0,0.0,5.9133,5.9596,5.9756,5.9734,5.976,5.9917,5.9553,5.9953,6.1367,6.1329,6.19,6.3002,6.3084,6.3147,6.3147,6.2953,6.3015,6.3235,6.3658,6.3868,6.4035,6.3602,6.3414,6.3357,6.301,6.3298,6.4147,6.4562,6.5069,6.5599,6.5894,6.6379,6.7024,6.7962,6.903,7.0195,7.1159,7.1593,7.1816,7.1842,7.2449,7.313,7.3078,7.3161,7.327,7.2826,7.2372,7.2098,7.2394,7.2449,7.2319,7.2072,7.1899,7.1511,7.0657,7.0514,7.0514,7.0514,7.065,7.0718,7.0718,7.035,7.0022,6.9926,6.9196,6.8558,6.8296,6.7748,6.7537,6.7847,6.7186,6.668,6.6512,6.6668,6.6786,6.6786,6.6257,6.5859,6.5591,6.5011,6.4613,6.4396,6.4511,6.453,6.4494,6.2983,6.2237,0.0,0.0,0.0,5.021,0.0,0.0,0.0,0.0,4.8238,0.0,0.0,0.0,0.0,0.0,0.0,0.0,0.0,0.0,0.0,0.0,0.0,0.0,0.0,0.0,0.0,5.828,5.871,5.8635,5.9228,5.9885,6.0417,6.0336,6.0547,6.1076,6.176,6.2151,6.205,6.2645,6.3002,6.3002,6.2755,6.3006,6.3774,6.3811,6.4144,6.4767,6.4603,6.4492,6.4303,6.3837,6.4243,6.5046,6.4715,6.5278,6.6233,6.6048,6.6021,6.6272,6.8076,6.9813,7.1304,7.1656,7.1816,7.178,7.1927,7.2571,7.313,7.3078,7.3561,7.3897,7.2971,7.3269,7.3602,7.2713,7.308,7.3374,7.2247,7.1968,7.1717,7.0725,7.0514,7.0514,7.0514,7.0514,7.0514,7.0514,7.065,7.0785,7.075,7.1045,7.0973,7.0475,7.0937,7.135,7.135,6.9281,6.7533,6.6584,6.6668,6.6786,6.6786,6.6786,6.6388,6.5627,6.5555,6.5192,6.4396,6.4396,6.4396,6.4359,6.3674,6.3366,0.0,0.0,4.4804,4.827,0.0,0.0,0.0,0.0,0.0,0.0,0.0,0.0,0.0,0.0,0.0,0.0,0.0,0.0,0.0,0.0,0.0,0.0,0.0,0.0,0.0,0.0,5.8131,5.9419,5.8864,5.884,5.9666,5.9838,6.0258,6.1076,6.1661,6.2129,6.25,6.2658,6.2705,6.2603,6.25,6.2887,6.3653,6.4343,6.5038,6.5715,6.5495,6.5383,6.527,6.4806,6.4746,6.4972,6.535,6.577,6.6083,6.6021,6.6406,6.7249,6.9021,7.0437,7.1467,7.1718,7.1939,7.2254,7.2802,7.3616,7.4385,7.4686,7.4951,7.5034,7.4421,7.4102,7.3928,7.4013,7.4204,7.4144,7.3649,7.3438,7.3083,7.2191,7.162,7.1299,7.1299,7.0835,7.0582,7.065,7.0919,7.1081,7.0949,7.1211,7.1276,7.0883,7.1045,7.124,7.1494,6.9369,6.7885,6.7642,6.7076,6.6845,6.6961,6.6845,6.6677,6.6388,6.6388,6.6279,6.5989,6.6105,6.6126,6.609,6.4838,6.3893,4.6545,4.4684,0.0,4.6236,4.5478,0.0,4.8519,0.0,4.5822,0.0,0.0,0.0,0.0,0.0,0.0,0.0,0.0,0.0,0.0,5.5896,0.0,0.0,0.0,0.0,0.0,0.0,5.8104,5.89,5.8606,5.8728,0.0,5.985,6.053,6.13,6.1882,6.2341,6.2705,6.2552,6.2542,6.2728,6.2675,6.3257,6.4312,6.5022,6.5734,6.65,6.6276,6.6219,6.6162,6.5754,6.5514,6.5525,6.5966,6.6146,6.6207,6.6146,6.6952,6.8255,6.9452,7.0625,7.1656,7.1903,7.2121,7.2446,7.331,7.4235,7.5005,7.5479,7.5598,7.5534,7.5182,7.4754,7.4398,7.4735,7.4997,7.4935,7.4438,7.4225,7.3833,7.2941,7.2405,7.2084,7.2084,7.1725,7.1294,7.0758,7.0919,7.1081,7.0979,7.124,7.1368,7.1175,7.1175,7.1131,7.1132,6.972,6.8657,6.8255,6.7629,6.7193,6.7019,6.6903,6.6845,6.6786,6.6786,6.6786,6.6786,6.6903,6.6961,6.6925,6.5291,6.4182]}]]